<?xml version="1.0" encoding="UTF-8" standalone="no" ?>
<gpx xmlns="http://www.topografix.com/GPX/1/1" xmlns:xsi="http://www.w3.org/2001/XMLSchema-instance" xsi:schemaLocation="http://www.topografix.com/GPX/1/1 http://www.topografix.com/GPX/1/1/gpx.xsd" version="1.1" creator="VisuGPX - https://www.visugpx.com">
  <metadata>
    <name>Trail 1</name>
  </metadata>
  <trk>
    <name><![CDATA[Trail 1]]></name>
    <trkseg>
      <trkpt lat="45.59739" lon="6.79826">
        <ele>1723</ele>
        <time>2019-08-19T07:30:21Z</time>
      </trkpt>
      <trkpt lat="45.59742" lon="6.7983">
        <ele>1724</ele>
        <time>2019-08-19T07:30:40Z</time>
      </trkpt>
      <trkpt lat="45.59739" lon="6.79835">
        <ele>1729</ele>
        <time>2019-08-19T07:30:47Z</time>
      </trkpt>
      <trkpt lat="45.59743" lon="6.79832">
        <ele>1724</ele>
        <time>2019-08-19T07:31:34Z</time>
      </trkpt>
      <trkpt lat="45.5974" lon="6.79835">
        <ele>1729</ele>
        <time>2019-08-19T07:31:56Z</time>
      </trkpt>
      <trkpt lat="45.59727" lon="6.7983">
        <ele>1722</ele>
        <time>2019-08-19T07:32:06Z</time>
      </trkpt>
      <trkpt lat="45.59716" lon="6.79819">
        <ele>1721</ele>
        <time>2019-08-19T07:32:11Z</time>
      </trkpt>
      <trkpt lat="45.5971" lon="6.79807">
        <ele>1720</ele>
        <time>2019-08-19T07:32:16Z</time>
      </trkpt>
      <trkpt lat="45.59704" lon="6.79789">
        <ele>1719</ele>
        <time>2019-08-19T07:32:21Z</time>
      </trkpt>
      <trkpt lat="45.59701" lon="6.79776">
        <ele>1717</ele>
        <time>2019-08-19T07:32:26Z</time>
      </trkpt>
      <trkpt lat="45.59695" lon="6.79771">
        <ele>1717</ele>
        <time>2019-08-19T07:32:31Z</time>
      </trkpt>
      <trkpt lat="45.59685" lon="6.79777">
        <ele>1717</ele>
        <time>2019-08-19T07:32:36Z</time>
      </trkpt>
      <trkpt lat="45.59676" lon="6.79787">
        <ele>1718</ele>
        <time>2019-08-19T07:32:41Z</time>
      </trkpt>
      <trkpt lat="45.59664" lon="6.79799">
        <ele>1716</ele>
        <time>2019-08-19T07:32:46Z</time>
      </trkpt>
      <trkpt lat="45.59653" lon="6.79808">
        <ele>1718</ele>
        <time>2019-08-19T07:32:51Z</time>
      </trkpt>
      <trkpt lat="45.59642" lon="6.79814">
        <ele>1718</ele>
        <time>2019-08-19T07:32:56Z</time>
      </trkpt>
      <trkpt lat="45.59632" lon="6.7982">
        <ele>1717</ele>
        <time>2019-08-19T07:33:01Z</time>
      </trkpt>
      <trkpt lat="45.59626" lon="6.79825">
        <ele>1717</ele>
        <time>2019-08-19T07:33:07Z</time>
      </trkpt>
      <trkpt lat="45.59613" lon="6.79838">
        <ele>1729</ele>
        <time>2019-08-19T07:33:09Z</time>
      </trkpt>
      <trkpt lat="45.59607" lon="6.79843">
        <ele>1729</ele>
        <time>2019-08-19T07:33:14Z</time>
      </trkpt>
      <trkpt lat="45.59597" lon="6.79849">
        <ele>1728</ele>
        <time>2019-08-19T07:33:20Z</time>
      </trkpt>
      <trkpt lat="45.5959" lon="6.79855">
        <ele>1729</ele>
        <time>2019-08-19T07:33:24Z</time>
      </trkpt>
      <trkpt lat="45.59586" lon="6.79859">
        <ele>1730</ele>
        <time>2019-08-19T07:33:25Z</time>
      </trkpt>
      <trkpt lat="45.59578" lon="6.79865">
        <ele>1730</ele>
        <time>2019-08-19T07:33:31Z</time>
      </trkpt>
      <trkpt lat="45.59568" lon="6.79872">
        <ele>1732</ele>
        <time>2019-08-19T07:33:36Z</time>
      </trkpt>
      <trkpt lat="45.5956" lon="6.79878">
        <ele>1733</ele>
        <time>2019-08-19T07:33:41Z</time>
      </trkpt>
      <trkpt lat="45.59555" lon="6.79882">
        <ele>1733</ele>
        <time>2019-08-19T07:33:46Z</time>
      </trkpt>
      <trkpt lat="45.59548" lon="6.79889">
        <ele>1734</ele>
        <time>2019-08-19T07:33:51Z</time>
      </trkpt>
      <trkpt lat="45.59542" lon="6.79892">
        <ele>1735</ele>
        <time>2019-08-19T07:33:56Z</time>
      </trkpt>
      <trkpt lat="45.59531" lon="6.79892">
        <ele>1735</ele>
        <time>2019-08-19T07:34:02Z</time>
      </trkpt>
      <trkpt lat="45.59521" lon="6.79889">
        <ele>1735</ele>
        <time>2019-08-19T07:34:06Z</time>
      </trkpt>
      <trkpt lat="45.5951" lon="6.79884">
        <ele>1734</ele>
        <time>2019-08-19T07:34:11Z</time>
      </trkpt>
      <trkpt lat="45.59498" lon="6.79878">
        <ele>1735</ele>
        <time>2019-08-19T07:34:16Z</time>
      </trkpt>
      <trkpt lat="45.59491" lon="6.79874">
        <ele>1735</ele>
        <time>2019-08-19T07:34:21Z</time>
      </trkpt>
      <trkpt lat="45.59483" lon="6.79871">
        <ele>1735</ele>
        <time>2019-08-19T07:34:26Z</time>
      </trkpt>
      <trkpt lat="45.59472" lon="6.79871">
        <ele>1735</ele>
        <time>2019-08-19T07:34:32Z</time>
      </trkpt>
      <trkpt lat="45.59462" lon="6.79868">
        <ele>1735</ele>
        <time>2019-08-19T07:34:37Z</time>
      </trkpt>
      <trkpt lat="45.59454" lon="6.79865">
        <ele>1735</ele>
        <time>2019-08-19T07:34:41Z</time>
      </trkpt>
      <trkpt lat="45.59446" lon="6.79862">
        <ele>1735</ele>
        <time>2019-08-19T07:34:46Z</time>
      </trkpt>
      <trkpt lat="45.59439" lon="6.79858">
        <ele>1734</ele>
        <time>2019-08-19T07:34:52Z</time>
      </trkpt>
      <trkpt lat="45.59432" lon="6.79855">
        <ele>1734</ele>
        <time>2019-08-19T07:34:56Z</time>
      </trkpt>
      <trkpt lat="45.59427" lon="6.79853">
        <ele>1733</ele>
        <time>2019-08-19T07:35:01Z</time>
      </trkpt>
      <trkpt lat="45.5942" lon="6.79853">
        <ele>1733</ele>
        <time>2019-08-19T07:35:06Z</time>
      </trkpt>
      <trkpt lat="45.59408" lon="6.79854">
        <ele>1739</ele>
        <time>2019-08-19T07:35:12Z</time>
      </trkpt>
      <trkpt lat="45.59397" lon="6.79853">
        <ele>1740</ele>
        <time>2019-08-19T07:35:17Z</time>
      </trkpt>
      <trkpt lat="45.5939" lon="6.79853">
        <ele>1741</ele>
        <time>2019-08-19T07:35:19Z</time>
      </trkpt>
      <trkpt lat="45.59375" lon="6.79855">
        <ele>1743</ele>
        <time>2019-08-19T07:35:25Z</time>
      </trkpt>
      <trkpt lat="45.59366" lon="6.79856">
        <ele>1744</ele>
        <time>2019-08-19T07:35:29Z</time>
      </trkpt>
      <trkpt lat="45.59352" lon="6.79851">
        <ele>1744</ele>
        <time>2019-08-19T07:35:35Z</time>
      </trkpt>
      <trkpt lat="45.59342" lon="6.79844">
        <ele>1744</ele>
        <time>2019-08-19T07:35:39Z</time>
      </trkpt>
      <trkpt lat="45.59335" lon="6.79834">
        <ele>1742</ele>
        <time>2019-08-19T07:35:44Z</time>
      </trkpt>
      <trkpt lat="45.59329" lon="6.79823">
        <ele>1743</ele>
        <time>2019-08-19T07:35:49Z</time>
      </trkpt>
      <trkpt lat="45.59322" lon="6.79811">
        <ele>1743</ele>
        <time>2019-08-19T07:35:54Z</time>
      </trkpt>
      <trkpt lat="45.59316" lon="6.79803">
        <ele>1744</ele>
        <time>2019-08-19T07:35:59Z</time>
      </trkpt>
      <trkpt lat="45.59308" lon="6.79796">
        <ele>1744</ele>
        <time>2019-08-19T07:36:04Z</time>
      </trkpt>
      <trkpt lat="45.59303" lon="6.7979">
        <ele>1744</ele>
        <time>2019-08-19T07:36:09Z</time>
      </trkpt>
      <trkpt lat="45.59297" lon="6.79782">
        <ele>1744</ele>
        <time>2019-08-19T07:36:15Z</time>
      </trkpt>
      <trkpt lat="45.59292" lon="6.79779">
        <ele>1744</ele>
        <time>2019-08-19T07:36:19Z</time>
      </trkpt>
      <trkpt lat="45.59284" lon="6.79778">
        <ele>1745</ele>
        <time>2019-08-19T07:36:38Z</time>
      </trkpt>
      <trkpt lat="45.59272" lon="6.79754">
        <ele>1745</ele>
        <time>2019-08-19T07:36:43Z</time>
      </trkpt>
      <trkpt lat="45.59263" lon="6.79741">
        <ele>1740</ele>
        <time>2019-08-19T07:36:43Z</time>
      </trkpt>
      <trkpt lat="45.59248" lon="6.79729">
        <ele>1746</ele>
        <time>2019-08-19T07:36:47Z</time>
      </trkpt>
      <trkpt lat="45.5924" lon="6.79727">
        <ele>1746</ele>
        <time>2019-08-19T07:36:50Z</time>
      </trkpt>
      <trkpt lat="45.59235" lon="6.79727">
        <ele>1746</ele>
        <time>2019-08-19T07:36:55Z</time>
      </trkpt>
      <trkpt lat="45.59227" lon="6.79728">
        <ele>1747</ele>
        <time>2019-08-19T07:37:00Z</time>
      </trkpt>
      <trkpt lat="45.59218" lon="6.79729">
        <ele>1747</ele>
        <time>2019-08-19T07:37:05Z</time>
      </trkpt>
      <trkpt lat="45.59209" lon="6.79732">
        <ele>1748</ele>
        <time>2019-08-19T07:37:10Z</time>
      </trkpt>
      <trkpt lat="45.592" lon="6.79732">
        <ele>1749</ele>
        <time>2019-08-19T07:37:16Z</time>
      </trkpt>
      <trkpt lat="45.59195" lon="6.7973">
        <ele>1749</ele>
        <time>2019-08-19T07:37:20Z</time>
      </trkpt>
      <trkpt lat="45.59188" lon="6.79727">
        <ele>1750</ele>
        <time>2019-08-19T07:37:25Z</time>
      </trkpt>
      <trkpt lat="45.59174" lon="6.79724">
        <ele>1751</ele>
        <time>2019-08-19T07:37:30Z</time>
      </trkpt>
      <trkpt lat="45.59166" lon="6.7972">
        <ele>1757</ele>
        <time>2019-08-19T07:37:33Z</time>
      </trkpt>
      <trkpt lat="45.59161" lon="6.79715">
        <ele>1757</ele>
        <time>2019-08-19T07:37:36Z</time>
      </trkpt>
      <trkpt lat="45.59156" lon="6.79712">
        <ele>1756</ele>
        <time>2019-08-19T07:37:39Z</time>
      </trkpt>
      <trkpt lat="45.59151" lon="6.79711">
        <ele>1757</ele>
        <time>2019-08-19T07:37:44Z</time>
      </trkpt>
      <trkpt lat="45.59146" lon="6.79711">
        <ele>1757</ele>
        <time>2019-08-19T07:37:50Z</time>
      </trkpt>
      <trkpt lat="45.59138" lon="6.79708">
        <ele>1757</ele>
        <time>2019-08-19T07:37:55Z</time>
      </trkpt>
      <trkpt lat="45.5913" lon="6.79702">
        <ele>1757</ele>
        <time>2019-08-19T07:38:00Z</time>
      </trkpt>
      <trkpt lat="45.59116" lon="6.7969">
        <ele>1757</ele>
        <time>2019-08-19T07:38:05Z</time>
      </trkpt>
      <trkpt lat="45.59106" lon="6.79684">
        <ele>1758</ele>
        <time>2019-08-19T07:38:10Z</time>
      </trkpt>
      <trkpt lat="45.59095" lon="6.79681">
        <ele>1758</ele>
        <time>2019-08-19T07:38:15Z</time>
      </trkpt>
      <trkpt lat="45.59083" lon="6.79678">
        <ele>1764</ele>
        <time>2019-08-19T07:38:20Z</time>
      </trkpt>
      <trkpt lat="45.59077" lon="6.79673">
        <ele>1763</ele>
        <time>2019-08-19T07:38:25Z</time>
      </trkpt>
      <trkpt lat="45.59072" lon="6.79666">
        <ele>1758</ele>
        <time>2019-08-19T07:38:30Z</time>
      </trkpt>
      <trkpt lat="45.59064" lon="6.79659">
        <ele>1758</ele>
        <time>2019-08-19T07:38:36Z</time>
      </trkpt>
      <trkpt lat="45.59059" lon="6.7965">
        <ele>1757</ele>
        <time>2019-08-19T07:38:40Z</time>
      </trkpt>
      <trkpt lat="45.59054" lon="6.79642">
        <ele>1757</ele>
        <time>2019-08-19T07:38:45Z</time>
      </trkpt>
      <trkpt lat="45.59047" lon="6.79638">
        <ele>1757</ele>
        <time>2019-08-19T07:38:56Z</time>
      </trkpt>
      <trkpt lat="45.5904" lon="6.79638">
        <ele>1758</ele>
        <time>2019-08-19T07:39:05Z</time>
      </trkpt>
      <trkpt lat="45.59037" lon="6.79643">
        <ele>1759</ele>
        <time>2019-08-19T07:39:25Z</time>
      </trkpt>
      <trkpt lat="45.59033" lon="6.79645">
        <ele>1760</ele>
        <time>2019-08-19T07:40:34Z</time>
      </trkpt>
      <trkpt lat="45.59026" lon="6.79636">
        <ele>1759</ele>
        <time>2019-08-19T07:45:20Z</time>
      </trkpt>
      <trkpt lat="45.59015" lon="6.79634">
        <ele>1761</ele>
        <time>2019-08-19T07:45:26Z</time>
      </trkpt>
      <trkpt lat="45.59002" lon="6.79633">
        <ele>1761</ele>
        <time>2019-08-19T07:45:31Z</time>
      </trkpt>
      <trkpt lat="45.58987" lon="6.79631">
        <ele>1772</ele>
        <time>2019-08-19T07:45:36Z</time>
      </trkpt>
      <trkpt lat="45.58977" lon="6.79628">
        <ele>1773</ele>
        <time>2019-08-19T07:45:40Z</time>
      </trkpt>
      <trkpt lat="45.58967" lon="6.79625">
        <ele>1773</ele>
        <time>2019-08-19T07:45:45Z</time>
      </trkpt>
      <trkpt lat="45.58955" lon="6.79619">
        <ele>1774</ele>
        <time>2019-08-19T07:45:51Z</time>
      </trkpt>
      <trkpt lat="45.58944" lon="6.7961">
        <ele>1775</ele>
        <time>2019-08-19T07:45:56Z</time>
      </trkpt>
      <trkpt lat="45.58933" lon="6.79599">
        <ele>1775</ele>
        <time>2019-08-19T07:46:01Z</time>
      </trkpt>
      <trkpt lat="45.58926" lon="6.79593">
        <ele>1776</ele>
        <time>2019-08-19T07:46:05Z</time>
      </trkpt>
      <trkpt lat="45.58917" lon="6.79588">
        <ele>1777</ele>
        <time>2019-08-19T07:46:10Z</time>
      </trkpt>
      <trkpt lat="45.58908" lon="6.79585">
        <ele>1782</ele>
        <time>2019-08-19T07:46:16Z</time>
      </trkpt>
      <trkpt lat="45.58891" lon="6.79581">
        <ele>1778</ele>
        <time>2019-08-19T07:46:21Z</time>
      </trkpt>
      <trkpt lat="45.58882" lon="6.79572">
        <ele>1778</ele>
        <time>2019-08-19T07:46:26Z</time>
      </trkpt>
      <trkpt lat="45.5887" lon="6.7956">
        <ele>1778</ele>
        <time>2019-08-19T07:46:31Z</time>
      </trkpt>
      <trkpt lat="45.58857" lon="6.79551">
        <ele>1778</ele>
        <time>2019-08-19T07:46:36Z</time>
      </trkpt>
      <trkpt lat="45.58848" lon="6.79543">
        <ele>1778</ele>
        <time>2019-08-19T07:46:41Z</time>
      </trkpt>
      <trkpt lat="45.58836" lon="6.79531">
        <ele>1777</ele>
        <time>2019-08-19T07:46:46Z</time>
      </trkpt>
      <trkpt lat="45.58826" lon="6.79519">
        <ele>1780</ele>
        <time>2019-08-19T07:46:50Z</time>
      </trkpt>
      <trkpt lat="45.58814" lon="6.79505">
        <ele>1780</ele>
        <time>2019-08-19T07:46:56Z</time>
      </trkpt>
      <trkpt lat="45.58804" lon="6.79493">
        <ele>1769</ele>
        <time>2019-08-19T07:47:01Z</time>
      </trkpt>
      <trkpt lat="45.58801" lon="6.79486">
        <ele>1769</ele>
        <time>2019-08-19T07:47:06Z</time>
      </trkpt>
      <trkpt lat="45.58798" lon="6.79476">
        <ele>1768</ele>
        <time>2019-08-19T07:47:12Z</time>
      </trkpt>
      <trkpt lat="45.5879" lon="6.79461">
        <ele>1766</ele>
        <time>2019-08-19T07:47:16Z</time>
      </trkpt>
      <trkpt lat="45.58778" lon="6.79448">
        <ele>1765</ele>
        <time>2019-08-19T07:47:22Z</time>
      </trkpt>
      <trkpt lat="45.58769" lon="6.79439">
        <ele>1765</ele>
        <time>2019-08-19T07:47:27Z</time>
      </trkpt>
      <trkpt lat="45.58755" lon="6.79428">
        <ele>1763</ele>
        <time>2019-08-19T07:47:31Z</time>
      </trkpt>
      <trkpt lat="45.58744" lon="6.79418">
        <ele>1766</ele>
        <time>2019-08-19T07:47:36Z</time>
      </trkpt>
      <trkpt lat="45.58734" lon="6.79406">
        <ele>1765</ele>
        <time>2019-08-19T07:47:41Z</time>
      </trkpt>
      <trkpt lat="45.5873" lon="6.79399">
        <ele>1765</ele>
        <time>2019-08-19T07:47:46Z</time>
      </trkpt>
      <trkpt lat="45.58727" lon="6.79393">
        <ele>1766</ele>
        <time>2019-08-19T07:47:50Z</time>
      </trkpt>
      <trkpt lat="45.58718" lon="6.79386">
        <ele>1767</ele>
        <time>2019-08-19T07:47:56Z</time>
      </trkpt>
      <trkpt lat="45.58709" lon="6.79381">
        <ele>1768</ele>
        <time>2019-08-19T07:48:01Z</time>
      </trkpt>
      <trkpt lat="45.587" lon="6.79371">
        <ele>1768</ele>
        <time>2019-08-19T07:48:05Z</time>
      </trkpt>
      <trkpt lat="45.58696" lon="6.79364">
        <ele>1768</ele>
        <time>2019-08-19T07:48:10Z</time>
      </trkpt>
      <trkpt lat="45.58688" lon="6.79352">
        <ele>1769</ele>
        <time>2019-08-19T07:48:15Z</time>
      </trkpt>
      <trkpt lat="45.58679" lon="6.79344">
        <ele>1771</ele>
        <time>2019-08-19T07:48:20Z</time>
      </trkpt>
      <trkpt lat="45.5867" lon="6.79334">
        <ele>1773</ele>
        <time>2019-08-19T07:48:26Z</time>
      </trkpt>
      <trkpt lat="45.58664" lon="6.79324">
        <ele>1777</ele>
        <time>2019-08-19T07:48:31Z</time>
      </trkpt>
      <trkpt lat="45.58661" lon="6.79318">
        <ele>1778</ele>
        <time>2019-08-19T07:48:35Z</time>
      </trkpt>
      <trkpt lat="45.58654" lon="6.79305">
        <ele>1779</ele>
        <time>2019-08-19T07:48:41Z</time>
      </trkpt>
      <trkpt lat="45.58652" lon="6.79297">
        <ele>1779</ele>
        <time>2019-08-19T07:48:45Z</time>
      </trkpt>
      <trkpt lat="45.58648" lon="6.79287">
        <ele>1779</ele>
        <time>2019-08-19T07:48:50Z</time>
      </trkpt>
      <trkpt lat="45.58646" lon="6.7928">
        <ele>1779</ele>
        <time>2019-08-19T07:48:55Z</time>
      </trkpt>
      <trkpt lat="45.58648" lon="6.79268">
        <ele>1776</ele>
        <time>2019-08-19T07:49:06Z</time>
      </trkpt>
      <trkpt lat="45.58652" lon="6.79257">
        <ele>1773</ele>
        <time>2019-08-19T07:49:11Z</time>
      </trkpt>
      <trkpt lat="45.58652" lon="6.79249">
        <ele>1768</ele>
        <time>2019-08-19T07:49:16Z</time>
      </trkpt>
      <trkpt lat="45.58651" lon="6.79243">
        <ele>1769</ele>
        <time>2019-08-19T07:49:21Z</time>
      </trkpt>
      <trkpt lat="45.58648" lon="6.79237">
        <ele>1769</ele>
        <time>2019-08-19T07:49:25Z</time>
      </trkpt>
      <trkpt lat="45.58645" lon="6.79228">
        <ele>1770</ele>
        <time>2019-08-19T07:49:30Z</time>
      </trkpt>
      <trkpt lat="45.58643" lon="6.79221">
        <ele>1770</ele>
        <time>2019-08-19T07:49:36Z</time>
      </trkpt>
      <trkpt lat="45.58641" lon="6.79209">
        <ele>1770</ele>
        <time>2019-08-19T07:49:41Z</time>
      </trkpt>
      <trkpt lat="45.58639" lon="6.792">
        <ele>1770</ele>
        <time>2019-08-19T07:49:46Z</time>
      </trkpt>
      <trkpt lat="45.58637" lon="6.79189">
        <ele>1769</ele>
        <time>2019-08-19T07:49:51Z</time>
      </trkpt>
      <trkpt lat="45.58635" lon="6.79177">
        <ele>1768</ele>
        <time>2019-08-19T07:49:56Z</time>
      </trkpt>
      <trkpt lat="45.58634" lon="6.79168">
        <ele>1768</ele>
        <time>2019-08-19T07:50:01Z</time>
      </trkpt>
      <trkpt lat="45.58634" lon="6.79158">
        <ele>1760</ele>
        <time>2019-08-19T07:50:06Z</time>
      </trkpt>
      <trkpt lat="45.58634" lon="6.79146">
        <ele>1760</ele>
        <time>2019-08-19T07:50:11Z</time>
      </trkpt>
      <trkpt lat="45.58634" lon="6.79139">
        <ele>1759</ele>
        <time>2019-08-19T07:50:16Z</time>
      </trkpt>
      <trkpt lat="45.5863" lon="6.79129">
        <ele>1759</ele>
        <time>2019-08-19T07:50:21Z</time>
      </trkpt>
      <trkpt lat="45.58623" lon="6.7912">
        <ele>1759</ele>
        <time>2019-08-19T07:50:26Z</time>
      </trkpt>
      <trkpt lat="45.58615" lon="6.79112">
        <ele>1759</ele>
        <time>2019-08-19T07:50:31Z</time>
      </trkpt>
      <trkpt lat="45.58605" lon="6.79101">
        <ele>1759</ele>
        <time>2019-08-19T07:50:36Z</time>
      </trkpt>
      <trkpt lat="45.58595" lon="6.79095">
        <ele>1760</ele>
        <time>2019-08-19T07:50:41Z</time>
      </trkpt>
      <trkpt lat="45.58587" lon="6.79091">
        <ele>1760</ele>
        <time>2019-08-19T07:50:46Z</time>
      </trkpt>
      <trkpt lat="45.58578" lon="6.79087">
        <ele>1761</ele>
        <time>2019-08-19T07:50:51Z</time>
      </trkpt>
      <trkpt lat="45.5857" lon="6.79085">
        <ele>1762</ele>
        <time>2019-08-19T07:50:56Z</time>
      </trkpt>
      <trkpt lat="45.58555" lon="6.79094">
        <ele>1763</ele>
        <time>2019-08-19T07:51:01Z</time>
      </trkpt>
      <trkpt lat="45.58541" lon="6.79098">
        <ele>1763</ele>
        <time>2019-08-19T07:51:06Z</time>
      </trkpt>
      <trkpt lat="45.58528" lon="6.79103">
        <ele>1762</ele>
        <time>2019-08-19T07:51:11Z</time>
      </trkpt>
      <trkpt lat="45.58521" lon="6.79108">
        <ele>1762</ele>
        <time>2019-08-19T07:51:16Z</time>
      </trkpt>
      <trkpt lat="45.58511" lon="6.79113">
        <ele>1762</ele>
        <time>2019-08-19T07:51:21Z</time>
      </trkpt>
      <trkpt lat="45.58501" lon="6.79115">
        <ele>1762</ele>
        <time>2019-08-19T07:51:26Z</time>
      </trkpt>
      <trkpt lat="45.58489" lon="6.79118">
        <ele>1758</ele>
        <time>2019-08-19T07:51:31Z</time>
      </trkpt>
      <trkpt lat="45.58474" lon="6.79122">
        <ele>1758</ele>
        <time>2019-08-19T07:51:36Z</time>
      </trkpt>
      <trkpt lat="45.5846" lon="6.79127">
        <ele>1758</ele>
        <time>2019-08-19T07:51:41Z</time>
      </trkpt>
      <trkpt lat="45.58449" lon="6.79131">
        <ele>1757</ele>
        <time>2019-08-19T07:51:46Z</time>
      </trkpt>
      <trkpt lat="45.5844" lon="6.79134">
        <ele>1757</ele>
        <time>2019-08-19T07:51:51Z</time>
      </trkpt>
      <trkpt lat="45.58431" lon="6.79138">
        <ele>1757</ele>
        <time>2019-08-19T07:51:56Z</time>
      </trkpt>
      <trkpt lat="45.58419" lon="6.7914">
        <ele>1757</ele>
        <time>2019-08-19T07:52:01Z</time>
      </trkpt>
      <trkpt lat="45.58408" lon="6.79139">
        <ele>1752</ele>
        <time>2019-08-19T07:52:06Z</time>
      </trkpt>
      <trkpt lat="45.58398" lon="6.79139">
        <ele>1751</ele>
        <time>2019-08-19T07:52:11Z</time>
      </trkpt>
      <trkpt lat="45.58386" lon="6.79141">
        <ele>1751</ele>
        <time>2019-08-19T07:52:16Z</time>
      </trkpt>
      <trkpt lat="45.58374" lon="6.79148">
        <ele>1751</ele>
        <time>2019-08-19T07:52:21Z</time>
      </trkpt>
      <trkpt lat="45.58359" lon="6.79159">
        <ele>1752</ele>
        <time>2019-08-19T07:52:26Z</time>
      </trkpt>
      <trkpt lat="45.5835" lon="6.79167">
        <ele>1762</ele>
        <time>2019-08-19T07:52:31Z</time>
      </trkpt>
      <trkpt lat="45.58342" lon="6.79169">
        <ele>1760</ele>
        <time>2019-08-19T07:52:36Z</time>
      </trkpt>
      <trkpt lat="45.58331" lon="6.79167">
        <ele>1757</ele>
        <time>2019-08-19T07:52:41Z</time>
      </trkpt>
      <trkpt lat="45.58322" lon="6.79163">
        <ele>1755</ele>
        <time>2019-08-19T07:52:46Z</time>
      </trkpt>
      <trkpt lat="45.58311" lon="6.79159">
        <ele>1755</ele>
        <time>2019-08-19T07:52:51Z</time>
      </trkpt>
      <trkpt lat="45.58302" lon="6.79158">
        <ele>1755</ele>
        <time>2019-08-19T07:52:56Z</time>
      </trkpt>
      <trkpt lat="45.58294" lon="6.79158">
        <ele>1756</ele>
        <time>2019-08-19T07:53:01Z</time>
      </trkpt>
      <trkpt lat="45.58286" lon="6.79158">
        <ele>1757</ele>
        <time>2019-08-19T07:53:06Z</time>
      </trkpt>
      <trkpt lat="45.58278" lon="6.79155">
        <ele>1758</ele>
        <time>2019-08-19T07:53:11Z</time>
      </trkpt>
      <trkpt lat="45.58271" lon="6.79154">
        <ele>1759</ele>
        <time>2019-08-19T07:53:16Z</time>
      </trkpt>
      <trkpt lat="45.58258" lon="6.79156">
        <ele>1763</ele>
        <time>2019-08-19T07:53:21Z</time>
      </trkpt>
      <trkpt lat="45.58249" lon="6.79159">
        <ele>1770</ele>
        <time>2019-08-19T07:53:26Z</time>
      </trkpt>
      <trkpt lat="45.58242" lon="6.79157">
        <ele>1770</ele>
        <time>2019-08-19T07:53:31Z</time>
      </trkpt>
      <trkpt lat="45.58234" lon="6.79148">
        <ele>1770</ele>
        <time>2019-08-19T07:53:36Z</time>
      </trkpt>
      <trkpt lat="45.58227" lon="6.79145">
        <ele>1770</ele>
        <time>2019-08-19T07:53:41Z</time>
      </trkpt>
      <trkpt lat="45.5822" lon="6.79142">
        <ele>1770</ele>
        <time>2019-08-19T07:53:46Z</time>
      </trkpt>
      <trkpt lat="45.58209" lon="6.79137">
        <ele>1771</ele>
        <time>2019-08-19T07:53:51Z</time>
      </trkpt>
      <trkpt lat="45.58198" lon="6.79134">
        <ele>1771</ele>
        <time>2019-08-19T07:53:56Z</time>
      </trkpt>
      <trkpt lat="45.58187" lon="6.79128">
        <ele>1772</ele>
        <time>2019-08-19T07:54:01Z</time>
      </trkpt>
      <trkpt lat="45.58175" lon="6.79122">
        <ele>1771</ele>
        <time>2019-08-19T07:54:06Z</time>
      </trkpt>
      <trkpt lat="45.58162" lon="6.79116">
        <ele>1783</ele>
        <time>2019-08-19T07:54:11Z</time>
      </trkpt>
      <trkpt lat="45.58146" lon="6.79109">
        <ele>1784</ele>
        <time>2019-08-19T07:54:14Z</time>
      </trkpt>
      <trkpt lat="45.5814" lon="6.79104">
        <ele>1784</ele>
        <time>2019-08-19T07:54:19Z</time>
      </trkpt>
      <trkpt lat="45.58131" lon="6.79093">
        <ele>1784</ele>
        <time>2019-08-19T07:54:24Z</time>
      </trkpt>
      <trkpt lat="45.58124" lon="6.79081">
        <ele>1767</ele>
        <time>2019-08-19T07:54:29Z</time>
      </trkpt>
      <trkpt lat="45.58115" lon="6.79071">
        <ele>1768</ele>
        <time>2019-08-19T07:54:34Z</time>
      </trkpt>
      <trkpt lat="45.58109" lon="6.79064">
        <ele>1768</ele>
        <time>2019-08-19T07:54:39Z</time>
      </trkpt>
      <trkpt lat="45.58102" lon="6.79058">
        <ele>1768</ele>
        <time>2019-08-19T07:54:44Z</time>
      </trkpt>
      <trkpt lat="45.58089" lon="6.79047">
        <ele>1766</ele>
        <time>2019-08-19T07:54:49Z</time>
      </trkpt>
      <trkpt lat="45.58081" lon="6.79044">
        <ele>1778</ele>
        <time>2019-08-19T07:54:54Z</time>
      </trkpt>
      <trkpt lat="45.58074" lon="6.7904">
        <ele>1777</ele>
        <time>2019-08-19T07:54:59Z</time>
      </trkpt>
      <trkpt lat="45.58065" lon="6.79037">
        <ele>1777</ele>
        <time>2019-08-19T07:55:04Z</time>
      </trkpt>
      <trkpt lat="45.58058" lon="6.79034">
        <ele>1777</ele>
        <time>2019-08-19T07:55:09Z</time>
      </trkpt>
      <trkpt lat="45.58052" lon="6.7903">
        <ele>1777</ele>
        <time>2019-08-19T07:55:14Z</time>
      </trkpt>
      <trkpt lat="45.58045" lon="6.79031">
        <ele>1778</ele>
        <time>2019-08-19T07:55:24Z</time>
      </trkpt>
      <trkpt lat="45.5804" lon="6.79033">
        <ele>1779</ele>
        <time>2019-08-19T07:55:34Z</time>
      </trkpt>
      <trkpt lat="45.58043" lon="6.79029">
        <ele>1778</ele>
        <time>2019-08-19T07:55:57Z</time>
      </trkpt>
      <trkpt lat="45.58034" lon="6.79028">
        <ele>1778</ele>
        <time>2019-08-19T07:57:33Z</time>
      </trkpt>
      <trkpt lat="45.58022" lon="6.79027">
        <ele>1779</ele>
        <time>2019-08-19T07:57:38Z</time>
      </trkpt>
      <trkpt lat="45.58012" lon="6.79029">
        <ele>1780</ele>
        <time>2019-08-19T07:57:43Z</time>
      </trkpt>
      <trkpt lat="45.58002" lon="6.79031">
        <ele>1781</ele>
        <time>2019-08-19T07:57:48Z</time>
      </trkpt>
      <trkpt lat="45.57992" lon="6.79031">
        <ele>1788</ele>
        <time>2019-08-19T07:57:53Z</time>
      </trkpt>
      <trkpt lat="45.57983" lon="6.7903">
        <ele>1788</ele>
        <time>2019-08-19T07:57:58Z</time>
      </trkpt>
      <trkpt lat="45.57956" lon="6.79021">
        <ele>1789</ele>
        <time>2019-08-19T07:58:03Z</time>
      </trkpt>
      <trkpt lat="45.57946" lon="6.79018">
        <ele>1789</ele>
        <time>2019-08-19T07:58:08Z</time>
      </trkpt>
      <trkpt lat="45.57931" lon="6.79014">
        <ele>1787</ele>
        <time>2019-08-19T07:58:13Z</time>
      </trkpt>
      <trkpt lat="45.57925" lon="6.79014">
        <ele>1787</ele>
        <time>2019-08-19T07:58:23Z</time>
      </trkpt>
      <trkpt lat="45.57919" lon="6.79011">
        <ele>1786</ele>
        <time>2019-08-19T07:58:28Z</time>
      </trkpt>
      <trkpt lat="45.57913" lon="6.79009">
        <ele>1788</ele>
        <time>2019-08-19T07:58:31Z</time>
      </trkpt>
      <trkpt lat="45.57904" lon="6.79007">
        <ele>1790</ele>
        <time>2019-08-19T07:58:36Z</time>
      </trkpt>
      <trkpt lat="45.5789" lon="6.79005">
        <ele>1793</ele>
        <time>2019-08-19T07:58:41Z</time>
      </trkpt>
      <trkpt lat="45.57882" lon="6.79002">
        <ele>1795</ele>
        <time>2019-08-19T07:58:46Z</time>
      </trkpt>
      <trkpt lat="45.57779" lon="6.78862">
        <ele>1760</ele>
        <time>2019-08-19T07:59:11Z</time>
      </trkpt>
      <trkpt lat="45.57797" lon="6.78909">
        <ele>1765</ele>
        <time>2019-08-19T07:59:16Z</time>
      </trkpt>
      <trkpt lat="45.57808" lon="6.78949">
        <ele>1782</ele>
        <time>2019-08-19T07:59:21Z</time>
      </trkpt>
      <trkpt lat="45.57802" lon="6.78951">
        <ele>1783</ele>
        <time>2019-08-19T07:59:26Z</time>
      </trkpt>
      <trkpt lat="45.57794" lon="6.78951">
        <ele>1783</ele>
        <time>2019-08-19T07:59:29Z</time>
      </trkpt>
      <trkpt lat="45.57784" lon="6.78952">
        <ele>1784</ele>
        <time>2019-08-19T07:59:34Z</time>
      </trkpt>
      <trkpt lat="45.57777" lon="6.78953">
        <ele>1784</ele>
        <time>2019-08-19T07:59:39Z</time>
      </trkpt>
      <trkpt lat="45.57768" lon="6.78953">
        <ele>1784</ele>
        <time>2019-08-19T07:59:44Z</time>
      </trkpt>
      <trkpt lat="45.57756" lon="6.78958">
        <ele>1785</ele>
        <time>2019-08-19T07:59:49Z</time>
      </trkpt>
      <trkpt lat="45.57745" lon="6.78961">
        <ele>1790</ele>
        <time>2019-08-19T07:59:54Z</time>
      </trkpt>
      <trkpt lat="45.57735" lon="6.7896">
        <ele>1790</ele>
        <time>2019-08-19T07:59:59Z</time>
      </trkpt>
      <trkpt lat="45.57726" lon="6.78956">
        <ele>1790</ele>
        <time>2019-08-19T08:00:04Z</time>
      </trkpt>
      <trkpt lat="45.57715" lon="6.78952">
        <ele>1790</ele>
        <time>2019-08-19T08:00:09Z</time>
      </trkpt>
      <trkpt lat="45.57707" lon="6.78948">
        <ele>1790</ele>
        <time>2019-08-19T08:00:14Z</time>
      </trkpt>
      <trkpt lat="45.57702" lon="6.78942">
        <ele>1790</ele>
        <time>2019-08-19T08:00:19Z</time>
      </trkpt>
      <trkpt lat="45.57693" lon="6.78934">
        <ele>1790</ele>
        <time>2019-08-19T08:00:24Z</time>
      </trkpt>
      <trkpt lat="45.57681" lon="6.7893">
        <ele>1789</ele>
        <time>2019-08-19T08:00:29Z</time>
      </trkpt>
      <trkpt lat="45.57669" lon="6.78929">
        <ele>1789</ele>
        <time>2019-08-19T08:00:34Z</time>
      </trkpt>
      <trkpt lat="45.57656" lon="6.78929">
        <ele>1793</ele>
        <time>2019-08-19T08:00:39Z</time>
      </trkpt>
      <trkpt lat="45.57643" lon="6.78929">
        <ele>1795</ele>
        <time>2019-08-19T08:00:44Z</time>
      </trkpt>
      <trkpt lat="45.57633" lon="6.7893">
        <ele>1796</ele>
        <time>2019-08-19T08:00:47Z</time>
      </trkpt>
      <trkpt lat="45.57629" lon="6.78939">
        <ele>1797</ele>
        <time>2019-08-19T08:00:57Z</time>
      </trkpt>
      <trkpt lat="45.57635" lon="6.78943">
        <ele>1797</ele>
        <time>2019-08-19T08:01:01Z</time>
      </trkpt>
      <trkpt lat="45.57642" lon="6.78947">
        <ele>1797</ele>
        <time>2019-08-19T08:01:06Z</time>
      </trkpt>
      <trkpt lat="45.57649" lon="6.78951">
        <ele>1797</ele>
        <time>2019-08-19T08:01:11Z</time>
      </trkpt>
      <trkpt lat="45.57655" lon="6.78958">
        <ele>1798</ele>
        <time>2019-08-19T08:01:16Z</time>
      </trkpt>
      <trkpt lat="45.5766" lon="6.78962">
        <ele>1798</ele>
        <time>2019-08-19T08:01:21Z</time>
      </trkpt>
      <trkpt lat="45.57666" lon="6.78969">
        <ele>1799</ele>
        <time>2019-08-19T08:01:27Z</time>
      </trkpt>
      <trkpt lat="45.57672" lon="6.78977">
        <ele>1796</ele>
        <time>2019-08-19T08:01:31Z</time>
      </trkpt>
      <trkpt lat="45.57676" lon="6.78984">
        <ele>1797</ele>
        <time>2019-08-19T08:01:38Z</time>
      </trkpt>
      <trkpt lat="45.57678" lon="6.78991">
        <ele>1798</ele>
        <time>2019-08-19T08:01:44Z</time>
      </trkpt>
      <trkpt lat="45.57676" lon="6.79">
        <ele>1800</ele>
        <time>2019-08-19T08:01:50Z</time>
      </trkpt>
      <trkpt lat="45.57667" lon="6.79005">
        <ele>1805</ele>
        <time>2019-08-19T08:01:59Z</time>
      </trkpt>
      <trkpt lat="45.57661" lon="6.79005">
        <ele>1806</ele>
        <time>2019-08-19T08:02:04Z</time>
      </trkpt>
      <trkpt lat="45.57653" lon="6.79007">
        <ele>1809</ele>
        <time>2019-08-19T08:02:09Z</time>
      </trkpt>
      <trkpt lat="45.57645" lon="6.79009">
        <ele>1811</ele>
        <time>2019-08-19T08:02:14Z</time>
      </trkpt>
      <trkpt lat="45.57637" lon="6.7901">
        <ele>1812</ele>
        <time>2019-08-19T08:02:19Z</time>
      </trkpt>
      <trkpt lat="45.57632" lon="6.7901">
        <ele>1812</ele>
        <time>2019-08-19T08:02:24Z</time>
      </trkpt>
      <trkpt lat="45.57626" lon="6.79012">
        <ele>1813</ele>
        <time>2019-08-19T08:02:29Z</time>
      </trkpt>
      <trkpt lat="45.57619" lon="6.79016">
        <ele>1813</ele>
        <time>2019-08-19T08:02:34Z</time>
      </trkpt>
      <trkpt lat="45.57611" lon="6.79019">
        <ele>1813</ele>
        <time>2019-08-19T08:02:38Z</time>
      </trkpt>
      <trkpt lat="45.57606" lon="6.7902">
        <ele>1813</ele>
        <time>2019-08-19T08:02:44Z</time>
      </trkpt>
      <trkpt lat="45.57601" lon="6.79021">
        <ele>1813</ele>
        <time>2019-08-19T08:02:49Z</time>
      </trkpt>
      <trkpt lat="45.57595" lon="6.79022">
        <ele>1813</ele>
        <time>2019-08-19T08:02:54Z</time>
      </trkpt>
      <trkpt lat="45.5759" lon="6.79023">
        <ele>1813</ele>
        <time>2019-08-19T08:02:59Z</time>
      </trkpt>
      <trkpt lat="45.57581" lon="6.79021">
        <ele>1817</ele>
        <time>2019-08-19T08:03:09Z</time>
      </trkpt>
      <trkpt lat="45.57576" lon="6.79026">
        <ele>1819</ele>
        <time>2019-08-19T08:03:14Z</time>
      </trkpt>
      <trkpt lat="45.57575" lon="6.79034">
        <ele>1821</ele>
        <time>2019-08-19T08:03:19Z</time>
      </trkpt>
      <trkpt lat="45.57577" lon="6.79042">
        <ele>1823</ele>
        <time>2019-08-19T08:03:24Z</time>
      </trkpt>
      <trkpt lat="45.5758" lon="6.79046">
        <ele>1823</ele>
        <time>2019-08-19T08:03:29Z</time>
      </trkpt>
      <trkpt lat="45.57585" lon="6.79049">
        <ele>1818</ele>
        <time>2019-08-19T08:03:42Z</time>
      </trkpt>
      <trkpt lat="45.57589" lon="6.79052">
        <ele>1819</ele>
        <time>2019-08-19T08:03:47Z</time>
      </trkpt>
      <trkpt lat="45.57596" lon="6.79057">
        <ele>1819</ele>
        <time>2019-08-19T08:03:52Z</time>
      </trkpt>
      <trkpt lat="45.57601" lon="6.79062">
        <ele>1820</ele>
        <time>2019-08-19T08:03:56Z</time>
      </trkpt>
      <trkpt lat="45.57608" lon="6.7907">
        <ele>1821</ele>
        <time>2019-08-19T08:04:01Z</time>
      </trkpt>
      <trkpt lat="45.57612" lon="6.79078">
        <ele>1821</ele>
        <time>2019-08-19T08:04:06Z</time>
      </trkpt>
      <trkpt lat="45.5762" lon="6.79087">
        <ele>1835</ele>
        <time>2019-08-19T08:04:11Z</time>
      </trkpt>
      <trkpt lat="45.57625" lon="6.7909">
        <ele>1835</ele>
        <time>2019-08-19T08:04:16Z</time>
      </trkpt>
      <trkpt lat="45.57629" lon="6.79094">
        <ele>1836</ele>
        <time>2019-08-19T08:04:22Z</time>
      </trkpt>
      <trkpt lat="45.57631" lon="6.79101">
        <ele>1836</ele>
        <time>2019-08-19T08:04:26Z</time>
      </trkpt>
      <trkpt lat="45.57632" lon="6.7911">
        <ele>1838</ele>
        <time>2019-08-19T08:04:36Z</time>
      </trkpt>
      <trkpt lat="45.57625" lon="6.79117">
        <ele>1839</ele>
        <time>2019-08-19T08:04:47Z</time>
      </trkpt>
      <trkpt lat="45.5762" lon="6.79119">
        <ele>1839</ele>
        <time>2019-08-19T08:04:51Z</time>
      </trkpt>
      <trkpt lat="45.57613" lon="6.79121">
        <ele>1839</ele>
        <time>2019-08-19T08:04:57Z</time>
      </trkpt>
      <trkpt lat="45.57607" lon="6.79123">
        <ele>1840</ele>
        <time>2019-08-19T08:05:01Z</time>
      </trkpt>
      <trkpt lat="45.57601" lon="6.79125">
        <ele>1840</ele>
        <time>2019-08-19T08:05:06Z</time>
      </trkpt>
      <trkpt lat="45.57594" lon="6.79127">
        <ele>1841</ele>
        <time>2019-08-19T08:05:12Z</time>
      </trkpt>
      <trkpt lat="45.57585" lon="6.79131">
        <ele>1842</ele>
        <time>2019-08-19T08:05:17Z</time>
      </trkpt>
      <trkpt lat="45.5758" lon="6.79133">
        <ele>1846</ele>
        <time>2019-08-19T08:05:22Z</time>
      </trkpt>
      <trkpt lat="45.57569" lon="6.79129">
        <ele>1845</ele>
        <time>2019-08-19T08:05:32Z</time>
      </trkpt>
      <trkpt lat="45.57564" lon="6.79125">
        <ele>1845</ele>
        <time>2019-08-19T08:05:37Z</time>
      </trkpt>
      <trkpt lat="45.5756" lon="6.79122">
        <ele>1845</ele>
        <time>2019-08-19T08:05:41Z</time>
      </trkpt>
      <trkpt lat="45.57555" lon="6.79121">
        <ele>1845</ele>
        <time>2019-08-19T08:05:47Z</time>
      </trkpt>
      <trkpt lat="45.57547" lon="6.79125">
        <ele>1846</ele>
        <time>2019-08-19T08:05:56Z</time>
      </trkpt>
      <trkpt lat="45.5754" lon="6.79129">
        <ele>1847</ele>
        <time>2019-08-19T08:06:07Z</time>
      </trkpt>
      <trkpt lat="45.57533" lon="6.79127">
        <ele>1847</ele>
        <time>2019-08-19T08:06:12Z</time>
      </trkpt>
      <trkpt lat="45.57524" lon="6.79132">
        <ele>1849</ele>
        <time>2019-08-19T08:06:17Z</time>
      </trkpt>
      <trkpt lat="45.57523" lon="6.79139">
        <ele>1850</ele>
        <time>2019-08-19T08:06:19Z</time>
      </trkpt>
      <trkpt lat="45.57522" lon="6.79146">
        <ele>1851</ele>
        <time>2019-08-19T08:06:22Z</time>
      </trkpt>
      <trkpt lat="45.57527" lon="6.79149">
        <ele>1851</ele>
        <time>2019-08-19T08:06:26Z</time>
      </trkpt>
      <trkpt lat="45.57536" lon="6.79147">
        <ele>1850</ele>
        <time>2019-08-19T08:06:34Z</time>
      </trkpt>
      <trkpt lat="45.5754" lon="6.79146">
        <ele>1849</ele>
        <time>2019-08-19T08:06:40Z</time>
      </trkpt>
      <trkpt lat="45.57546" lon="6.79143">
        <ele>1849</ele>
        <time>2019-08-19T08:06:44Z</time>
      </trkpt>
      <trkpt lat="45.57551" lon="6.79139">
        <ele>1848</ele>
        <time>2019-08-19T08:06:49Z</time>
      </trkpt>
      <trkpt lat="45.57556" lon="6.79136">
        <ele>1847</ele>
        <time>2019-08-19T08:06:54Z</time>
      </trkpt>
      <trkpt lat="45.57561" lon="6.79136">
        <ele>1847</ele>
        <time>2019-08-19T08:06:59Z</time>
      </trkpt>
      <trkpt lat="45.57565" lon="6.79139">
        <ele>1847</ele>
        <time>2019-08-19T08:07:04Z</time>
      </trkpt>
      <trkpt lat="45.57571" lon="6.79149">
        <ele>1849</ele>
        <time>2019-08-19T08:07:09Z</time>
      </trkpt>
      <trkpt lat="45.57575" lon="6.79155">
        <ele>1850</ele>
        <time>2019-08-19T08:07:14Z</time>
      </trkpt>
      <trkpt lat="45.57578" lon="6.79162">
        <ele>1852</ele>
        <time>2019-08-19T08:07:19Z</time>
      </trkpt>
      <trkpt lat="45.57581" lon="6.79169">
        <ele>1856</ele>
        <time>2019-08-19T08:07:25Z</time>
      </trkpt>
      <trkpt lat="45.57586" lon="6.79176">
        <ele>1857</ele>
        <time>2019-08-19T08:07:29Z</time>
      </trkpt>
      <trkpt lat="45.57587" lon="6.79185">
        <ele>1859</ele>
        <time>2019-08-19T08:07:36Z</time>
      </trkpt>
      <trkpt lat="45.5759" lon="6.79192">
        <ele>1860</ele>
        <time>2019-08-19T08:07:42Z</time>
      </trkpt>
      <trkpt lat="45.57597" lon="6.79196">
        <ele>1861</ele>
        <time>2019-08-19T08:07:47Z</time>
      </trkpt>
      <trkpt lat="45.57603" lon="6.79197">
        <ele>1861</ele>
        <time>2019-08-19T08:07:52Z</time>
      </trkpt>
      <trkpt lat="45.57612" lon="6.79196">
        <ele>1861</ele>
        <time>2019-08-19T08:07:57Z</time>
      </trkpt>
      <trkpt lat="45.57617" lon="6.79197">
        <ele>1861</ele>
        <time>2019-08-19T08:08:02Z</time>
      </trkpt>
      <trkpt lat="45.57616" lon="6.79207">
        <ele>1862</ele>
        <time>2019-08-19T08:08:17Z</time>
      </trkpt>
      <trkpt lat="45.57611" lon="6.79213">
        <ele>1863</ele>
        <time>2019-08-19T08:08:22Z</time>
      </trkpt>
      <trkpt lat="45.57605" lon="6.79217">
        <ele>1864</ele>
        <time>2019-08-19T08:08:27Z</time>
      </trkpt>
      <trkpt lat="45.57597" lon="6.79223">
        <ele>1865</ele>
        <time>2019-08-19T08:08:37Z</time>
      </trkpt>
      <trkpt lat="45.57591" lon="6.79225">
        <ele>1866</ele>
        <time>2019-08-19T08:08:42Z</time>
      </trkpt>
      <trkpt lat="45.57585" lon="6.79227">
        <ele>1867</ele>
        <time>2019-08-19T08:08:47Z</time>
      </trkpt>
      <trkpt lat="45.57579" lon="6.79227">
        <ele>1871</ele>
        <time>2019-08-19T08:08:52Z</time>
      </trkpt>
      <trkpt lat="45.57573" lon="6.79229">
        <ele>1871</ele>
        <time>2019-08-19T08:09:02Z</time>
      </trkpt>
      <trkpt lat="45.57565" lon="6.7923">
        <ele>1871</ele>
        <time>2019-08-19T08:09:12Z</time>
      </trkpt>
      <trkpt lat="45.57558" lon="6.79231">
        <ele>1871</ele>
        <time>2019-08-19T08:09:17Z</time>
      </trkpt>
      <trkpt lat="45.57551" lon="6.79233">
        <ele>1872</ele>
        <time>2019-08-19T08:09:22Z</time>
      </trkpt>
      <trkpt lat="45.57544" lon="6.79234">
        <ele>1872</ele>
        <time>2019-08-19T08:09:27Z</time>
      </trkpt>
      <trkpt lat="45.5754" lon="6.79231">
        <ele>1872</ele>
        <time>2019-08-19T08:09:32Z</time>
      </trkpt>
      <trkpt lat="45.57536" lon="6.79228">
        <ele>1872</ele>
        <time>2019-08-19T08:09:35Z</time>
      </trkpt>
      <trkpt lat="45.5753" lon="6.79228">
        <ele>1873</ele>
        <time>2019-08-19T08:09:39Z</time>
      </trkpt>
      <trkpt lat="45.57525" lon="6.7923">
        <ele>1873</ele>
        <time>2019-08-19T08:09:44Z</time>
      </trkpt>
      <trkpt lat="45.5752" lon="6.79228">
        <ele>1874</ele>
        <time>2019-08-19T08:09:51Z</time>
      </trkpt>
      <trkpt lat="45.57515" lon="6.79228">
        <ele>1874</ele>
        <time>2019-08-19T08:09:53Z</time>
      </trkpt>
      <trkpt lat="45.57509" lon="6.79228">
        <ele>1875</ele>
        <time>2019-08-19T08:09:55Z</time>
      </trkpt>
      <trkpt lat="45.57504" lon="6.79226">
        <ele>1875</ele>
        <time>2019-08-19T08:09:58Z</time>
      </trkpt>
      <trkpt lat="45.57499" lon="6.79225">
        <ele>1882</ele>
        <time>2019-08-19T08:10:01Z</time>
      </trkpt>
      <trkpt lat="45.57491" lon="6.79222">
        <ele>1881</ele>
        <time>2019-08-19T08:10:09Z</time>
      </trkpt>
      <trkpt lat="45.57478" lon="6.79218">
        <ele>1881</ele>
        <time>2019-08-19T08:10:19Z</time>
      </trkpt>
      <trkpt lat="45.57471" lon="6.79215">
        <ele>1881</ele>
        <time>2019-08-19T08:10:24Z</time>
      </trkpt>
      <trkpt lat="45.5747" lon="6.79219">
        <ele>1882</ele>
        <time>2019-08-19T08:12:51Z</time>
      </trkpt>
      <trkpt lat="45.57466" lon="6.79223">
        <ele>1883</ele>
        <time>2019-08-19T08:13:31Z</time>
      </trkpt>
      <trkpt lat="45.57455" lon="6.7923">
        <ele>1884</ele>
        <time>2019-08-19T08:13:37Z</time>
      </trkpt>
      <trkpt lat="45.57449" lon="6.79232">
        <ele>1885</ele>
        <time>2019-08-19T08:13:41Z</time>
      </trkpt>
      <trkpt lat="45.57443" lon="6.79236">
        <ele>1887</ele>
        <time>2019-08-19T08:13:46Z</time>
      </trkpt>
      <trkpt lat="45.57434" lon="6.7924">
        <ele>1889</ele>
        <time>2019-08-19T08:13:51Z</time>
      </trkpt>
      <trkpt lat="45.57429" lon="6.7924">
        <ele>1891</ele>
        <time>2019-08-19T08:13:53Z</time>
      </trkpt>
      <trkpt lat="45.57423" lon="6.7924">
        <ele>1892</ele>
        <time>2019-08-19T08:13:58Z</time>
      </trkpt>
      <trkpt lat="45.57418" lon="6.79237">
        <ele>1892</ele>
        <time>2019-08-19T08:14:04Z</time>
      </trkpt>
      <trkpt lat="45.5741" lon="6.79231">
        <ele>1898</ele>
        <time>2019-08-19T08:14:09Z</time>
      </trkpt>
      <trkpt lat="45.57406" lon="6.79226">
        <ele>1898</ele>
        <time>2019-08-19T08:14:14Z</time>
      </trkpt>
      <trkpt lat="45.57401" lon="6.79223">
        <ele>1898</ele>
        <time>2019-08-19T08:14:18Z</time>
      </trkpt>
      <trkpt lat="45.57395" lon="6.79221">
        <ele>1898</ele>
        <time>2019-08-19T08:14:24Z</time>
      </trkpt>
      <trkpt lat="45.57388" lon="6.79218">
        <ele>1899</ele>
        <time>2019-08-19T08:14:29Z</time>
      </trkpt>
      <trkpt lat="45.57383" lon="6.79214">
        <ele>1899</ele>
        <time>2019-08-19T08:14:34Z</time>
      </trkpt>
      <trkpt lat="45.57378" lon="6.7921">
        <ele>1899</ele>
        <time>2019-08-19T08:14:39Z</time>
      </trkpt>
      <trkpt lat="45.57371" lon="6.79204">
        <ele>1899</ele>
        <time>2019-08-19T08:14:44Z</time>
      </trkpt>
      <trkpt lat="45.57363" lon="6.79198">
        <ele>1899</ele>
        <time>2019-08-19T08:14:49Z</time>
      </trkpt>
      <trkpt lat="45.57357" lon="6.79194">
        <ele>1899</ele>
        <time>2019-08-19T08:14:53Z</time>
      </trkpt>
      <trkpt lat="45.57351" lon="6.79188">
        <ele>1900</ele>
        <time>2019-08-19T08:14:58Z</time>
      </trkpt>
      <trkpt lat="45.57339" lon="6.79176">
        <ele>1900</ele>
        <time>2019-08-19T08:15:04Z</time>
      </trkpt>
      <trkpt lat="45.57332" lon="6.79169">
        <ele>1902</ele>
        <time>2019-08-19T08:15:08Z</time>
      </trkpt>
      <trkpt lat="45.57325" lon="6.79164">
        <ele>1899</ele>
        <time>2019-08-19T08:15:13Z</time>
      </trkpt>
      <trkpt lat="45.57318" lon="6.79162">
        <ele>1898</ele>
        <time>2019-08-19T08:15:18Z</time>
      </trkpt>
      <trkpt lat="45.57309" lon="6.79161">
        <ele>1898</ele>
        <time>2019-08-19T08:15:24Z</time>
      </trkpt>
      <trkpt lat="45.57301" lon="6.79161">
        <ele>1898</ele>
        <time>2019-08-19T08:15:28Z</time>
      </trkpt>
      <trkpt lat="45.57292" lon="6.79161">
        <ele>1899</ele>
        <time>2019-08-19T08:15:33Z</time>
      </trkpt>
      <trkpt lat="45.57283" lon="6.79161">
        <ele>1900</ele>
        <time>2019-08-19T08:15:38Z</time>
      </trkpt>
      <trkpt lat="45.57274" lon="6.79163">
        <ele>1901</ele>
        <time>2019-08-19T08:15:43Z</time>
      </trkpt>
      <trkpt lat="45.57265" lon="6.79165">
        <ele>1903</ele>
        <time>2019-08-19T08:15:53Z</time>
      </trkpt>
      <trkpt lat="45.57259" lon="6.79165">
        <ele>1905</ele>
        <time>2019-08-19T08:16:01Z</time>
      </trkpt>
      <trkpt lat="45.57254" lon="6.79167">
        <ele>1910</ele>
        <time>2019-08-19T08:16:15Z</time>
      </trkpt>
      <trkpt lat="45.57251" lon="6.79171">
        <ele>1910</ele>
        <time>2019-08-19T08:17:19Z</time>
      </trkpt>
      <trkpt lat="45.57245" lon="6.79172">
        <ele>1912</ele>
        <time>2019-08-19T08:18:33Z</time>
      </trkpt>
      <trkpt lat="45.57235" lon="6.79183">
        <ele>1917</ele>
        <time>2019-08-19T08:18:38Z</time>
      </trkpt>
      <trkpt lat="45.57222" lon="6.79193">
        <ele>1919</ele>
        <time>2019-08-19T08:18:43Z</time>
      </trkpt>
      <trkpt lat="45.57216" lon="6.79198">
        <ele>1920</ele>
        <time>2019-08-19T08:18:45Z</time>
      </trkpt>
      <trkpt lat="45.57207" lon="6.79205">
        <ele>1921</ele>
        <time>2019-08-19T08:18:51Z</time>
      </trkpt>
      <trkpt lat="45.572" lon="6.79211">
        <ele>1922</ele>
        <time>2019-08-19T08:18:55Z</time>
      </trkpt>
      <trkpt lat="45.57189" lon="6.79215">
        <ele>1923</ele>
        <time>2019-08-19T08:19:00Z</time>
      </trkpt>
      <trkpt lat="45.57182" lon="6.79215">
        <ele>1924</ele>
        <time>2019-08-19T08:19:06Z</time>
      </trkpt>
      <trkpt lat="45.57172" lon="6.79215">
        <ele>1924</ele>
        <time>2019-08-19T08:19:11Z</time>
      </trkpt>
      <trkpt lat="45.5715" lon="6.79215">
        <ele>1930</ele>
        <time>2019-08-19T08:19:16Z</time>
      </trkpt>
      <trkpt lat="45.57142" lon="6.79216">
        <ele>1931</ele>
        <time>2019-08-19T08:19:20Z</time>
      </trkpt>
      <trkpt lat="45.57137" lon="6.79217">
        <ele>1931</ele>
        <time>2019-08-19T08:19:25Z</time>
      </trkpt>
      <trkpt lat="45.57123" lon="6.7922">
        <ele>1933</ele>
        <time>2019-08-19T08:19:30Z</time>
      </trkpt>
      <trkpt lat="45.57111" lon="6.79223">
        <ele>1935</ele>
        <time>2019-08-19T08:19:37Z</time>
      </trkpt>
      <trkpt lat="45.57101" lon="6.79229">
        <ele>1937</ele>
        <time>2019-08-19T08:19:47Z</time>
      </trkpt>
      <trkpt lat="45.57095" lon="6.79233">
        <ele>1939</ele>
        <time>2019-08-19T08:19:57Z</time>
      </trkpt>
      <trkpt lat="45.5709" lon="6.79229">
        <ele>1939</ele>
        <time>2019-08-19T08:20:07Z</time>
      </trkpt>
      <trkpt lat="45.57086" lon="6.79222">
        <ele>1937</ele>
        <time>2019-08-19T08:20:18Z</time>
      </trkpt>
      <trkpt lat="45.57081" lon="6.79223">
        <ele>1946</ele>
        <time>2019-08-19T08:21:06Z</time>
      </trkpt>
      <trkpt lat="45.57078" lon="6.79229">
        <ele>1947</ele>
        <time>2019-08-19T08:24:10Z</time>
      </trkpt>
      <trkpt lat="45.57067" lon="6.79225">
        <ele>1947</ele>
        <time>2019-08-19T08:25:55Z</time>
      </trkpt>
      <trkpt lat="45.57055" lon="6.79224">
        <ele>1947</ele>
        <time>2019-08-19T08:26:00Z</time>
      </trkpt>
      <trkpt lat="45.57037" lon="6.79222">
        <ele>1949</ele>
        <time>2019-08-19T08:26:06Z</time>
      </trkpt>
      <trkpt lat="45.57023" lon="6.79218">
        <ele>1950</ele>
        <time>2019-08-19T08:26:10Z</time>
      </trkpt>
      <trkpt lat="45.57008" lon="6.79211">
        <ele>1950</ele>
        <time>2019-08-19T08:26:15Z</time>
      </trkpt>
      <trkpt lat="45.56996" lon="6.79203">
        <ele>1958</ele>
        <time>2019-08-19T08:26:20Z</time>
      </trkpt>
      <trkpt lat="45.56987" lon="6.79198">
        <ele>1958</ele>
        <time>2019-08-19T08:26:25Z</time>
      </trkpt>
      <trkpt lat="45.56975" lon="6.79196">
        <ele>1959</ele>
        <time>2019-08-19T08:26:30Z</time>
      </trkpt>
      <trkpt lat="45.56962" lon="6.79196">
        <ele>1960</ele>
        <time>2019-08-19T08:26:35Z</time>
      </trkpt>
      <trkpt lat="45.56949" lon="6.7919">
        <ele>1960</ele>
        <time>2019-08-19T08:26:41Z</time>
      </trkpt>
      <trkpt lat="45.56939" lon="6.79183">
        <ele>1960</ele>
        <time>2019-08-19T08:26:45Z</time>
      </trkpt>
      <trkpt lat="45.56928" lon="6.79177">
        <ele>1959</ele>
        <time>2019-08-19T08:26:50Z</time>
      </trkpt>
      <trkpt lat="45.56915" lon="6.79171">
        <ele>1960</ele>
        <time>2019-08-19T08:26:55Z</time>
      </trkpt>
      <trkpt lat="45.56904" lon="6.79167">
        <ele>1965</ele>
        <time>2019-08-19T08:27:01Z</time>
      </trkpt>
      <trkpt lat="45.56894" lon="6.79162">
        <ele>1957</ele>
        <time>2019-08-19T08:27:06Z</time>
      </trkpt>
      <trkpt lat="45.56888" lon="6.79159">
        <ele>1958</ele>
        <time>2019-08-19T08:27:08Z</time>
      </trkpt>
      <trkpt lat="45.56883" lon="6.79159">
        <ele>1958</ele>
        <time>2019-08-19T08:27:14Z</time>
      </trkpt>
      <trkpt lat="45.56874" lon="6.79163">
        <ele>1960</ele>
        <time>2019-08-19T08:27:19Z</time>
      </trkpt>
      <trkpt lat="45.56867" lon="6.79165">
        <ele>1961</ele>
        <time>2019-08-19T08:27:23Z</time>
      </trkpt>
      <trkpt lat="45.5686" lon="6.79166">
        <ele>1962</ele>
        <time>2019-08-19T08:27:28Z</time>
      </trkpt>
      <trkpt lat="45.56853" lon="6.79167">
        <ele>1974</ele>
        <time>2019-08-19T08:27:33Z</time>
      </trkpt>
      <trkpt lat="45.56844" lon="6.79167">
        <ele>1975</ele>
        <time>2019-08-19T08:27:39Z</time>
      </trkpt>
      <trkpt lat="45.56838" lon="6.79167">
        <ele>1971</ele>
        <time>2019-08-19T08:27:44Z</time>
      </trkpt>
      <trkpt lat="45.5683" lon="6.79169">
        <ele>1976</ele>
        <time>2019-08-19T08:27:49Z</time>
      </trkpt>
      <trkpt lat="45.5682" lon="6.79174">
        <ele>1980</ele>
        <time>2019-08-19T08:27:54Z</time>
      </trkpt>
      <trkpt lat="45.5681" lon="6.79182">
        <ele>1982</ele>
        <time>2019-08-19T08:27:59Z</time>
      </trkpt>
      <trkpt lat="45.56805" lon="6.79186">
        <ele>1983</ele>
        <time>2019-08-19T08:28:03Z</time>
      </trkpt>
      <trkpt lat="45.56795" lon="6.79194">
        <ele>1985</ele>
        <time>2019-08-19T08:28:09Z</time>
      </trkpt>
      <trkpt lat="45.56788" lon="6.79197">
        <ele>1986</ele>
        <time>2019-08-19T08:28:14Z</time>
      </trkpt>
      <trkpt lat="45.56778" lon="6.79202">
        <ele>1987</ele>
        <time>2019-08-19T08:28:17Z</time>
      </trkpt>
      <trkpt lat="45.56771" lon="6.79204">
        <ele>1987</ele>
        <time>2019-08-19T08:28:21Z</time>
      </trkpt>
      <trkpt lat="45.56765" lon="6.79204">
        <ele>1987</ele>
        <time>2019-08-19T08:28:27Z</time>
      </trkpt>
      <trkpt lat="45.56759" lon="6.79205">
        <ele>1987</ele>
        <time>2019-08-19T08:28:32Z</time>
      </trkpt>
      <trkpt lat="45.56751" lon="6.79205">
        <ele>1988</ele>
        <time>2019-08-19T08:28:35Z</time>
      </trkpt>
      <trkpt lat="45.56743" lon="6.79209">
        <ele>1993</ele>
        <time>2019-08-19T08:28:40Z</time>
      </trkpt>
      <trkpt lat="45.56733" lon="6.79215">
        <ele>1994</ele>
        <time>2019-08-19T08:28:45Z</time>
      </trkpt>
      <trkpt lat="45.56724" lon="6.79217">
        <ele>1995</ele>
        <time>2019-08-19T08:28:50Z</time>
      </trkpt>
      <trkpt lat="45.56713" lon="6.79226">
        <ele>1996</ele>
        <time>2019-08-19T08:29:00Z</time>
      </trkpt>
      <trkpt lat="45.56706" lon="6.79224">
        <ele>1997</ele>
        <time>2019-08-19T08:29:05Z</time>
      </trkpt>
      <trkpt lat="45.56687" lon="6.79227">
        <ele>1999</ele>
        <time>2019-08-19T08:29:10Z</time>
      </trkpt>
      <trkpt lat="45.56683" lon="6.79233">
        <ele>2001</ele>
        <time>2019-08-19T08:29:14Z</time>
      </trkpt>
      <trkpt lat="45.56679" lon="6.79235">
        <ele>2002</ele>
        <time>2019-08-19T08:29:19Z</time>
      </trkpt>
      <trkpt lat="45.56673" lon="6.79233">
        <ele>2003</ele>
        <time>2019-08-19T08:29:24Z</time>
      </trkpt>
      <trkpt lat="45.56665" lon="6.79228">
        <ele>2007</ele>
        <time>2019-08-19T08:29:30Z</time>
      </trkpt>
      <trkpt lat="45.5666" lon="6.79225">
        <ele>2007</ele>
        <time>2019-08-19T08:29:35Z</time>
      </trkpt>
      <trkpt lat="45.56655" lon="6.79224">
        <ele>2007</ele>
        <time>2019-08-19T08:29:38Z</time>
      </trkpt>
      <trkpt lat="45.56642" lon="6.79222">
        <ele>2007</ele>
        <time>2019-08-19T08:29:48Z</time>
      </trkpt>
      <trkpt lat="45.56624" lon="6.79207">
        <ele>2006</ele>
        <time>2019-08-19T08:29:53Z</time>
      </trkpt>
      <trkpt lat="45.56615" lon="6.79198">
        <ele>2006</ele>
        <time>2019-08-19T08:29:58Z</time>
      </trkpt>
      <trkpt lat="45.56609" lon="6.79192">
        <ele>2006</ele>
        <time>2019-08-19T08:30:03Z</time>
      </trkpt>
      <trkpt lat="45.56599" lon="6.79185">
        <ele>2006</ele>
        <time>2019-08-19T08:30:08Z</time>
      </trkpt>
      <trkpt lat="45.5659" lon="6.79181">
        <ele>2007</ele>
        <time>2019-08-19T08:30:13Z</time>
      </trkpt>
      <trkpt lat="45.56585" lon="6.79179">
        <ele>2007</ele>
        <time>2019-08-19T08:30:18Z</time>
      </trkpt>
      <trkpt lat="45.56576" lon="6.79172">
        <ele>2011</ele>
        <time>2019-08-19T08:30:28Z</time>
      </trkpt>
      <trkpt lat="45.56572" lon="6.79168">
        <ele>2012</ele>
        <time>2019-08-19T08:30:36Z</time>
      </trkpt>
      <trkpt lat="45.56567" lon="6.79174">
        <ele>2014</ele>
        <time>2019-08-19T08:30:51Z</time>
      </trkpt>
      <trkpt lat="45.5657" lon="6.79168">
        <ele>2013</ele>
        <time>2019-08-19T08:35:58Z</time>
      </trkpt>
      <trkpt lat="45.56561" lon="6.79164">
        <ele>2004</ele>
        <time>2019-08-19T08:37:02Z</time>
      </trkpt>
      <trkpt lat="45.56554" lon="6.7916">
        <ele>2004</ele>
        <time>2019-08-19T08:37:07Z</time>
      </trkpt>
      <trkpt lat="45.56544" lon="6.79153">
        <ele>2004</ele>
        <time>2019-08-19T08:37:12Z</time>
      </trkpt>
      <trkpt lat="45.56535" lon="6.79148">
        <ele>2004</ele>
        <time>2019-08-19T08:37:17Z</time>
      </trkpt>
      <trkpt lat="45.56529" lon="6.79145">
        <ele>2005</ele>
        <time>2019-08-19T08:37:23Z</time>
      </trkpt>
      <trkpt lat="45.56522" lon="6.79141">
        <ele>2005</ele>
        <time>2019-08-19T08:37:27Z</time>
      </trkpt>
      <trkpt lat="45.56514" lon="6.79138">
        <ele>2005</ele>
        <time>2019-08-19T08:37:32Z</time>
      </trkpt>
      <trkpt lat="45.56503" lon="6.79136">
        <ele>2006</ele>
        <time>2019-08-19T08:37:37Z</time>
      </trkpt>
      <trkpt lat="45.56494" lon="6.79135">
        <ele>2014</ele>
        <time>2019-08-19T08:37:42Z</time>
      </trkpt>
      <trkpt lat="45.5648" lon="6.7913">
        <ele>2014</ele>
        <time>2019-08-19T08:37:48Z</time>
      </trkpt>
      <trkpt lat="45.5647" lon="6.79125">
        <ele>2014</ele>
        <time>2019-08-19T08:37:52Z</time>
      </trkpt>
      <trkpt lat="45.56455" lon="6.79117">
        <ele>2014</ele>
        <time>2019-08-19T08:37:58Z</time>
      </trkpt>
      <trkpt lat="45.56445" lon="6.79112">
        <ele>2015</ele>
        <time>2019-08-19T08:38:02Z</time>
      </trkpt>
      <trkpt lat="45.5644" lon="6.7911">
        <ele>2015</ele>
        <time>2019-08-19T08:38:04Z</time>
      </trkpt>
      <trkpt lat="45.56432" lon="6.79104">
        <ele>2015</ele>
        <time>2019-08-19T08:38:09Z</time>
      </trkpt>
      <trkpt lat="45.56429" lon="6.791">
        <ele>2015</ele>
        <time>2019-08-19T08:38:14Z</time>
      </trkpt>
      <trkpt lat="45.56424" lon="6.79097">
        <ele>2015</ele>
        <time>2019-08-19T08:38:19Z</time>
      </trkpt>
      <trkpt lat="45.56419" lon="6.79094">
        <ele>2014</ele>
        <time>2019-08-19T08:38:24Z</time>
      </trkpt>
      <trkpt lat="45.56413" lon="6.79091">
        <ele>2018</ele>
        <time>2019-08-19T08:38:29Z</time>
      </trkpt>
      <trkpt lat="45.56405" lon="6.79086">
        <ele>2019</ele>
        <time>2019-08-19T08:38:37Z</time>
      </trkpt>
      <trkpt lat="45.564" lon="6.79083">
        <ele>2013</ele>
        <time>2019-08-19T08:38:41Z</time>
      </trkpt>
      <trkpt lat="45.56395" lon="6.79081">
        <ele>2013</ele>
        <time>2019-08-19T08:38:46Z</time>
      </trkpt>
      <trkpt lat="45.56389" lon="6.79079">
        <ele>2013</ele>
        <time>2019-08-19T08:38:51Z</time>
      </trkpt>
      <trkpt lat="45.56383" lon="6.79079">
        <ele>2013</ele>
        <time>2019-08-19T08:38:56Z</time>
      </trkpt>
      <trkpt lat="45.56376" lon="6.79078">
        <ele>2014</ele>
        <time>2019-08-19T08:39:01Z</time>
      </trkpt>
      <trkpt lat="45.56371" lon="6.79072">
        <ele>2014</ele>
        <time>2019-08-19T08:39:07Z</time>
      </trkpt>
      <trkpt lat="45.56365" lon="6.79064">
        <ele>2014</ele>
        <time>2019-08-19T08:39:12Z</time>
      </trkpt>
      <trkpt lat="45.56361" lon="6.79061">
        <ele>2014</ele>
        <time>2019-08-19T08:39:17Z</time>
      </trkpt>
      <trkpt lat="45.56356" lon="6.79061">
        <ele>2014</ele>
        <time>2019-08-19T08:39:22Z</time>
      </trkpt>
      <trkpt lat="45.56347" lon="6.79059">
        <ele>2015</ele>
        <time>2019-08-19T08:39:26Z</time>
      </trkpt>
      <trkpt lat="45.56333" lon="6.79055">
        <ele>2021</ele>
        <time>2019-08-19T08:39:31Z</time>
      </trkpt>
      <trkpt lat="45.56319" lon="6.79048">
        <ele>2020</ele>
        <time>2019-08-19T08:39:36Z</time>
      </trkpt>
      <trkpt lat="45.56309" lon="6.79039">
        <ele>2019</ele>
        <time>2019-08-19T08:39:41Z</time>
      </trkpt>
      <trkpt lat="45.56298" lon="6.79028">
        <ele>2018</ele>
        <time>2019-08-19T08:39:46Z</time>
      </trkpt>
      <trkpt lat="45.56291" lon="6.7902">
        <ele>2018</ele>
        <time>2019-08-19T08:39:51Z</time>
      </trkpt>
      <trkpt lat="45.56284" lon="6.79015">
        <ele>2018</ele>
        <time>2019-08-19T08:39:56Z</time>
      </trkpt>
      <trkpt lat="45.56271" lon="6.79015">
        <ele>2018</ele>
        <time>2019-08-19T08:40:02Z</time>
      </trkpt>
      <trkpt lat="45.56262" lon="6.79014">
        <ele>2018</ele>
        <time>2019-08-19T08:40:06Z</time>
      </trkpt>
      <trkpt lat="45.56253" lon="6.79011">
        <ele>2017</ele>
        <time>2019-08-19T08:40:11Z</time>
      </trkpt>
      <trkpt lat="45.56247" lon="6.79008">
        <ele>2019</ele>
        <time>2019-08-19T08:40:16Z</time>
      </trkpt>
      <trkpt lat="45.5624" lon="6.79005">
        <ele>2020</ele>
        <time>2019-08-19T08:40:22Z</time>
      </trkpt>
      <trkpt lat="45.56232" lon="6.79002">
        <ele>2022</ele>
        <time>2019-08-19T08:40:27Z</time>
      </trkpt>
      <trkpt lat="45.56224" lon="6.79">
        <ele>2014</ele>
        <time>2019-08-19T08:40:31Z</time>
      </trkpt>
      <trkpt lat="45.56219" lon="6.78994">
        <ele>2014</ele>
        <time>2019-08-19T08:40:41Z</time>
      </trkpt>
      <trkpt lat="45.56215" lon="6.7899">
        <ele>2014</ele>
        <time>2019-08-19T08:40:51Z</time>
      </trkpt>
      <trkpt lat="45.56212" lon="6.78984">
        <ele>2013</ele>
        <time>2019-08-19T08:41:07Z</time>
      </trkpt>
      <trkpt lat="45.56208" lon="6.78978">
        <ele>2013</ele>
        <time>2019-08-19T08:41:16Z</time>
      </trkpt>
      <trkpt lat="45.56208" lon="6.78985">
        <ele>2014</ele>
        <time>2019-08-19T08:42:27Z</time>
      </trkpt>
      <trkpt lat="45.56204" lon="6.78991">
        <ele>2015</ele>
        <time>2019-08-19T08:43:41Z</time>
      </trkpt>
      <trkpt lat="45.56197" lon="6.78991">
        <ele>2015</ele>
        <time>2019-08-19T08:43:46Z</time>
      </trkpt>
      <trkpt lat="45.56192" lon="6.78991">
        <ele>2016</ele>
        <time>2019-08-19T08:43:51Z</time>
      </trkpt>
      <trkpt lat="45.56203" lon="6.78989">
        <ele>2015</ele>
        <time>2019-08-19T08:44:06Z</time>
      </trkpt>
      <trkpt lat="45.56209" lon="6.78989">
        <ele>2014</ele>
        <time>2019-08-19T08:44:16Z</time>
      </trkpt>
      <trkpt lat="45.56207" lon="6.78999">
        <ele>2015</ele>
        <time>2019-08-19T08:44:27Z</time>
      </trkpt>
      <trkpt lat="45.56203" lon="6.78993">
        <ele>2015</ele>
        <time>2019-08-19T08:45:16Z</time>
      </trkpt>
      <trkpt lat="45.56197" lon="6.78992">
        <ele>2015</ele>
        <time>2019-08-19T08:45:21Z</time>
      </trkpt>
      <trkpt lat="45.56189" lon="6.78994">
        <ele>2017</ele>
        <time>2019-08-19T08:45:27Z</time>
      </trkpt>
      <trkpt lat="45.56181" lon="6.78996">
        <ele>2019</ele>
        <time>2019-08-19T08:45:31Z</time>
      </trkpt>
      <trkpt lat="45.56169" lon="6.79">
        <ele>2025</ele>
        <time>2019-08-19T08:45:37Z</time>
      </trkpt>
      <trkpt lat="45.56162" lon="6.79002">
        <ele>2027</ele>
        <time>2019-08-19T08:45:41Z</time>
      </trkpt>
      <trkpt lat="45.56158" lon="6.79002">
        <ele>2029</ele>
        <time>2019-08-19T08:45:47Z</time>
      </trkpt>
      <trkpt lat="45.56152" lon="6.79003">
        <ele>2031</ele>
        <time>2019-08-19T08:45:56Z</time>
      </trkpt>
      <trkpt lat="45.56142" lon="6.7899">
        <ele>2023</ele>
        <time>2019-08-19T08:46:21Z</time>
      </trkpt>
      <trkpt lat="45.56138" lon="6.78985">
        <ele>2022</ele>
        <time>2019-08-19T08:46:26Z</time>
      </trkpt>
      <trkpt lat="45.56133" lon="6.78977">
        <ele>2022</ele>
        <time>2019-08-19T08:46:31Z</time>
      </trkpt>
      <trkpt lat="45.56126" lon="6.78966">
        <ele>2021</ele>
        <time>2019-08-19T08:46:36Z</time>
      </trkpt>
      <trkpt lat="45.56101" lon="6.78947">
        <ele>2020</ele>
        <time>2019-08-19T08:46:41Z</time>
      </trkpt>
      <trkpt lat="45.56088" lon="6.78939">
        <ele>2020</ele>
        <time>2019-08-19T08:46:46Z</time>
      </trkpt>
      <trkpt lat="45.56075" lon="6.78936">
        <ele>2027</ele>
        <time>2019-08-19T08:46:51Z</time>
      </trkpt>
      <trkpt lat="45.56063" lon="6.78931">
        <ele>2028</ele>
        <time>2019-08-19T08:46:56Z</time>
      </trkpt>
      <trkpt lat="45.56058" lon="6.78927">
        <ele>2029</ele>
        <time>2019-08-19T08:46:58Z</time>
      </trkpt>
      <trkpt lat="45.56049" lon="6.78918">
        <ele>2030</ele>
        <time>2019-08-19T08:47:03Z</time>
      </trkpt>
      <trkpt lat="45.5604" lon="6.78909">
        <ele>2020</ele>
        <time>2019-08-19T08:47:08Z</time>
      </trkpt>
      <trkpt lat="45.56033" lon="6.78903">
        <ele>2020</ele>
        <time>2019-08-19T08:47:13Z</time>
      </trkpt>
      <trkpt lat="45.56023" lon="6.78897">
        <ele>2021</ele>
        <time>2019-08-19T08:47:18Z</time>
      </trkpt>
      <trkpt lat="45.56015" lon="6.78891">
        <ele>2022</ele>
        <time>2019-08-19T08:47:24Z</time>
      </trkpt>
      <trkpt lat="45.56003" lon="6.78885">
        <ele>2021</ele>
        <time>2019-08-19T08:47:27Z</time>
      </trkpt>
      <trkpt lat="45.55993" lon="6.78877">
        <ele>2029</ele>
        <time>2019-08-19T08:47:31Z</time>
      </trkpt>
      <trkpt lat="45.55982" lon="6.78869">
        <ele>2029</ele>
        <time>2019-08-19T08:47:37Z</time>
      </trkpt>
      <trkpt lat="45.55976" lon="6.78864">
        <ele>2028</ele>
        <time>2019-08-19T08:47:41Z</time>
      </trkpt>
      <trkpt lat="45.5597" lon="6.78859">
        <ele>2028</ele>
        <time>2019-08-19T08:47:47Z</time>
      </trkpt>
      <trkpt lat="45.55957" lon="6.78851">
        <ele>2029</ele>
        <time>2019-08-19T08:47:51Z</time>
      </trkpt>
      <trkpt lat="45.55948" lon="6.78845">
        <ele>2029</ele>
        <time>2019-08-19T08:47:56Z</time>
      </trkpt>
      <trkpt lat="45.55932" lon="6.7883">
        <ele>2022</ele>
        <time>2019-08-19T08:48:02Z</time>
      </trkpt>
      <trkpt lat="45.5592" lon="6.78821">
        <ele>2023</ele>
        <time>2019-08-19T08:48:07Z</time>
      </trkpt>
      <trkpt lat="45.55911" lon="6.78819">
        <ele>2027</ele>
        <time>2019-08-19T08:48:11Z</time>
      </trkpt>
      <trkpt lat="45.55903" lon="6.78816">
        <ele>2027</ele>
        <time>2019-08-19T08:48:16Z</time>
      </trkpt>
      <trkpt lat="45.55899" lon="6.7881">
        <ele>2027</ele>
        <time>2019-08-19T08:48:22Z</time>
      </trkpt>
      <trkpt lat="45.55896" lon="6.78804">
        <ele>2027</ele>
        <time>2019-08-19T08:48:26Z</time>
      </trkpt>
      <trkpt lat="45.5589" lon="6.78797">
        <ele>2026</ele>
        <time>2019-08-19T08:48:31Z</time>
      </trkpt>
      <trkpt lat="45.55877" lon="6.78787">
        <ele>2027</ele>
        <time>2019-08-19T08:48:37Z</time>
      </trkpt>
      <trkpt lat="45.55867" lon="6.7878">
        <ele>2027</ele>
        <time>2019-08-19T08:48:41Z</time>
      </trkpt>
      <trkpt lat="45.55856" lon="6.78772">
        <ele>2027</ele>
        <time>2019-08-19T08:48:47Z</time>
      </trkpt>
      <trkpt lat="45.55846" lon="6.78761">
        <ele>2027</ele>
        <time>2019-08-19T08:48:51Z</time>
      </trkpt>
      <trkpt lat="45.55837" lon="6.78747">
        <ele>2027</ele>
        <time>2019-08-19T08:48:57Z</time>
      </trkpt>
      <trkpt lat="45.5583" lon="6.78737">
        <ele>2030</ele>
        <time>2019-08-19T08:49:01Z</time>
      </trkpt>
      <trkpt lat="45.55822" lon="6.78728">
        <ele>2031</ele>
        <time>2019-08-19T08:49:06Z</time>
      </trkpt>
      <trkpt lat="45.55813" lon="6.78718">
        <ele>2032</ele>
        <time>2019-08-19T08:49:11Z</time>
      </trkpt>
      <trkpt lat="45.55801" lon="6.7871">
        <ele>2033</ele>
        <time>2019-08-19T08:49:16Z</time>
      </trkpt>
      <trkpt lat="45.55798" lon="6.78705">
        <ele>2033</ele>
        <time>2019-08-19T08:49:21Z</time>
      </trkpt>
      <trkpt lat="45.55794" lon="6.78699">
        <ele>2033</ele>
        <time>2019-08-19T08:49:26Z</time>
      </trkpt>
      <trkpt lat="45.5579" lon="6.78688">
        <ele>2033</ele>
        <time>2019-08-19T08:49:36Z</time>
      </trkpt>
      <trkpt lat="45.55788" lon="6.78681">
        <ele>2033</ele>
        <time>2019-08-19T08:49:43Z</time>
      </trkpt>
      <trkpt lat="45.55772" lon="6.78682">
        <ele>2034</ele>
        <time>2019-08-19T08:53:01Z</time>
      </trkpt>
      <trkpt lat="45.55762" lon="6.78683">
        <ele>2034</ele>
        <time>2019-08-19T08:53:06Z</time>
      </trkpt>
      <trkpt lat="45.55749" lon="6.78678">
        <ele>2038</ele>
        <time>2019-08-19T08:53:11Z</time>
      </trkpt>
      <trkpt lat="45.55737" lon="6.78669">
        <ele>2038</ele>
        <time>2019-08-19T08:53:16Z</time>
      </trkpt>
      <trkpt lat="45.55724" lon="6.78665">
        <ele>2034</ele>
        <time>2019-08-19T08:53:21Z</time>
      </trkpt>
      <trkpt lat="45.55713" lon="6.78667">
        <ele>2041</ele>
        <time>2019-08-19T08:53:27Z</time>
      </trkpt>
      <trkpt lat="45.55693" lon="6.78671">
        <ele>2042</ele>
        <time>2019-08-19T08:53:32Z</time>
      </trkpt>
      <trkpt lat="45.55681" lon="6.78671">
        <ele>2042</ele>
        <time>2019-08-19T08:53:36Z</time>
      </trkpt>
      <trkpt lat="45.55669" lon="6.78668">
        <ele>2041</ele>
        <time>2019-08-19T08:53:41Z</time>
      </trkpt>
      <trkpt lat="45.55658" lon="6.78661">
        <ele>2041</ele>
        <time>2019-08-19T08:53:47Z</time>
      </trkpt>
      <trkpt lat="45.55653" lon="6.78657">
        <ele>2041</ele>
        <time>2019-08-19T08:53:51Z</time>
      </trkpt>
      <trkpt lat="45.55649" lon="6.78651">
        <ele>2041</ele>
        <time>2019-08-19T08:53:56Z</time>
      </trkpt>
      <trkpt lat="45.55644" lon="6.78645">
        <ele>2040</ele>
        <time>2019-08-19T08:54:01Z</time>
      </trkpt>
      <trkpt lat="45.55637" lon="6.78637">
        <ele>2040</ele>
        <time>2019-08-19T08:54:06Z</time>
      </trkpt>
      <trkpt lat="45.55627" lon="6.78629">
        <ele>2040</ele>
        <time>2019-08-19T08:54:11Z</time>
      </trkpt>
      <trkpt lat="45.55617" lon="6.78627">
        <ele>2041</ele>
        <time>2019-08-19T08:54:16Z</time>
      </trkpt>
      <trkpt lat="45.55607" lon="6.78625">
        <ele>2041</ele>
        <time>2019-08-19T08:54:22Z</time>
      </trkpt>
      <trkpt lat="45.55595" lon="6.78624">
        <ele>2041</ele>
        <time>2019-08-19T08:54:26Z</time>
      </trkpt>
      <trkpt lat="45.55581" lon="6.78627">
        <ele>2051</ele>
        <time>2019-08-19T08:54:31Z</time>
      </trkpt>
      <trkpt lat="45.55568" lon="6.78629">
        <ele>2052</ele>
        <time>2019-08-19T08:54:36Z</time>
      </trkpt>
      <trkpt lat="45.55558" lon="6.78628">
        <ele>2052</ele>
        <time>2019-08-19T08:54:41Z</time>
      </trkpt>
      <trkpt lat="45.5555" lon="6.78621">
        <ele>2052</ele>
        <time>2019-08-19T08:54:46Z</time>
      </trkpt>
      <trkpt lat="45.55539" lon="6.78609">
        <ele>2053</ele>
        <time>2019-08-19T08:54:52Z</time>
      </trkpt>
      <trkpt lat="45.55529" lon="6.78597">
        <ele>2053</ele>
        <time>2019-08-19T08:54:56Z</time>
      </trkpt>
      <trkpt lat="45.5552" lon="6.78588">
        <ele>2054</ele>
        <time>2019-08-19T08:55:01Z</time>
      </trkpt>
      <trkpt lat="45.5551" lon="6.78576">
        <ele>2050</ele>
        <time>2019-08-19T08:55:06Z</time>
      </trkpt>
      <trkpt lat="45.55503" lon="6.78568">
        <ele>2049</ele>
        <time>2019-08-19T08:55:11Z</time>
      </trkpt>
      <trkpt lat="45.55495" lon="6.7856">
        <ele>2057</ele>
        <time>2019-08-19T08:55:17Z</time>
      </trkpt>
      <trkpt lat="45.5549" lon="6.78554">
        <ele>2057</ele>
        <time>2019-08-19T08:55:21Z</time>
      </trkpt>
      <trkpt lat="45.55483" lon="6.78542">
        <ele>2056</ele>
        <time>2019-08-19T08:55:27Z</time>
      </trkpt>
      <trkpt lat="45.55477" lon="6.7853">
        <ele>2056</ele>
        <time>2019-08-19T08:55:36Z</time>
      </trkpt>
      <trkpt lat="45.55471" lon="6.78522">
        <ele>2056</ele>
        <time>2019-08-19T08:55:41Z</time>
      </trkpt>
      <trkpt lat="45.55465" lon="6.78517">
        <ele>2056</ele>
        <time>2019-08-19T08:55:47Z</time>
      </trkpt>
      <trkpt lat="45.55457" lon="6.78512">
        <ele>2057</ele>
        <time>2019-08-19T08:55:51Z</time>
      </trkpt>
      <trkpt lat="45.55449" lon="6.78506">
        <ele>2058</ele>
        <time>2019-08-19T08:55:56Z</time>
      </trkpt>
      <trkpt lat="45.55426" lon="6.78493">
        <ele>2056</ele>
        <time>2019-08-19T08:56:01Z</time>
      </trkpt>
      <trkpt lat="45.5541" lon="6.78484">
        <ele>2061</ele>
        <time>2019-08-19T08:56:07Z</time>
      </trkpt>
      <trkpt lat="45.55402" lon="6.78482">
        <ele>2061</ele>
        <time>2019-08-19T08:56:11Z</time>
      </trkpt>
      <trkpt lat="45.55393" lon="6.78479">
        <ele>2061</ele>
        <time>2019-08-19T08:56:17Z</time>
      </trkpt>
      <trkpt lat="45.55379" lon="6.78472">
        <ele>2062</ele>
        <time>2019-08-19T08:56:22Z</time>
      </trkpt>
      <trkpt lat="45.5537" lon="6.78467">
        <ele>2062</ele>
        <time>2019-08-19T08:56:26Z</time>
      </trkpt>
      <trkpt lat="45.55362" lon="6.78462">
        <ele>2062</ele>
        <time>2019-08-19T08:56:31Z</time>
      </trkpt>
      <trkpt lat="45.55352" lon="6.78453">
        <ele>2062</ele>
        <time>2019-08-19T08:56:37Z</time>
      </trkpt>
      <trkpt lat="45.55341" lon="6.78446">
        <ele>2062</ele>
        <time>2019-08-19T08:56:42Z</time>
      </trkpt>
      <trkpt lat="45.55337" lon="6.78443">
        <ele>2062</ele>
        <time>2019-08-19T08:56:46Z</time>
      </trkpt>
      <trkpt lat="45.55332" lon="6.78439">
        <ele>2068</ele>
        <time>2019-08-19T08:56:56Z</time>
      </trkpt>
      <trkpt lat="45.55327" lon="6.78436">
        <ele>2068</ele>
        <time>2019-08-19T08:57:06Z</time>
      </trkpt>
      <trkpt lat="45.55323" lon="6.78437">
        <ele>2068</ele>
        <time>2019-08-19T08:58:44Z</time>
      </trkpt>
      <trkpt lat="45.55321" lon="6.78445">
        <ele>2070</ele>
        <time>2019-08-19T09:01:17Z</time>
      </trkpt>
      <trkpt lat="45.55319" lon="6.78452">
        <ele>2070</ele>
        <time>2019-08-19T09:01:22Z</time>
      </trkpt>
      <trkpt lat="45.55316" lon="6.78459">
        <ele>2071</ele>
        <time>2019-08-19T09:01:27Z</time>
      </trkpt>
      <trkpt lat="45.55313" lon="6.78468">
        <ele>2072</ele>
        <time>2019-08-19T09:01:32Z</time>
      </trkpt>
      <trkpt lat="45.55309" lon="6.78478">
        <ele>2073</ele>
        <time>2019-08-19T09:01:37Z</time>
      </trkpt>
      <trkpt lat="45.55301" lon="6.78487">
        <ele>2073</ele>
        <time>2019-08-19T09:01:43Z</time>
      </trkpt>
      <trkpt lat="45.55298" lon="6.78495">
        <ele>2074</ele>
        <time>2019-08-19T09:01:48Z</time>
      </trkpt>
      <trkpt lat="45.55296" lon="6.78504">
        <ele>2080</ele>
        <time>2019-08-19T09:01:52Z</time>
      </trkpt>
      <trkpt lat="45.55294" lon="6.78515">
        <ele>2080</ele>
        <time>2019-08-19T09:01:57Z</time>
      </trkpt>
      <trkpt lat="45.55294" lon="6.78523">
        <ele>2080</ele>
        <time>2019-08-19T09:02:02Z</time>
      </trkpt>
      <trkpt lat="45.55295" lon="6.78536">
        <ele>2081</ele>
        <time>2019-08-19T09:02:08Z</time>
      </trkpt>
      <trkpt lat="45.55296" lon="6.78547">
        <ele>2081</ele>
        <time>2019-08-19T09:02:12Z</time>
      </trkpt>
      <trkpt lat="45.55296" lon="6.78554">
        <ele>2082</ele>
        <time>2019-08-19T09:02:17Z</time>
      </trkpt>
      <trkpt lat="45.55293" lon="6.78564">
        <ele>2082</ele>
        <time>2019-08-19T09:02:23Z</time>
      </trkpt>
      <trkpt lat="45.55289" lon="6.78572">
        <ele>2083</ele>
        <time>2019-08-19T09:02:27Z</time>
      </trkpt>
      <trkpt lat="45.55283" lon="6.78582">
        <ele>2083</ele>
        <time>2019-08-19T09:02:33Z</time>
      </trkpt>
      <trkpt lat="45.55276" lon="6.78591">
        <ele>2089</ele>
        <time>2019-08-19T09:02:42Z</time>
      </trkpt>
      <trkpt lat="45.55267" lon="6.78589">
        <ele>2089</ele>
        <time>2019-08-19T09:02:47Z</time>
      </trkpt>
      <trkpt lat="45.55258" lon="6.78577">
        <ele>2086</ele>
        <time>2019-08-19T09:02:53Z</time>
      </trkpt>
      <trkpt lat="45.55253" lon="6.78567">
        <ele>2085</ele>
        <time>2019-08-19T09:02:57Z</time>
      </trkpt>
      <trkpt lat="45.55249" lon="6.78559">
        <ele>2088</ele>
        <time>2019-08-19T09:03:02Z</time>
      </trkpt>
      <trkpt lat="45.55244" lon="6.78552">
        <ele>2088</ele>
        <time>2019-08-19T09:03:07Z</time>
      </trkpt>
      <trkpt lat="45.55238" lon="6.78548">
        <ele>2088</ele>
        <time>2019-08-19T09:03:12Z</time>
      </trkpt>
      <trkpt lat="45.55232" lon="6.78548">
        <ele>2089</ele>
        <time>2019-08-19T09:03:22Z</time>
      </trkpt>
      <trkpt lat="45.55226" lon="6.78548">
        <ele>2089</ele>
        <time>2019-08-19T09:03:43Z</time>
      </trkpt>
      <trkpt lat="45.55219" lon="6.7855">
        <ele>2089</ele>
        <time>2019-08-19T09:04:37Z</time>
      </trkpt>
      <trkpt lat="45.55211" lon="6.78553">
        <ele>2090</ele>
        <time>2019-08-19T09:04:42Z</time>
      </trkpt>
      <trkpt lat="45.55203" lon="6.78556">
        <ele>2091</ele>
        <time>2019-08-19T09:04:48Z</time>
      </trkpt>
      <trkpt lat="45.55198" lon="6.78559">
        <ele>2091</ele>
        <time>2019-08-19T09:04:52Z</time>
      </trkpt>
      <trkpt lat="45.55187" lon="6.78563">
        <ele>2093</ele>
        <time>2019-08-19T09:05:03Z</time>
      </trkpt>
      <trkpt lat="45.55182" lon="6.78569">
        <ele>2094</ele>
        <time>2019-08-19T09:05:07Z</time>
      </trkpt>
      <trkpt lat="45.55176" lon="6.78575">
        <ele>2096</ele>
        <time>2019-08-19T09:05:12Z</time>
      </trkpt>
      <trkpt lat="45.55171" lon="6.78578">
        <ele>2097</ele>
        <time>2019-08-19T09:05:17Z</time>
      </trkpt>
      <trkpt lat="45.55164" lon="6.7858">
        <ele>2100</ele>
        <time>2019-08-19T09:05:23Z</time>
      </trkpt>
      <trkpt lat="45.55158" lon="6.7858">
        <ele>2099</ele>
        <time>2019-08-19T09:05:28Z</time>
      </trkpt>
      <trkpt lat="45.5515" lon="6.78581">
        <ele>2099</ele>
        <time>2019-08-19T09:05:32Z</time>
      </trkpt>
      <trkpt lat="45.55143" lon="6.78583">
        <ele>2099</ele>
        <time>2019-08-19T09:05:37Z</time>
      </trkpt>
      <trkpt lat="45.55144" lon="6.78595">
        <ele>2107</ele>
        <time>2019-08-19T09:05:48Z</time>
      </trkpt>
      <trkpt lat="45.55148" lon="6.78601">
        <ele>2107</ele>
        <time>2019-08-19T09:05:52Z</time>
      </trkpt>
      <trkpt lat="45.55151" lon="6.78609">
        <ele>2108</ele>
        <time>2019-08-19T09:05:57Z</time>
      </trkpt>
      <trkpt lat="45.55156" lon="6.78617">
        <ele>2108</ele>
        <time>2019-08-19T09:06:02Z</time>
      </trkpt>
      <trkpt lat="45.5516" lon="6.78623">
        <ele>2109</ele>
        <time>2019-08-19T09:06:08Z</time>
      </trkpt>
      <trkpt lat="45.55165" lon="6.7863">
        <ele>2109</ele>
        <time>2019-08-19T09:06:12Z</time>
      </trkpt>
      <trkpt lat="45.5517" lon="6.78638">
        <ele>2103</ele>
        <time>2019-08-19T09:06:17Z</time>
      </trkpt>
      <trkpt lat="45.55172" lon="6.78644">
        <ele>2103</ele>
        <time>2019-08-19T09:06:22Z</time>
      </trkpt>
      <trkpt lat="45.55177" lon="6.78646">
        <ele>2103</ele>
        <time>2019-08-19T09:06:47Z</time>
      </trkpt>
      <trkpt lat="45.5517" lon="6.78649">
        <ele>2104</ele>
        <time>2019-08-19T09:07:33Z</time>
      </trkpt>
      <trkpt lat="45.55164" lon="6.78651">
        <ele>2110</ele>
        <time>2019-08-19T09:07:36Z</time>
      </trkpt>
      <trkpt lat="45.55151" lon="6.78654">
        <ele>2111</ele>
        <time>2019-08-19T09:07:46Z</time>
      </trkpt>
      <trkpt lat="45.55146" lon="6.78655">
        <ele>2111</ele>
        <time>2019-08-19T09:07:55Z</time>
      </trkpt>
      <trkpt lat="45.55132" lon="6.78653">
        <ele>2112</ele>
        <time>2019-08-19T09:08:00Z</time>
      </trkpt>
      <trkpt lat="45.55128" lon="6.78653">
        <ele>2113</ele>
        <time>2019-08-19T09:08:16Z</time>
      </trkpt>
      <trkpt lat="45.55121" lon="6.78652">
        <ele>2113</ele>
        <time>2019-08-19T09:08:16Z</time>
      </trkpt>
      <trkpt lat="45.55116" lon="6.78652">
        <ele>2114</ele>
        <time>2019-08-19T09:08:21Z</time>
      </trkpt>
      <trkpt lat="45.55097" lon="6.78648">
        <ele>2116</ele>
        <time>2019-08-19T09:08:26Z</time>
      </trkpt>
      <trkpt lat="45.55092" lon="6.7865">
        <ele>2118</ele>
        <time>2019-08-19T09:08:31Z</time>
      </trkpt>
      <trkpt lat="45.55087" lon="6.78652">
        <ele>2119</ele>
        <time>2019-08-19T09:08:42Z</time>
      </trkpt>
      <trkpt lat="45.55075" lon="6.78668">
        <ele>2128</ele>
        <time>2019-08-19T09:08:46Z</time>
      </trkpt>
      <trkpt lat="45.55071" lon="6.78672">
        <ele>2129</ele>
        <time>2019-08-19T09:08:50Z</time>
      </trkpt>
      <trkpt lat="45.5504" lon="6.78674">
        <ele>2131</ele>
        <time>2019-08-19T09:09:06Z</time>
      </trkpt>
      <trkpt lat="45.55035" lon="6.78674">
        <ele>2132</ele>
        <time>2019-08-19T09:09:10Z</time>
      </trkpt>
      <trkpt lat="45.55018" lon="6.78676">
        <ele>2131</ele>
        <time>2019-08-19T09:09:15Z</time>
      </trkpt>
      <trkpt lat="45.55011" lon="6.78676">
        <ele>2131</ele>
        <time>2019-08-19T09:09:25Z</time>
      </trkpt>
      <trkpt lat="45.55003" lon="6.78672">
        <ele>2130</ele>
        <time>2019-08-19T09:09:30Z</time>
      </trkpt>
      <trkpt lat="45.54993" lon="6.78671">
        <ele>2132</ele>
        <time>2019-08-19T09:09:36Z</time>
      </trkpt>
      <trkpt lat="45.54987" lon="6.78668">
        <ele>2134</ele>
        <time>2019-08-19T09:09:40Z</time>
      </trkpt>
      <trkpt lat="45.54938" lon="6.78646">
        <ele>2128</ele>
        <time>2019-08-19T09:09:56Z</time>
      </trkpt>
      <trkpt lat="45.54933" lon="6.7864">
        <ele>2128</ele>
        <time>2019-08-19T09:10:00Z</time>
      </trkpt>
      <trkpt lat="45.54911" lon="6.78624">
        <ele>2129</ele>
        <time>2019-08-19T09:10:16Z</time>
      </trkpt>
      <trkpt lat="45.54894" lon="6.78609">
        <ele>2128</ele>
        <time>2019-08-19T09:10:21Z</time>
      </trkpt>
      <trkpt lat="45.5488" lon="6.78591">
        <ele>2127</ele>
        <time>2019-08-19T09:10:26Z</time>
      </trkpt>
      <trkpt lat="45.54874" lon="6.78584">
        <ele>2128</ele>
        <time>2019-08-19T09:10:30Z</time>
      </trkpt>
      <trkpt lat="45.54865" lon="6.78578">
        <ele>2117</ele>
        <time>2019-08-19T09:10:36Z</time>
      </trkpt>
      <trkpt lat="45.54847" lon="6.78569">
        <ele>2118</ele>
        <time>2019-08-19T09:10:46Z</time>
      </trkpt>
      <trkpt lat="45.54833" lon="6.78549">
        <ele>2114</ele>
        <time>2019-08-19T09:10:56Z</time>
      </trkpt>
      <trkpt lat="45.54829" lon="6.78543">
        <ele>2113</ele>
        <time>2019-08-19T09:11:01Z</time>
      </trkpt>
      <trkpt lat="45.54825" lon="6.78538">
        <ele>2112</ele>
        <time>2019-08-19T09:11:11Z</time>
      </trkpt>
      <trkpt lat="45.54799" lon="6.78509">
        <ele>2109</ele>
        <time>2019-08-19T09:11:16Z</time>
      </trkpt>
      <trkpt lat="45.54793" lon="6.78499">
        <ele>2098</ele>
        <time>2019-08-19T09:11:21Z</time>
      </trkpt>
      <trkpt lat="45.54788" lon="6.78499">
        <ele>2097</ele>
        <time>2019-08-19T09:11:21Z</time>
      </trkpt>
      <trkpt lat="45.54783" lon="6.78492">
        <ele>2097</ele>
        <time>2019-08-19T09:11:26Z</time>
      </trkpt>
      <trkpt lat="45.54765" lon="6.78482">
        <ele>2097</ele>
        <time>2019-08-19T09:11:36Z</time>
      </trkpt>
      <trkpt lat="45.54756" lon="6.78477">
        <ele>2097</ele>
        <time>2019-08-19T09:11:41Z</time>
      </trkpt>
      <trkpt lat="45.54751" lon="6.78473">
        <ele>2096</ele>
        <time>2019-08-19T09:11:50Z</time>
      </trkpt>
      <trkpt lat="45.54752" lon="6.78483">
        <ele>2097</ele>
        <time>2019-08-19T09:14:18Z</time>
      </trkpt>
      <trkpt lat="45.54755" lon="6.78504">
        <ele>2102</ele>
        <time>2019-08-19T09:14:24Z</time>
      </trkpt>
      <trkpt lat="45.54757" lon="6.78516">
        <ele>2106</ele>
        <time>2019-08-19T09:14:28Z</time>
      </trkpt>
      <trkpt lat="45.54757" lon="6.78523">
        <ele>2107</ele>
        <time>2019-08-19T09:14:33Z</time>
      </trkpt>
      <trkpt lat="45.54755" lon="6.78536">
        <ele>2110</ele>
        <time>2019-08-19T09:14:43Z</time>
      </trkpt>
      <trkpt lat="45.54754" lon="6.78546">
        <ele>2111</ele>
        <time>2019-08-19T09:14:48Z</time>
      </trkpt>
      <trkpt lat="45.54754" lon="6.78555">
        <ele>2113</ele>
        <time>2019-08-19T09:14:54Z</time>
      </trkpt>
      <trkpt lat="45.54756" lon="6.78565">
        <ele>2115</ele>
        <time>2019-08-19T09:14:59Z</time>
      </trkpt>
      <trkpt lat="45.54759" lon="6.78572">
        <ele>2116</ele>
        <time>2019-08-19T09:15:03Z</time>
      </trkpt>
      <trkpt lat="45.5476" lon="6.78581">
        <ele>2117</ele>
        <time>2019-08-19T09:15:08Z</time>
      </trkpt>
      <trkpt lat="45.5476" lon="6.7859">
        <ele>2124</ele>
        <time>2019-08-19T09:15:13Z</time>
      </trkpt>
      <trkpt lat="45.5476" lon="6.78599">
        <ele>2126</ele>
        <time>2019-08-19T09:15:17Z</time>
      </trkpt>
      <trkpt lat="45.5476" lon="6.78608">
        <ele>2128</ele>
        <time>2019-08-19T09:15:22Z</time>
      </trkpt>
      <trkpt lat="45.54761" lon="6.78619">
        <ele>2130</ele>
        <time>2019-08-19T09:15:33Z</time>
      </trkpt>
      <trkpt lat="45.54762" lon="6.78628">
        <ele>2131</ele>
        <time>2019-08-19T09:15:38Z</time>
      </trkpt>
      <trkpt lat="45.54763" lon="6.78636">
        <ele>2132</ele>
        <time>2019-08-19T09:15:43Z</time>
      </trkpt>
      <trkpt lat="45.54763" lon="6.78642">
        <ele>2133</ele>
        <time>2019-08-19T09:15:48Z</time>
      </trkpt>
      <trkpt lat="45.54762" lon="6.7865">
        <ele>2135</ele>
        <time>2019-08-19T09:15:53Z</time>
      </trkpt>
      <trkpt lat="45.5476" lon="6.78658">
        <ele>2136</ele>
        <time>2019-08-19T09:15:58Z</time>
      </trkpt>
      <trkpt lat="45.54759" lon="6.78667">
        <ele>2137</ele>
        <time>2019-08-19T09:16:03Z</time>
      </trkpt>
      <trkpt lat="45.54758" lon="6.78675">
        <ele>2143</ele>
        <time>2019-08-19T09:16:08Z</time>
      </trkpt>
      <trkpt lat="45.54759" lon="6.78685">
        <ele>2145</ele>
        <time>2019-08-19T09:16:23Z</time>
      </trkpt>
      <trkpt lat="45.54766" lon="6.78682">
        <ele>2145</ele>
        <time>2019-08-19T09:16:38Z</time>
      </trkpt>
      <trkpt lat="45.54768" lon="6.78684">
        <ele>2145</ele>
        <time>2019-08-19T09:20:24Z</time>
      </trkpt>
      <trkpt lat="45.54767" lon="6.78696">
        <ele>2146</ele>
        <time>2019-08-19T09:20:34Z</time>
      </trkpt>
      <trkpt lat="45.54766" lon="6.78703">
        <ele>2147</ele>
        <time>2019-08-19T09:20:38Z</time>
      </trkpt>
      <trkpt lat="45.54765" lon="6.78711">
        <ele>2148</ele>
        <time>2019-08-19T09:20:43Z</time>
      </trkpt>
      <trkpt lat="45.54764" lon="6.78723">
        <ele>2150</ele>
        <time>2019-08-19T09:20:48Z</time>
      </trkpt>
      <trkpt lat="45.54762" lon="6.7873">
        <ele>2150</ele>
        <time>2019-08-19T09:20:53Z</time>
      </trkpt>
      <trkpt lat="45.54759" lon="6.78741">
        <ele>2151</ele>
        <time>2019-08-19T09:20:59Z</time>
      </trkpt>
      <trkpt lat="45.54757" lon="6.78747">
        <ele>2152</ele>
        <time>2019-08-19T09:21:03Z</time>
      </trkpt>
      <trkpt lat="45.54752" lon="6.78753">
        <ele>2155</ele>
        <time>2019-08-19T09:21:14Z</time>
      </trkpt>
      <trkpt lat="45.54748" lon="6.7876">
        <ele>2151</ele>
        <time>2019-08-19T09:21:18Z</time>
      </trkpt>
      <trkpt lat="45.54745" lon="6.78767">
        <ele>2150</ele>
        <time>2019-08-19T09:21:23Z</time>
      </trkpt>
      <trkpt lat="45.54742" lon="6.78775">
        <ele>2150</ele>
        <time>2019-08-19T09:21:28Z</time>
      </trkpt>
      <trkpt lat="45.54743" lon="6.78783">
        <ele>2150</ele>
        <time>2019-08-19T09:21:33Z</time>
      </trkpt>
      <trkpt lat="45.54746" lon="6.78792">
        <ele>2152</ele>
        <time>2019-08-19T09:21:38Z</time>
      </trkpt>
      <trkpt lat="45.54746" lon="6.78802">
        <ele>2153</ele>
        <time>2019-08-19T09:21:43Z</time>
      </trkpt>
      <trkpt lat="45.54745" lon="6.7881">
        <ele>2155</ele>
        <time>2019-08-19T09:21:48Z</time>
      </trkpt>
      <trkpt lat="45.54741" lon="6.7882">
        <ele>2158</ele>
        <time>2019-08-19T09:21:54Z</time>
      </trkpt>
      <trkpt lat="45.54739" lon="6.7883">
        <ele>2159</ele>
        <time>2019-08-19T09:21:59Z</time>
      </trkpt>
      <trkpt lat="45.54737" lon="6.78838">
        <ele>2165</ele>
        <time>2019-08-19T09:22:04Z</time>
      </trkpt>
      <trkpt lat="45.54734" lon="6.78845">
        <ele>2165</ele>
        <time>2019-08-19T09:22:08Z</time>
      </trkpt>
      <trkpt lat="45.54731" lon="6.7885">
        <ele>2165</ele>
        <time>2019-08-19T09:22:13Z</time>
      </trkpt>
      <trkpt lat="45.54727" lon="6.78855">
        <ele>2165</ele>
        <time>2019-08-19T09:22:19Z</time>
      </trkpt>
      <trkpt lat="45.54723" lon="6.78862">
        <ele>2165</ele>
        <time>2019-08-19T09:22:24Z</time>
      </trkpt>
      <trkpt lat="45.54719" lon="6.78868">
        <ele>2165</ele>
        <time>2019-08-19T09:22:28Z</time>
      </trkpt>
      <trkpt lat="45.54715" lon="6.78874">
        <ele>2165</ele>
        <time>2019-08-19T09:22:33Z</time>
      </trkpt>
      <trkpt lat="45.54712" lon="6.78879">
        <ele>2165</ele>
        <time>2019-08-19T09:22:38Z</time>
      </trkpt>
      <trkpt lat="45.54709" lon="6.78887">
        <ele>2166</ele>
        <time>2019-08-19T09:22:43Z</time>
      </trkpt>
      <trkpt lat="45.54704" lon="6.78894">
        <ele>2166</ele>
        <time>2019-08-19T09:22:48Z</time>
      </trkpt>
      <trkpt lat="45.54699" lon="6.789">
        <ele>2166</ele>
        <time>2019-08-19T09:22:53Z</time>
      </trkpt>
      <trkpt lat="45.54694" lon="6.78907">
        <ele>2166</ele>
        <time>2019-08-19T09:22:58Z</time>
      </trkpt>
      <trkpt lat="45.54691" lon="6.78912">
        <ele>2166</ele>
        <time>2019-08-19T09:23:03Z</time>
      </trkpt>
      <trkpt lat="45.54683" lon="6.78923">
        <ele>2175</ele>
        <time>2019-08-19T09:23:13Z</time>
      </trkpt>
      <trkpt lat="45.54679" lon="6.7893">
        <ele>2175</ele>
        <time>2019-08-19T09:23:18Z</time>
      </trkpt>
      <trkpt lat="45.54674" lon="6.78934">
        <ele>2175</ele>
        <time>2019-08-19T09:23:24Z</time>
      </trkpt>
      <trkpt lat="45.54668" lon="6.78938">
        <ele>2176</ele>
        <time>2019-08-19T09:23:28Z</time>
      </trkpt>
      <trkpt lat="45.54662" lon="6.78943">
        <ele>2165</ele>
        <time>2019-08-19T09:23:38Z</time>
      </trkpt>
      <trkpt lat="45.54659" lon="6.78948">
        <ele>2166</ele>
        <time>2019-08-19T09:23:43Z</time>
      </trkpt>
      <trkpt lat="45.54655" lon="6.78953">
        <ele>2166</ele>
        <time>2019-08-19T09:23:48Z</time>
      </trkpt>
      <trkpt lat="45.54651" lon="6.78961">
        <ele>2167</ele>
        <time>2019-08-19T09:23:58Z</time>
      </trkpt>
      <trkpt lat="45.54647" lon="6.7897">
        <ele>2168</ele>
        <time>2019-08-19T09:24:03Z</time>
      </trkpt>
      <trkpt lat="45.5464" lon="6.78979">
        <ele>2168</ele>
        <time>2019-08-19T09:24:08Z</time>
      </trkpt>
      <trkpt lat="45.54631" lon="6.78987">
        <ele>2167</ele>
        <time>2019-08-19T09:24:14Z</time>
      </trkpt>
      <trkpt lat="45.54627" lon="6.78994">
        <ele>2167</ele>
        <time>2019-08-19T09:24:18Z</time>
      </trkpt>
      <trkpt lat="45.54625" lon="6.79">
        <ele>2180</ele>
        <time>2019-08-19T09:24:24Z</time>
      </trkpt>
      <trkpt lat="45.54622" lon="6.79007">
        <ele>2180</ele>
        <time>2019-08-19T09:24:28Z</time>
      </trkpt>
      <trkpt lat="45.54617" lon="6.79017">
        <ele>2179</ele>
        <time>2019-08-19T09:24:34Z</time>
      </trkpt>
      <trkpt lat="45.54613" lon="6.79022">
        <ele>2179</ele>
        <time>2019-08-19T09:24:38Z</time>
      </trkpt>
      <trkpt lat="45.54608" lon="6.79023">
        <ele>2178</ele>
        <time>2019-08-19T09:24:59Z</time>
      </trkpt>
      <trkpt lat="45.54605" lon="6.79028">
        <ele>2178</ele>
        <time>2019-08-19T09:26:23Z</time>
      </trkpt>
      <trkpt lat="45.54602" lon="6.79045">
        <ele>2181</ele>
        <time>2019-08-19T09:28:51Z</time>
      </trkpt>
      <trkpt lat="45.54599" lon="6.79058">
        <ele>2182</ele>
        <time>2019-08-19T09:28:56Z</time>
      </trkpt>
      <trkpt lat="45.54593" lon="6.79068">
        <ele>2181</ele>
        <time>2019-08-19T09:29:01Z</time>
      </trkpt>
      <trkpt lat="45.54587" lon="6.79071">
        <ele>2181</ele>
        <time>2019-08-19T09:29:06Z</time>
      </trkpt>
      <trkpt lat="45.54582" lon="6.7908">
        <ele>2174</ele>
        <time>2019-08-19T09:29:11Z</time>
      </trkpt>
      <trkpt lat="45.54578" lon="6.79088">
        <ele>2173</ele>
        <time>2019-08-19T09:29:16Z</time>
      </trkpt>
      <trkpt lat="45.54575" lon="6.79097">
        <ele>2168</ele>
        <time>2019-08-19T09:29:21Z</time>
      </trkpt>
      <trkpt lat="45.54573" lon="6.7911">
        <ele>2165</ele>
        <time>2019-08-19T09:29:26Z</time>
      </trkpt>
      <trkpt lat="45.54568" lon="6.79122">
        <ele>2164</ele>
        <time>2019-08-19T09:29:31Z</time>
      </trkpt>
      <trkpt lat="45.54564" lon="6.79131">
        <ele>2164</ele>
        <time>2019-08-19T09:29:35Z</time>
      </trkpt>
      <trkpt lat="45.54558" lon="6.79145">
        <ele>2165</ele>
        <time>2019-08-19T09:29:41Z</time>
      </trkpt>
      <trkpt lat="45.54556" lon="6.7916">
        <ele>2166</ele>
        <time>2019-08-19T09:29:46Z</time>
      </trkpt>
      <trkpt lat="45.54554" lon="6.79171">
        <ele>2178</ele>
        <time>2019-08-19T09:29:51Z</time>
      </trkpt>
      <trkpt lat="45.54554" lon="6.79183">
        <ele>2179</ele>
        <time>2019-08-19T09:29:56Z</time>
      </trkpt>
      <trkpt lat="45.54554" lon="6.79192">
        <ele>2179</ele>
        <time>2019-08-19T09:30:00Z</time>
      </trkpt>
      <trkpt lat="45.54554" lon="6.79204">
        <ele>2180</ele>
        <time>2019-08-19T09:30:05Z</time>
      </trkpt>
      <trkpt lat="45.54551" lon="6.79224">
        <ele>2183</ele>
        <time>2019-08-19T09:30:16Z</time>
      </trkpt>
      <trkpt lat="45.54546" lon="6.79234">
        <ele>2183</ele>
        <time>2019-08-19T09:30:26Z</time>
      </trkpt>
      <trkpt lat="45.54543" lon="6.79239">
        <ele>2182</ele>
        <time>2019-08-19T09:30:31Z</time>
      </trkpt>
      <trkpt lat="45.54539" lon="6.79244">
        <ele>2181</ele>
        <time>2019-08-19T09:30:36Z</time>
      </trkpt>
      <trkpt lat="45.54535" lon="6.79253">
        <ele>2198</ele>
        <time>2019-08-19T09:30:44Z</time>
      </trkpt>
      <trkpt lat="45.54533" lon="6.79265">
        <ele>2199</ele>
        <time>2019-08-19T09:30:54Z</time>
      </trkpt>
      <trkpt lat="45.54533" lon="6.79273">
        <ele>2201</ele>
        <time>2019-08-19T09:30:59Z</time>
      </trkpt>
      <trkpt lat="45.54531" lon="6.7928">
        <ele>2202</ele>
        <time>2019-08-19T09:31:08Z</time>
      </trkpt>
      <trkpt lat="45.54532" lon="6.7929">
        <ele>2204</ele>
        <time>2019-08-19T09:31:39Z</time>
      </trkpt>
      <trkpt lat="45.54535" lon="6.79295">
        <ele>2206</ele>
        <time>2019-08-19T09:31:44Z</time>
      </trkpt>
      <trkpt lat="45.54537" lon="6.79303">
        <ele>2208</ele>
        <time>2019-08-19T09:31:49Z</time>
      </trkpt>
      <trkpt lat="45.54538" lon="6.79312">
        <ele>2210</ele>
        <time>2019-08-19T09:31:53Z</time>
      </trkpt>
      <trkpt lat="45.54538" lon="6.79321">
        <ele>2211</ele>
        <time>2019-08-19T09:31:58Z</time>
      </trkpt>
      <trkpt lat="45.5453" lon="6.79347">
        <ele>2231</ele>
        <time>2019-08-19T09:32:09Z</time>
      </trkpt>
      <trkpt lat="45.54525" lon="6.79357">
        <ele>2232</ele>
        <time>2019-08-19T09:32:12Z</time>
      </trkpt>
      <trkpt lat="45.54517" lon="6.79365">
        <ele>2231</ele>
        <time>2019-08-19T09:32:17Z</time>
      </trkpt>
      <trkpt lat="45.54513" lon="6.79371">
        <ele>2232</ele>
        <time>2019-08-19T09:32:18Z</time>
      </trkpt>
      <trkpt lat="45.54508" lon="6.79375">
        <ele>2233</ele>
        <time>2019-08-19T09:32:22Z</time>
      </trkpt>
      <trkpt lat="45.54503" lon="6.79383">
        <ele>2234</ele>
        <time>2019-08-19T09:32:27Z</time>
      </trkpt>
      <trkpt lat="45.54501" lon="6.79391">
        <ele>2236</ele>
        <time>2019-08-19T09:32:32Z</time>
      </trkpt>
      <trkpt lat="45.54505" lon="6.79401">
        <ele>2237</ele>
        <time>2019-08-19T09:32:42Z</time>
      </trkpt>
      <trkpt lat="45.54508" lon="6.79409">
        <ele>2237</ele>
        <time>2019-08-19T09:32:52Z</time>
      </trkpt>
      <trkpt lat="45.54506" lon="6.79417">
        <ele>2243</ele>
        <time>2019-08-19T09:33:02Z</time>
      </trkpt>
      <trkpt lat="45.54503" lon="6.79426">
        <ele>2248</ele>
        <time>2019-08-19T09:33:12Z</time>
      </trkpt>
      <trkpt lat="45.54501" lon="6.79432">
        <ele>2253</ele>
        <time>2019-08-19T09:33:22Z</time>
      </trkpt>
      <trkpt lat="45.54498" lon="6.79437">
        <ele>2228</ele>
        <time>2019-08-19T09:33:32Z</time>
      </trkpt>
      <trkpt lat="45.54499" lon="6.79447">
        <ele>2230</ele>
        <time>2019-08-19T09:37:11Z</time>
      </trkpt>
      <trkpt lat="45.54501" lon="6.79454">
        <ele>2268</ele>
        <time>2019-08-19T09:37:17Z</time>
      </trkpt>
      <trkpt lat="45.54506" lon="6.79462">
        <ele>2272</ele>
        <time>2019-08-19T09:37:26Z</time>
      </trkpt>
      <trkpt lat="45.54507" lon="6.79472">
        <ele>2275</ele>
        <time>2019-08-19T09:37:41Z</time>
      </trkpt>
      <trkpt lat="45.54506" lon="6.7948">
        <ele>2276</ele>
        <time>2019-08-19T09:37:46Z</time>
      </trkpt>
      <trkpt lat="45.54501" lon="6.79494">
        <ele>2278</ele>
        <time>2019-08-19T09:37:51Z</time>
      </trkpt>
      <trkpt lat="45.54495" lon="6.79504">
        <ele>2277</ele>
        <time>2019-08-19T09:37:56Z</time>
      </trkpt>
      <trkpt lat="45.54489" lon="6.79513">
        <ele>2276</ele>
        <time>2019-08-19T09:38:01Z</time>
      </trkpt>
      <trkpt lat="45.54485" lon="6.79518">
        <ele>2275</ele>
        <time>2019-08-19T09:38:07Z</time>
      </trkpt>
      <trkpt lat="45.54481" lon="6.79528">
        <ele>2276</ele>
        <time>2019-08-19T09:38:09Z</time>
      </trkpt>
      <trkpt lat="45.54482" lon="6.79535">
        <ele>2279</ele>
        <time>2019-08-19T09:38:20Z</time>
      </trkpt>
      <trkpt lat="45.54486" lon="6.79534">
        <ele>2279</ele>
        <time>2019-08-19T09:38:25Z</time>
      </trkpt>
      <trkpt lat="45.5449" lon="6.79529">
        <ele>2279</ele>
        <time>2019-08-19T09:38:30Z</time>
      </trkpt>
      <trkpt lat="45.54495" lon="6.79524">
        <ele>2278</ele>
        <time>2019-08-19T09:38:35Z</time>
      </trkpt>
      <trkpt lat="45.54496" lon="6.79533">
        <ele>2281</ele>
        <time>2019-08-19T09:38:50Z</time>
      </trkpt>
      <trkpt lat="45.54496" lon="6.79545">
        <ele>2287</ele>
        <time>2019-08-19T09:39:00Z</time>
      </trkpt>
      <trkpt lat="45.54498" lon="6.79551">
        <ele>2291</ele>
        <time>2019-08-19T09:39:09Z</time>
      </trkpt>
      <trkpt lat="45.54504" lon="6.79552">
        <ele>2317</ele>
        <time>2019-08-19T09:39:20Z</time>
      </trkpt>
      <trkpt lat="45.54503" lon="6.79561">
        <ele>2322</ele>
        <time>2019-08-19T09:39:30Z</time>
      </trkpt>
      <trkpt lat="45.54508" lon="6.79563">
        <ele>2323</ele>
        <time>2019-08-19T09:39:40Z</time>
      </trkpt>
      <trkpt lat="45.54514" lon="6.79557">
        <ele>2319</ele>
        <time>2019-08-19T09:39:50Z</time>
      </trkpt>
      <trkpt lat="45.54514" lon="6.79567">
        <ele>2324</ele>
        <time>2019-08-19T09:40:05Z</time>
      </trkpt>
      <trkpt lat="45.54511" lon="6.79582">
        <ele>2329</ele>
        <time>2019-08-19T09:40:15Z</time>
      </trkpt>
      <trkpt lat="45.54507" lon="6.79589">
        <ele>2338</ele>
        <time>2019-08-19T09:40:19Z</time>
      </trkpt>
      <trkpt lat="45.54505" lon="6.79594">
        <ele>2339</ele>
        <time>2019-08-19T09:40:25Z</time>
      </trkpt>
      <trkpt lat="45.54511" lon="6.79597">
        <ele>2339</ele>
        <time>2019-08-19T09:40:55Z</time>
      </trkpt>
      <trkpt lat="45.54517" lon="6.79595">
        <ele>2340</ele>
        <time>2019-08-19T09:41:00Z</time>
      </trkpt>
      <trkpt lat="45.54523" lon="6.79596">
        <ele>2340</ele>
        <time>2019-08-19T09:41:05Z</time>
      </trkpt>
      <trkpt lat="45.54533" lon="6.79601">
        <ele>2341</ele>
        <time>2019-08-19T09:41:15Z</time>
      </trkpt>
      <trkpt lat="45.54535" lon="6.79607">
        <ele>2341</ele>
        <time>2019-08-19T09:41:20Z</time>
      </trkpt>
      <trkpt lat="45.54536" lon="6.79616">
        <ele>2342</ele>
        <time>2019-08-19T09:41:29Z</time>
      </trkpt>
      <trkpt lat="45.54534" lon="6.79622">
        <ele>2342</ele>
        <time>2019-08-19T09:41:35Z</time>
      </trkpt>
      <trkpt lat="45.54532" lon="6.79632">
        <ele>2343</ele>
        <time>2019-08-19T09:41:44Z</time>
      </trkpt>
      <trkpt lat="45.54527" lon="6.79643">
        <ele>2342</ele>
        <time>2019-08-19T09:41:54Z</time>
      </trkpt>
      <trkpt lat="45.54525" lon="6.79652">
        <ele>2341</ele>
        <time>2019-08-19T09:41:59Z</time>
      </trkpt>
      <trkpt lat="45.54522" lon="6.79658">
        <ele>2340</ele>
        <time>2019-08-19T09:42:10Z</time>
      </trkpt>
      <trkpt lat="45.54519" lon="6.79667">
        <ele>2339</ele>
        <time>2019-08-19T09:42:17Z</time>
      </trkpt>
      <trkpt lat="45.54514" lon="6.79675">
        <ele>2350</ele>
        <time>2019-08-19T09:42:28Z</time>
      </trkpt>
      <trkpt lat="45.5451" lon="6.79678">
        <ele>2349</ele>
        <time>2019-08-19T09:42:28Z</time>
      </trkpt>
      <trkpt lat="45.54507" lon="6.79685">
        <ele>2352</ele>
        <time>2019-08-19T09:42:33Z</time>
      </trkpt>
      <trkpt lat="45.54504" lon="6.7969">
        <ele>2355</ele>
        <time>2019-08-19T09:42:37Z</time>
      </trkpt>
      <trkpt lat="45.54502" lon="6.79696">
        <ele>2358</ele>
        <time>2019-08-19T09:42:49Z</time>
      </trkpt>
      <trkpt lat="45.54503" lon="6.79705">
        <ele>2362</ele>
        <time>2019-08-19T09:43:01Z</time>
      </trkpt>
      <trkpt lat="45.54505" lon="6.79713">
        <ele>2365</ele>
        <time>2019-08-19T09:43:10Z</time>
      </trkpt>
      <trkpt lat="45.54503" lon="6.79719">
        <ele>2367</ele>
        <time>2019-08-19T09:43:29Z</time>
      </trkpt>
      <trkpt lat="45.54497" lon="6.79728">
        <ele>2359</ele>
        <time>2019-08-19T09:43:44Z</time>
      </trkpt>
      <trkpt lat="45.54493" lon="6.79732">
        <ele>2361</ele>
        <time>2019-08-19T09:43:49Z</time>
      </trkpt>
      <trkpt lat="45.54488" lon="6.79735">
        <ele>2361</ele>
        <time>2019-08-19T09:43:53Z</time>
      </trkpt>
      <trkpt lat="45.54485" lon="6.7974">
        <ele>2362</ele>
        <time>2019-08-19T09:43:58Z</time>
      </trkpt>
      <trkpt lat="45.54488" lon="6.79746">
        <ele>2364</ele>
        <time>2019-08-19T09:44:18Z</time>
      </trkpt>
      <trkpt lat="45.54494" lon="6.7975">
        <ele>2375</ele>
        <time>2019-08-19T09:44:23Z</time>
      </trkpt>
      <trkpt lat="45.54498" lon="6.79755">
        <ele>2374</ele>
        <time>2019-08-19T09:44:27Z</time>
      </trkpt>
      <trkpt lat="45.54501" lon="6.7976">
        <ele>2382</ele>
        <time>2019-08-19T09:44:32Z</time>
      </trkpt>
      <trkpt lat="45.54501" lon="6.79768">
        <ele>2387</ele>
        <time>2019-08-19T09:44:42Z</time>
      </trkpt>
      <trkpt lat="45.54497" lon="6.79772">
        <ele>2381</ele>
        <time>2019-08-19T09:45:05Z</time>
      </trkpt>
      <trkpt lat="45.54492" lon="6.79775">
        <ele>2382</ele>
        <time>2019-08-19T09:45:10Z</time>
      </trkpt>
      <trkpt lat="45.54485" lon="6.79781">
        <ele>2384</ele>
        <time>2019-08-19T09:45:20Z</time>
      </trkpt>
      <trkpt lat="45.54481" lon="6.79785">
        <ele>2385</ele>
        <time>2019-08-19T09:45:25Z</time>
      </trkpt>
      <trkpt lat="45.54474" lon="6.79789">
        <ele>2386</ele>
        <time>2019-08-19T09:45:35Z</time>
      </trkpt>
      <trkpt lat="45.54469" lon="6.79793">
        <ele>2386</ele>
        <time>2019-08-19T09:45:40Z</time>
      </trkpt>
      <trkpt lat="45.54462" lon="6.79796">
        <ele>2386</ele>
        <time>2019-08-19T09:45:50Z</time>
      </trkpt>
      <trkpt lat="45.54457" lon="6.79805">
        <ele>2387</ele>
        <time>2019-08-19T09:46:00Z</time>
      </trkpt>
      <trkpt lat="45.54458" lon="6.79813">
        <ele>2388</ele>
        <time>2019-08-19T09:46:10Z</time>
      </trkpt>
      <trkpt lat="45.54457" lon="6.7982">
        <ele>2388</ele>
        <time>2019-08-19T09:46:19Z</time>
      </trkpt>
      <trkpt lat="45.5446" lon="6.79822">
        <ele>2388</ele>
        <time>2019-08-19T09:47:12Z</time>
      </trkpt>
      <trkpt lat="45.54464" lon="6.79817">
        <ele>2388</ele>
        <time>2019-08-19T09:47:37Z</time>
      </trkpt>
      <trkpt lat="45.5447" lon="6.79811">
        <ele>2388</ele>
        <time>2019-08-19T09:47:42Z</time>
      </trkpt>
      <trkpt lat="45.54475" lon="6.79807">
        <ele>2388</ele>
        <time>2019-08-19T09:47:43Z</time>
      </trkpt>
      <trkpt lat="45.5448" lon="6.79801">
        <ele>2388</ele>
        <time>2019-08-19T09:47:47Z</time>
      </trkpt>
      <trkpt lat="45.54485" lon="6.79796">
        <ele>2387</ele>
        <time>2019-08-19T09:47:48Z</time>
      </trkpt>
      <trkpt lat="45.54508" lon="6.7976">
        <ele>2384</ele>
        <time>2019-08-19T09:47:53Z</time>
      </trkpt>
      <trkpt lat="45.54512" lon="6.79749">
        <ele>2371</ele>
        <time>2019-08-19T09:47:57Z</time>
      </trkpt>
      <trkpt lat="45.54516" lon="6.79743">
        <ele>2371</ele>
        <time>2019-08-19T09:47:58Z</time>
      </trkpt>
      <trkpt lat="45.54507" lon="6.79732">
        <ele>2370</ele>
        <time>2019-08-19T09:48:12Z</time>
      </trkpt>
      <trkpt lat="45.54504" lon="6.79714">
        <ele>2365</ele>
        <time>2019-08-19T09:48:27Z</time>
      </trkpt>
      <trkpt lat="45.54505" lon="6.79707">
        <ele>2363</ele>
        <time>2019-08-19T09:48:41Z</time>
      </trkpt>
      <trkpt lat="45.5451" lon="6.79691">
        <ele>2357</ele>
        <time>2019-08-19T09:48:48Z</time>
      </trkpt>
      <trkpt lat="45.54503" lon="6.79684">
        <ele>2351</ele>
        <time>2019-08-19T09:49:02Z</time>
      </trkpt>
      <trkpt lat="45.54501" lon="6.79661">
        <ele>2334</ele>
        <time>2019-08-19T09:49:17Z</time>
      </trkpt>
      <trkpt lat="45.54512" lon="6.79669">
        <ele>2346</ele>
        <time>2019-08-19T09:49:22Z</time>
      </trkpt>
      <trkpt lat="45.54522" lon="6.79676">
        <ele>2355</ele>
        <time>2019-08-19T09:49:28Z</time>
      </trkpt>
      <trkpt lat="45.5453" lon="6.7968">
        <ele>2360</ele>
        <time>2019-08-19T09:49:31Z</time>
      </trkpt>
      <trkpt lat="45.54528" lon="6.7967">
        <ele>2357</ele>
        <time>2019-08-19T09:49:51Z</time>
      </trkpt>
      <trkpt lat="45.54524" lon="6.79668">
        <ele>2355</ele>
        <time>2019-08-19T09:50:06Z</time>
      </trkpt>
      <trkpt lat="45.54516" lon="6.79673">
        <ele>2350</ele>
        <time>2019-08-19T09:50:21Z</time>
      </trkpt>
      <trkpt lat="45.54512" lon="6.79677">
        <ele>2349</ele>
        <time>2019-08-19T09:50:29Z</time>
      </trkpt>
      <trkpt lat="45.54508" lon="6.79681">
        <ele>2350</ele>
        <time>2019-08-19T09:50:34Z</time>
      </trkpt>
      <trkpt lat="45.54503" lon="6.79685">
        <ele>2352</ele>
        <time>2019-08-19T09:50:39Z</time>
      </trkpt>
      <trkpt lat="45.545" lon="6.79692">
        <ele>2356</ele>
        <time>2019-08-19T09:50:44Z</time>
      </trkpt>
      <trkpt lat="45.54496" lon="6.79699">
        <ele>2348</ele>
        <time>2019-08-19T09:50:54Z</time>
      </trkpt>
      <trkpt lat="45.54489" lon="6.79701">
        <ele>2349</ele>
        <time>2019-08-19T09:51:04Z</time>
      </trkpt>
      <trkpt lat="45.54492" lon="6.79707">
        <ele>2351</ele>
        <time>2019-08-19T09:51:37Z</time>
      </trkpt>
      <trkpt lat="45.54492" lon="6.79715">
        <ele>2354</ele>
        <time>2019-08-19T09:51:47Z</time>
      </trkpt>
      <trkpt lat="45.54498" lon="6.79716">
        <ele>2354</ele>
        <time>2019-08-19T09:51:57Z</time>
      </trkpt>
      <trkpt lat="45.54504" lon="6.79716">
        <ele>2366</ele>
        <time>2019-08-19T09:52:07Z</time>
      </trkpt>
      <trkpt lat="45.54505" lon="6.79726">
        <ele>2368</ele>
        <time>2019-08-19T09:52:25Z</time>
      </trkpt>
      <trkpt lat="45.54511" lon="6.79725">
        <ele>2369</ele>
        <time>2019-08-19T09:52:49Z</time>
      </trkpt>
      <trkpt lat="45.54508" lon="6.7973">
        <ele>2369</ele>
        <time>2019-08-19T09:53:12Z</time>
      </trkpt>
      <trkpt lat="45.54505" lon="6.79735">
        <ele>2370</ele>
        <time>2019-08-19T09:53:20Z</time>
      </trkpt>
      <trkpt lat="45.54502" lon="6.7974">
        <ele>2370</ele>
        <time>2019-08-19T09:53:45Z</time>
      </trkpt>
      <trkpt lat="45.54504" lon="6.79747">
        <ele>2371</ele>
        <time>2019-08-19T09:54:03Z</time>
      </trkpt>
      <trkpt lat="45.54508" lon="6.79751">
        <ele>2380</ele>
        <time>2019-08-19T09:54:13Z</time>
      </trkpt>
      <trkpt lat="45.54509" lon="6.7976">
        <ele>2385</ele>
        <time>2019-08-19T09:56:33Z</time>
      </trkpt>
      <trkpt lat="45.54509" lon="6.79769">
        <ele>2390</ele>
        <time>2019-08-19T09:56:48Z</time>
      </trkpt>
      <trkpt lat="45.54506" lon="6.79776">
        <ele>2392</ele>
        <time>2019-08-19T09:57:03Z</time>
      </trkpt>
      <trkpt lat="45.54499" lon="6.79778">
        <ele>2382</ele>
        <time>2019-08-19T09:57:16Z</time>
      </trkpt>
      <trkpt lat="45.54491" lon="6.79777">
        <ele>2382</ele>
        <time>2019-08-19T09:57:26Z</time>
      </trkpt>
      <trkpt lat="45.54486" lon="6.79779">
        <ele>2383</ele>
        <time>2019-08-19T09:57:36Z</time>
      </trkpt>
      <trkpt lat="45.54482" lon="6.79782">
        <ele>2384</ele>
        <time>2019-08-19T09:57:46Z</time>
      </trkpt>
      <trkpt lat="45.54477" lon="6.79788">
        <ele>2385</ele>
        <time>2019-08-19T09:57:54Z</time>
      </trkpt>
      <trkpt lat="45.54474" lon="6.79793">
        <ele>2386</ele>
        <time>2019-08-19T09:57:59Z</time>
      </trkpt>
      <trkpt lat="45.54469" lon="6.79796">
        <ele>2386</ele>
        <time>2019-08-19T09:58:19Z</time>
      </trkpt>
      <trkpt lat="45.54464" lon="6.79795">
        <ele>2386</ele>
        <time>2019-08-19T09:59:26Z</time>
      </trkpt>
      <trkpt lat="45.54466" lon="6.79801">
        <ele>2387</ele>
        <time>2019-08-19T09:59:52Z</time>
      </trkpt>
      <trkpt lat="45.54462" lon="6.79808">
        <ele>2388</ele>
        <time>2019-08-19T10:00:02Z</time>
      </trkpt>
      <trkpt lat="45.54461" lon="6.79815">
        <ele>2388</ele>
        <time>2019-08-19T10:00:27Z</time>
      </trkpt>
      <trkpt lat="45.54455" lon="6.79815">
        <ele>2388</ele>
        <time>2019-08-19T10:00:37Z</time>
      </trkpt>
      <trkpt lat="45.54456" lon="6.79823">
        <ele>2388</ele>
        <time>2019-08-19T10:00:51Z</time>
      </trkpt>
      <trkpt lat="45.54455" lon="6.79831">
        <ele>2388</ele>
        <time>2019-08-19T10:01:26Z</time>
      </trkpt>
      <trkpt lat="45.54463" lon="6.79831">
        <ele>2389</ele>
        <time>2019-08-19T10:04:31Z</time>
      </trkpt>
      <trkpt lat="45.54472" lon="6.79828">
        <ele>2390</ele>
        <time>2019-08-19T10:04:36Z</time>
      </trkpt>
      <trkpt lat="45.5448" lon="6.79827">
        <ele>2392</ele>
        <time>2019-08-19T10:04:41Z</time>
      </trkpt>
      <trkpt lat="45.5449" lon="6.79826">
        <ele>2394</ele>
        <time>2019-08-19T10:04:46Z</time>
      </trkpt>
      <trkpt lat="45.54498" lon="6.79825">
        <ele>2396</ele>
        <time>2019-08-19T10:04:51Z</time>
      </trkpt>
      <trkpt lat="45.54505" lon="6.79826">
        <ele>2401</ele>
        <time>2019-08-19T10:04:56Z</time>
      </trkpt>
      <trkpt lat="45.54514" lon="6.7983">
        <ele>2402</ele>
        <time>2019-08-19T10:05:01Z</time>
      </trkpt>
      <trkpt lat="45.54518" lon="6.79834">
        <ele>2409</ele>
        <time>2019-08-19T10:05:06Z</time>
      </trkpt>
      <trkpt lat="45.5452" lon="6.79839">
        <ele>2411</ele>
        <time>2019-08-19T10:05:11Z</time>
      </trkpt>
      <trkpt lat="45.54524" lon="6.79846">
        <ele>2412</ele>
        <time>2019-08-19T10:05:16Z</time>
      </trkpt>
      <trkpt lat="45.54528" lon="6.79851">
        <ele>2414</ele>
        <time>2019-08-19T10:05:21Z</time>
      </trkpt>
      <trkpt lat="45.54532" lon="6.79857">
        <ele>2415</ele>
        <time>2019-08-19T10:05:26Z</time>
      </trkpt>
      <trkpt lat="45.54535" lon="6.79864">
        <ele>2416</ele>
        <time>2019-08-19T10:05:37Z</time>
      </trkpt>
      <trkpt lat="45.54536" lon="6.79872">
        <ele>2416</ele>
        <time>2019-08-19T10:05:47Z</time>
      </trkpt>
      <trkpt lat="45.54541" lon="6.79879">
        <ele>2417</ele>
        <time>2019-08-19T10:05:52Z</time>
      </trkpt>
      <trkpt lat="45.54544" lon="6.79885">
        <ele>2418</ele>
        <time>2019-08-19T10:05:56Z</time>
      </trkpt>
      <trkpt lat="45.54548" lon="6.7989">
        <ele>2418</ele>
        <time>2019-08-19T10:06:01Z</time>
      </trkpt>
      <trkpt lat="45.54553" lon="6.79893">
        <ele>2419</ele>
        <time>2019-08-19T10:06:06Z</time>
      </trkpt>
      <trkpt lat="45.54564" lon="6.79879">
        <ele>2421</ele>
        <time>2019-08-19T10:06:12Z</time>
      </trkpt>
      <trkpt lat="45.54571" lon="6.79878">
        <ele>2422</ele>
        <time>2019-08-19T10:06:17Z</time>
      </trkpt>
      <trkpt lat="45.54577" lon="6.79879">
        <ele>2422</ele>
        <time>2019-08-19T10:06:22Z</time>
      </trkpt>
      <trkpt lat="45.54583" lon="6.79888">
        <ele>2442</ele>
        <time>2019-08-19T10:06:32Z</time>
      </trkpt>
      <trkpt lat="45.54587" lon="6.79896">
        <ele>2441</ele>
        <time>2019-08-19T10:06:36Z</time>
      </trkpt>
      <trkpt lat="45.5459" lon="6.79903">
        <ele>2439</ele>
        <time>2019-08-19T10:06:41Z</time>
      </trkpt>
      <trkpt lat="45.54593" lon="6.79907">
        <ele>2439</ele>
        <time>2019-08-19T10:06:46Z</time>
      </trkpt>
      <trkpt lat="45.54601" lon="6.79913">
        <ele>2441</ele>
        <time>2019-08-19T10:06:54Z</time>
      </trkpt>
      <trkpt lat="45.54606" lon="6.79919">
        <ele>2439</ele>
        <time>2019-08-19T10:06:59Z</time>
      </trkpt>
      <trkpt lat="45.54609" lon="6.79927">
        <ele>2440</ele>
        <time>2019-08-19T10:07:04Z</time>
      </trkpt>
      <trkpt lat="45.54613" lon="6.79937">
        <ele>2442</ele>
        <time>2019-08-19T10:07:09Z</time>
      </trkpt>
      <trkpt lat="45.54615" lon="6.79943">
        <ele>2442</ele>
        <time>2019-08-19T10:07:14Z</time>
      </trkpt>
      <trkpt lat="45.54618" lon="6.79953">
        <ele>2443</ele>
        <time>2019-08-19T10:07:24Z</time>
      </trkpt>
      <trkpt lat="45.54626" lon="6.79961">
        <ele>2444</ele>
        <time>2019-08-19T10:07:34Z</time>
      </trkpt>
      <trkpt lat="45.5463" lon="6.79965">
        <ele>2444</ele>
        <time>2019-08-19T10:07:39Z</time>
      </trkpt>
      <trkpt lat="45.54636" lon="6.79969">
        <ele>2445</ele>
        <time>2019-08-19T10:07:44Z</time>
      </trkpt>
      <trkpt lat="45.54639" lon="6.79973">
        <ele>2446</ele>
        <time>2019-08-19T10:07:49Z</time>
      </trkpt>
      <trkpt lat="45.54648" lon="6.79983">
        <ele>2447</ele>
        <time>2019-08-19T10:07:59Z</time>
      </trkpt>
      <trkpt lat="45.54653" lon="6.79987">
        <ele>2449</ele>
        <time>2019-08-19T10:08:04Z</time>
      </trkpt>
      <trkpt lat="45.54658" lon="6.79991">
        <ele>2450</ele>
        <time>2019-08-19T10:08:09Z</time>
      </trkpt>
      <trkpt lat="45.54664" lon="6.79995">
        <ele>2452</ele>
        <time>2019-08-19T10:08:19Z</time>
      </trkpt>
      <trkpt lat="45.54668" lon="6.79998">
        <ele>2456</ele>
        <time>2019-08-19T10:08:24Z</time>
      </trkpt>
      <trkpt lat="45.54673" lon="6.80001">
        <ele>2459</ele>
        <time>2019-08-19T10:08:28Z</time>
      </trkpt>
      <trkpt lat="45.54677" lon="6.80003">
        <ele>2462</ele>
        <time>2019-08-19T10:08:33Z</time>
      </trkpt>
      <trkpt lat="45.54683" lon="6.80004">
        <ele>2465</ele>
        <time>2019-08-19T10:08:39Z</time>
      </trkpt>
      <trkpt lat="45.54688" lon="6.80012">
        <ele>2468</ele>
        <time>2019-08-19T10:08:54Z</time>
      </trkpt>
      <trkpt lat="45.5469" lon="6.80018">
        <ele>2470</ele>
        <time>2019-08-19T10:09:03Z</time>
      </trkpt>
      <trkpt lat="45.54695" lon="6.80019">
        <ele>2472</ele>
        <time>2019-08-19T10:09:19Z</time>
      </trkpt>
      <trkpt lat="45.547" lon="6.80021">
        <ele>2473</ele>
        <time>2019-08-19T10:09:34Z</time>
      </trkpt>
      <trkpt lat="45.54704" lon="6.80024">
        <ele>2475</ele>
        <time>2019-08-19T10:09:54Z</time>
      </trkpt>
      <trkpt lat="45.54714" lon="6.80031">
        <ele>2477</ele>
        <time>2019-08-19T10:10:04Z</time>
      </trkpt>
      <trkpt lat="45.54722" lon="6.80037">
        <ele>2479</ele>
        <time>2019-08-19T10:10:14Z</time>
      </trkpt>
      <trkpt lat="45.54727" lon="6.80041">
        <ele>2480</ele>
        <time>2019-08-19T10:10:19Z</time>
      </trkpt>
      <trkpt lat="45.54731" lon="6.80047">
        <ele>2481</ele>
        <time>2019-08-19T10:10:24Z</time>
      </trkpt>
      <trkpt lat="45.54738" lon="6.80053">
        <ele>2482</ele>
        <time>2019-08-19T10:10:29Z</time>
      </trkpt>
      <trkpt lat="45.54743" lon="6.80057">
        <ele>2483</ele>
        <time>2019-08-19T10:10:34Z</time>
      </trkpt>
      <trkpt lat="45.54749" lon="6.80052">
        <ele>2483</ele>
        <time>2019-08-19T10:10:44Z</time>
      </trkpt>
      <trkpt lat="45.54748" lon="6.80045">
        <ele>2483</ele>
        <time>2019-08-19T10:10:49Z</time>
      </trkpt>
      <trkpt lat="45.54747" lon="6.80035">
        <ele>2483</ele>
        <time>2019-08-19T10:10:59Z</time>
      </trkpt>
      <trkpt lat="45.54747" lon="6.80027">
        <ele>2484</ele>
        <time>2019-08-19T10:11:09Z</time>
      </trkpt>
      <trkpt lat="45.5475" lon="6.80021">
        <ele>2485</ele>
        <time>2019-08-19T10:11:19Z</time>
      </trkpt>
      <trkpt lat="45.54753" lon="6.80012">
        <ele>2504</ele>
        <time>2019-08-19T10:11:34Z</time>
      </trkpt>
      <trkpt lat="45.54755" lon="6.80005">
        <ele>2501</ele>
        <time>2019-08-19T10:11:39Z</time>
      </trkpt>
      <trkpt lat="45.54756" lon="6.79998">
        <ele>2501</ele>
        <time>2019-08-19T10:11:44Z</time>
      </trkpt>
      <trkpt lat="45.54757" lon="6.79991">
        <ele>2505</ele>
        <time>2019-08-19T10:11:49Z</time>
      </trkpt>
      <trkpt lat="45.54759" lon="6.79985">
        <ele>2508</ele>
        <time>2019-08-19T10:11:54Z</time>
      </trkpt>
      <trkpt lat="45.5476" lon="6.79978">
        <ele>2511</ele>
        <time>2019-08-19T10:12:04Z</time>
      </trkpt>
      <trkpt lat="45.54758" lon="6.79962">
        <ele>2514</ele>
        <time>2019-08-19T10:12:14Z</time>
      </trkpt>
      <trkpt lat="45.54755" lon="6.79957">
        <ele>2514</ele>
        <time>2019-08-19T10:12:19Z</time>
      </trkpt>
      <trkpt lat="45.54752" lon="6.7995">
        <ele>2514</ele>
        <time>2019-08-19T10:12:24Z</time>
      </trkpt>
      <trkpt lat="45.5475" lon="6.79942">
        <ele>2492</ele>
        <time>2019-08-19T10:12:29Z</time>
      </trkpt>
      <trkpt lat="45.54747" lon="6.79932">
        <ele>2496</ele>
        <time>2019-08-19T10:12:34Z</time>
      </trkpt>
      <trkpt lat="45.54742" lon="6.79918">
        <ele>2501</ele>
        <time>2019-08-19T10:12:39Z</time>
      </trkpt>
      <trkpt lat="45.5474" lon="6.79906">
        <ele>2499</ele>
        <time>2019-08-19T10:12:43Z</time>
      </trkpt>
      <trkpt lat="45.54737" lon="6.79893">
        <ele>2495</ele>
        <time>2019-08-19T10:12:49Z</time>
      </trkpt>
      <trkpt lat="45.54736" lon="6.79884">
        <ele>2494</ele>
        <time>2019-08-19T10:12:53Z</time>
      </trkpt>
      <trkpt lat="45.54734" lon="6.79877">
        <ele>2493</ele>
        <time>2019-08-19T10:12:59Z</time>
      </trkpt>
      <trkpt lat="45.54733" lon="6.79867">
        <ele>2493</ele>
        <time>2019-08-19T10:13:04Z</time>
      </trkpt>
      <trkpt lat="45.54732" lon="6.79859">
        <ele>2493</ele>
        <time>2019-08-19T10:13:08Z</time>
      </trkpt>
      <trkpt lat="45.54728" lon="6.79847">
        <ele>2493</ele>
        <time>2019-08-19T10:13:14Z</time>
      </trkpt>
      <trkpt lat="45.54725" lon="6.79841">
        <ele>2493</ele>
        <time>2019-08-19T10:13:19Z</time>
      </trkpt>
      <trkpt lat="45.54722" lon="6.79836">
        <ele>2492</ele>
        <time>2019-08-19T10:13:25Z</time>
      </trkpt>
      <trkpt lat="45.54725" lon="6.79841">
        <ele>2493</ele>
        <time>2019-08-19T10:14:14Z</time>
      </trkpt>
      <trkpt lat="45.54721" lon="6.79843">
        <ele>2491</ele>
        <time>2019-08-19T10:18:08Z</time>
      </trkpt>
      <trkpt lat="45.54717" lon="6.79846">
        <ele>2490</ele>
        <time>2019-08-19T10:20:28Z</time>
      </trkpt>
      <trkpt lat="45.54723" lon="6.79846">
        <ele>2492</ele>
        <time>2019-08-19T10:26:05Z</time>
      </trkpt>
      <trkpt lat="45.54728" lon="6.79852">
        <ele>2493</ele>
        <time>2019-08-19T10:26:20Z</time>
      </trkpt>
      <trkpt lat="45.54734" lon="6.7986">
        <ele>2493</ele>
        <time>2019-08-19T10:26:24Z</time>
      </trkpt>
      <trkpt lat="45.54737" lon="6.7987">
        <ele>2493</ele>
        <time>2019-08-19T10:26:34Z</time>
      </trkpt>
      <trkpt lat="45.54741" lon="6.79876">
        <ele>2494</ele>
        <time>2019-08-19T10:26:54Z</time>
      </trkpt>
      <trkpt lat="45.54746" lon="6.79881">
        <ele>2495</ele>
        <time>2019-08-19T10:26:59Z</time>
      </trkpt>
      <trkpt lat="45.54751" lon="6.79887">
        <ele>2514</ele>
        <time>2019-08-19T10:27:04Z</time>
      </trkpt>
      <trkpt lat="45.54755" lon="6.79892">
        <ele>2514</ele>
        <time>2019-08-19T10:27:09Z</time>
      </trkpt>
      <trkpt lat="45.54759" lon="6.79897">
        <ele>2514</ele>
        <time>2019-08-19T10:27:14Z</time>
      </trkpt>
      <trkpt lat="45.54763" lon="6.79901">
        <ele>2514</ele>
        <time>2019-08-19T10:27:19Z</time>
      </trkpt>
      <trkpt lat="45.54768" lon="6.79908">
        <ele>2514</ele>
        <time>2019-08-19T10:27:24Z</time>
      </trkpt>
      <trkpt lat="45.54772" lon="6.79914">
        <ele>2515</ele>
        <time>2019-08-19T10:27:29Z</time>
      </trkpt>
      <trkpt lat="45.54781" lon="6.79922">
        <ele>2519</ele>
        <time>2019-08-19T10:27:39Z</time>
      </trkpt>
      <trkpt lat="45.54788" lon="6.79929">
        <ele>2521</ele>
        <time>2019-08-19T10:28:00Z</time>
      </trkpt>
      <trkpt lat="45.54789" lon="6.79935">
        <ele>2521</ele>
        <time>2019-08-19T10:28:04Z</time>
      </trkpt>
      <trkpt lat="45.54792" lon="6.79942">
        <ele>2521</ele>
        <time>2019-08-19T10:28:09Z</time>
      </trkpt>
      <trkpt lat="45.548" lon="6.79951">
        <ele>2523</ele>
        <time>2019-08-19T10:28:14Z</time>
      </trkpt>
      <trkpt lat="45.54807" lon="6.79958">
        <ele>2524</ele>
        <time>2019-08-19T10:28:20Z</time>
      </trkpt>
      <trkpt lat="45.54813" lon="6.79966">
        <ele>2526</ele>
        <time>2019-08-19T10:28:25Z</time>
      </trkpt>
      <trkpt lat="45.5482" lon="6.79973">
        <ele>2528</ele>
        <time>2019-08-19T10:28:30Z</time>
      </trkpt>
      <trkpt lat="45.5483" lon="6.79981">
        <ele>2532</ele>
        <time>2019-08-19T10:28:35Z</time>
      </trkpt>
      <trkpt lat="45.54835" lon="6.79985">
        <ele>2542</ele>
        <time>2019-08-19T10:28:39Z</time>
      </trkpt>
      <trkpt lat="45.54839" lon="6.79989">
        <ele>2542</ele>
        <time>2019-08-19T10:28:45Z</time>
      </trkpt>
      <trkpt lat="45.54845" lon="6.79997">
        <ele>2542</ele>
        <time>2019-08-19T10:28:50Z</time>
      </trkpt>
      <trkpt lat="45.54852" lon="6.80007">
        <ele>2544</ele>
        <time>2019-08-19T10:28:54Z</time>
      </trkpt>
      <trkpt lat="45.54858" lon="6.80016">
        <ele>2544</ele>
        <time>2019-08-19T10:29:00Z</time>
      </trkpt>
      <trkpt lat="45.54864" lon="6.80022">
        <ele>2544</ele>
        <time>2019-08-19T10:29:05Z</time>
      </trkpt>
      <trkpt lat="45.54868" lon="6.80027">
        <ele>2544</ele>
        <time>2019-08-19T10:29:09Z</time>
      </trkpt>
      <trkpt lat="45.54872" lon="6.80032">
        <ele>2544</ele>
        <time>2019-08-19T10:29:15Z</time>
      </trkpt>
      <trkpt lat="45.54878" lon="6.80041">
        <ele>2544</ele>
        <time>2019-08-19T10:29:25Z</time>
      </trkpt>
      <trkpt lat="45.54881" lon="6.8005">
        <ele>2544</ele>
        <time>2019-08-19T10:29:35Z</time>
      </trkpt>
      <trkpt lat="45.54884" lon="6.80059">
        <ele>2544</ele>
        <time>2019-08-19T10:29:40Z</time>
      </trkpt>
      <trkpt lat="45.54888" lon="6.80067">
        <ele>2544</ele>
        <time>2019-08-19T10:29:45Z</time>
      </trkpt>
      <trkpt lat="45.54894" lon="6.80078">
        <ele>2544</ele>
        <time>2019-08-19T10:29:50Z</time>
      </trkpt>
      <trkpt lat="45.54898" lon="6.80086">
        <ele>2546</ele>
        <time>2019-08-19T10:29:55Z</time>
      </trkpt>
      <trkpt lat="45.54899" lon="6.80094">
        <ele>2546</ele>
        <time>2019-08-19T10:30:00Z</time>
      </trkpt>
      <trkpt lat="45.549" lon="6.80104">
        <ele>2546</ele>
        <time>2019-08-19T10:30:05Z</time>
      </trkpt>
      <trkpt lat="45.54902" lon="6.80111">
        <ele>2546</ele>
        <time>2019-08-19T10:30:10Z</time>
      </trkpt>
      <trkpt lat="45.54905" lon="6.80119">
        <ele>2546</ele>
        <time>2019-08-19T10:30:15Z</time>
      </trkpt>
      <trkpt lat="45.54907" lon="6.80127">
        <ele>2547</ele>
        <time>2019-08-19T10:30:20Z</time>
      </trkpt>
      <trkpt lat="45.5491" lon="6.80133">
        <ele>2547</ele>
        <time>2019-08-19T10:30:25Z</time>
      </trkpt>
      <trkpt lat="45.54914" lon="6.80137">
        <ele>2547</ele>
        <time>2019-08-19T10:30:29Z</time>
      </trkpt>
      <trkpt lat="45.54908" lon="6.80138">
        <ele>2547</ele>
        <time>2019-08-19T10:31:16Z</time>
      </trkpt>
      <trkpt lat="45.54914" lon="6.80093">
        <ele>2546</ele>
        <time>2019-08-19T10:32:11Z</time>
      </trkpt>
      <trkpt lat="45.54908" lon="6.801">
        <ele>2546</ele>
        <time>2019-08-19T10:32:21Z</time>
      </trkpt>
      <trkpt lat="45.54909" lon="6.80109">
        <ele>2546</ele>
        <time>2019-08-19T10:32:30Z</time>
      </trkpt>
      <trkpt lat="45.54911" lon="6.80117">
        <ele>2546</ele>
        <time>2019-08-19T10:32:46Z</time>
      </trkpt>
      <trkpt lat="45.5491" lon="6.80123">
        <ele>2546</ele>
        <time>2019-08-19T10:33:05Z</time>
      </trkpt>
      <trkpt lat="45.5491" lon="6.8013">
        <ele>2547</ele>
        <time>2019-08-19T10:33:28Z</time>
      </trkpt>
      <trkpt lat="45.5491" lon="6.80137">
        <ele>2547</ele>
        <time>2019-08-19T10:39:09Z</time>
      </trkpt>
      <trkpt lat="45.54914" lon="6.80144">
        <ele>2547</ele>
        <time>2019-08-19T10:39:18Z</time>
      </trkpt>
      <trkpt lat="45.54922" lon="6.80152">
        <ele>2548</ele>
        <time>2019-08-19T10:39:51Z</time>
      </trkpt>
      <trkpt lat="45.54924" lon="6.8016">
        <ele>2548</ele>
        <time>2019-08-19T10:40:31Z</time>
      </trkpt>
      <trkpt lat="45.54919" lon="6.80182">
        <ele>2558</ele>
        <time>2019-08-19T10:41:17Z</time>
      </trkpt>
      <trkpt lat="45.54919" lon="6.80191">
        <ele>2558</ele>
        <time>2019-08-19T10:41:27Z</time>
      </trkpt>
      <trkpt lat="45.54922" lon="6.80196">
        <ele>2558</ele>
        <time>2019-08-19T10:41:47Z</time>
      </trkpt>
      <trkpt lat="45.54926" lon="6.80202">
        <ele>2558</ele>
        <time>2019-08-19T10:42:31Z</time>
      </trkpt>
      <trkpt lat="45.5493" lon="6.80214">
        <ele>2558</ele>
        <time>2019-08-19T10:42:50Z</time>
      </trkpt>
      <trkpt lat="45.54938" lon="6.80223">
        <ele>2558</ele>
        <time>2019-08-19T10:43:55Z</time>
      </trkpt>
      <trkpt lat="45.54943" lon="6.80227">
        <ele>2558</ele>
        <time>2019-08-19T10:44:09Z</time>
      </trkpt>
      <trkpt lat="45.5494" lon="6.80232">
        <ele>2558</ele>
        <time>2019-08-19T10:45:23Z</time>
      </trkpt>
      <trkpt lat="45.54934" lon="6.80231">
        <ele>2558</ele>
        <time>2019-08-19T10:45:43Z</time>
      </trkpt>
      <trkpt lat="45.54932" lon="6.80237">
        <ele>2558</ele>
        <time>2019-08-19T10:46:23Z</time>
      </trkpt>
      <trkpt lat="45.54929" lon="6.80243">
        <ele>2558</ele>
        <time>2019-08-19T10:46:48Z</time>
      </trkpt>
      <trkpt lat="45.54926" lon="6.80255">
        <ele>2582</ele>
        <time>2019-08-19T10:46:58Z</time>
      </trkpt>
      <trkpt lat="45.54924" lon="6.80263">
        <ele>2577</ele>
        <time>2019-08-19T10:47:09Z</time>
      </trkpt>
      <trkpt lat="45.54917" lon="6.80273">
        <ele>2575</ele>
        <time>2019-08-19T10:47:24Z</time>
      </trkpt>
      <trkpt lat="45.54911" lon="6.80281">
        <ele>2576</ele>
        <time>2019-08-19T10:47:34Z</time>
      </trkpt>
      <trkpt lat="45.54907" lon="6.80289">
        <ele>2594</ele>
        <time>2019-08-19T10:47:44Z</time>
      </trkpt>
      <trkpt lat="45.54903" lon="6.80301">
        <ele>2602</ele>
        <time>2019-08-19T10:47:53Z</time>
      </trkpt>
      <trkpt lat="45.549" lon="6.80307">
        <ele>2606</ele>
        <time>2019-08-19T10:47:58Z</time>
      </trkpt>
      <trkpt lat="45.54896" lon="6.80317">
        <ele>2609</ele>
        <time>2019-08-19T10:48:08Z</time>
      </trkpt>
      <trkpt lat="45.5489" lon="6.80321">
        <ele>2611</ele>
        <time>2019-08-19T10:48:43Z</time>
      </trkpt>
      <trkpt lat="45.54892" lon="6.80327">
        <ele>2613</ele>
        <time>2019-08-19T10:49:23Z</time>
      </trkpt>
      <trkpt lat="45.54891" lon="6.80335">
        <ele>2615</ele>
        <time>2019-08-19T10:49:33Z</time>
      </trkpt>
      <trkpt lat="45.54889" lon="6.80342">
        <ele>2618</ele>
        <time>2019-08-19T10:49:58Z</time>
      </trkpt>
      <trkpt lat="45.54886" lon="6.80347">
        <ele>2622</ele>
        <time>2019-08-19T10:50:08Z</time>
      </trkpt>
      <trkpt lat="45.54882" lon="6.80354">
        <ele>2624</ele>
        <time>2019-08-19T10:50:23Z</time>
      </trkpt>
      <trkpt lat="45.5488" lon="6.80364">
        <ele>2626</ele>
        <time>2019-08-19T10:52:13Z</time>
      </trkpt>
      <trkpt lat="45.54881" lon="6.80371">
        <ele>2627</ele>
        <time>2019-08-19T10:52:23Z</time>
      </trkpt>
      <trkpt lat="45.54881" lon="6.8038">
        <ele>2626</ele>
        <time>2019-08-19T10:52:29Z</time>
      </trkpt>
      <trkpt lat="45.54879" lon="6.80394">
        <ele>2626</ele>
        <time>2019-08-19T10:52:34Z</time>
      </trkpt>
      <trkpt lat="45.54877" lon="6.80403">
        <ele>2628</ele>
        <time>2019-08-19T10:52:39Z</time>
      </trkpt>
      <trkpt lat="45.54874" lon="6.80411">
        <ele>2630</ele>
        <time>2019-08-19T10:52:44Z</time>
      </trkpt>
      <trkpt lat="45.54874" lon="6.80418">
        <ele>2631</ele>
        <time>2019-08-19T10:52:58Z</time>
      </trkpt>
      <trkpt lat="45.54871" lon="6.80424">
        <ele>2632</ele>
        <time>2019-08-19T10:53:33Z</time>
      </trkpt>
      <trkpt lat="45.54867" lon="6.80429">
        <ele>2633</ele>
        <time>2019-08-19T10:53:38Z</time>
      </trkpt>
      <trkpt lat="45.54862" lon="6.8044">
        <ele>2632</ele>
        <time>2019-08-19T10:53:48Z</time>
      </trkpt>
      <trkpt lat="45.54858" lon="6.80448">
        <ele>2632</ele>
        <time>2019-08-19T10:53:53Z</time>
      </trkpt>
      <trkpt lat="45.54855" lon="6.80454">
        <ele>2635</ele>
        <time>2019-08-19T10:54:03Z</time>
      </trkpt>
      <trkpt lat="45.54851" lon="6.80468">
        <ele>2638</ele>
        <time>2019-08-19T10:54:13Z</time>
      </trkpt>
      <trkpt lat="45.54849" lon="6.80478">
        <ele>2642</ele>
        <time>2019-08-19T10:54:18Z</time>
      </trkpt>
      <trkpt lat="45.54849" lon="6.80485">
        <ele>2648</ele>
        <time>2019-08-19T10:54:28Z</time>
      </trkpt>
      <trkpt lat="45.54849" lon="6.80493">
        <ele>2654</ele>
        <time>2019-08-19T10:54:38Z</time>
      </trkpt>
      <trkpt lat="45.54851" lon="6.80487">
        <ele>2661</ele>
        <time>2019-08-19T10:55:23Z</time>
      </trkpt>
      <trkpt lat="45.54846" lon="6.80486">
        <ele>2669</ele>
        <time>2019-08-19T10:55:54Z</time>
      </trkpt>
      <trkpt lat="45.54841" lon="6.80487">
        <ele>2679</ele>
        <time>2019-08-19T10:56:34Z</time>
      </trkpt>
      <trkpt lat="45.54832" lon="6.8049">
        <ele>2687</ele>
        <time>2019-08-19T10:56:43Z</time>
      </trkpt>
      <trkpt lat="45.54822" lon="6.8049">
        <ele>2693</ele>
        <time>2019-08-19T10:56:48Z</time>
      </trkpt>
      <trkpt lat="45.54814" lon="6.80492">
        <ele>2695</ele>
        <time>2019-08-19T10:56:53Z</time>
      </trkpt>
      <trkpt lat="45.54811" lon="6.80499">
        <ele>2696</ele>
        <time>2019-08-19T10:56:58Z</time>
      </trkpt>
      <trkpt lat="45.54813" lon="6.80513">
        <ele>2695</ele>
        <time>2019-08-19T10:57:04Z</time>
      </trkpt>
      <trkpt lat="45.54817" lon="6.80523">
        <ele>2694</ele>
        <time>2019-08-19T10:57:08Z</time>
      </trkpt>
      <trkpt lat="45.54824" lon="6.80527">
        <ele>2695</ele>
        <time>2019-08-19T10:57:13Z</time>
      </trkpt>
      <trkpt lat="45.54832" lon="6.80528">
        <ele>2697</ele>
        <time>2019-08-19T10:57:19Z</time>
      </trkpt>
      <trkpt lat="45.54842" lon="6.80532">
        <ele>2700</ele>
        <time>2019-08-19T10:57:24Z</time>
      </trkpt>
      <trkpt lat="45.54851" lon="6.8054">
        <ele>2702</ele>
        <time>2019-08-19T10:57:29Z</time>
      </trkpt>
      <trkpt lat="45.54856" lon="6.80544">
        <ele>2703</ele>
        <time>2019-08-19T10:57:33Z</time>
      </trkpt>
      <trkpt lat="45.54873" lon="6.80558">
        <ele>2704</ele>
        <time>2019-08-19T10:57:44Z</time>
      </trkpt>
      <trkpt lat="45.54887" lon="6.8057">
        <ele>2703</ele>
        <time>2019-08-19T10:57:49Z</time>
      </trkpt>
      <trkpt lat="45.54894" lon="6.80572">
        <ele>2701</ele>
        <time>2019-08-19T10:57:54Z</time>
      </trkpt>
      <trkpt lat="45.54904" lon="6.80576">
        <ele>2699</ele>
        <time>2019-08-19T10:57:59Z</time>
      </trkpt>
      <trkpt lat="45.54912" lon="6.80584">
        <ele>2696</ele>
        <time>2019-08-19T10:58:03Z</time>
      </trkpt>
      <trkpt lat="45.54919" lon="6.80591">
        <ele>2694</ele>
        <time>2019-08-19T10:58:09Z</time>
      </trkpt>
      <trkpt lat="45.54927" lon="6.80596">
        <ele>2692</ele>
        <time>2019-08-19T10:58:14Z</time>
      </trkpt>
      <trkpt lat="45.54931" lon="6.8061">
        <ele>2690</ele>
        <time>2019-08-19T10:58:19Z</time>
      </trkpt>
      <trkpt lat="45.54931" lon="6.80618">
        <ele>2686</ele>
        <time>2019-08-19T10:58:23Z</time>
      </trkpt>
      <trkpt lat="45.54926" lon="6.80627">
        <ele>2683</ele>
        <time>2019-08-19T10:58:28Z</time>
      </trkpt>
      <trkpt lat="45.54927" lon="6.8064">
        <ele>2678</ele>
        <time>2019-08-19T10:58:33Z</time>
      </trkpt>
      <trkpt lat="45.54933" lon="6.80651">
        <ele>2676</ele>
        <time>2019-08-19T10:58:39Z</time>
      </trkpt>
      <trkpt lat="45.54926" lon="6.80657">
        <ele>2672</ele>
        <time>2019-08-19T10:58:44Z</time>
      </trkpt>
      <trkpt lat="45.54916" lon="6.80657">
        <ele>2667</ele>
        <time>2019-08-19T10:58:48Z</time>
      </trkpt>
      <trkpt lat="45.54907" lon="6.80659">
        <ele>2665</ele>
        <time>2019-08-19T10:58:54Z</time>
      </trkpt>
      <trkpt lat="45.54908" lon="6.8067">
        <ele>2661</ele>
        <time>2019-08-19T10:58:58Z</time>
      </trkpt>
      <trkpt lat="45.54906" lon="6.80676">
        <ele>2653</ele>
        <time>2019-08-19T10:59:07Z</time>
      </trkpt>
      <trkpt lat="45.54907" lon="6.80683">
        <ele>2650</ele>
        <time>2019-08-19T10:59:11Z</time>
      </trkpt>
      <trkpt lat="45.54905" lon="6.80692">
        <ele>2647</ele>
        <time>2019-08-19T10:59:16Z</time>
      </trkpt>
      <trkpt lat="45.54902" lon="6.80703">
        <ele>2640</ele>
        <time>2019-08-19T10:59:21Z</time>
      </trkpt>
      <trkpt lat="45.54906" lon="6.80716">
        <ele>2635</ele>
        <time>2019-08-19T10:59:26Z</time>
      </trkpt>
      <trkpt lat="45.54906" lon="6.80726">
        <ele>2632</ele>
        <time>2019-08-19T10:59:32Z</time>
      </trkpt>
      <trkpt lat="45.54907" lon="6.80737">
        <ele>2625</ele>
        <time>2019-08-19T10:59:36Z</time>
      </trkpt>
      <trkpt lat="45.54912" lon="6.8075">
        <ele>2545</ele>
        <time>2019-08-19T10:59:41Z</time>
      </trkpt>
      <trkpt lat="45.5492" lon="6.80763">
        <ele>2617</ele>
        <time>2019-08-19T10:59:46Z</time>
      </trkpt>
      <trkpt lat="45.54929" lon="6.80775">
        <ele>2621</ele>
        <time>2019-08-19T10:59:51Z</time>
      </trkpt>
      <trkpt lat="45.54937" lon="6.80782">
        <ele>2623</ele>
        <time>2019-08-19T10:59:56Z</time>
      </trkpt>
      <trkpt lat="45.54934" lon="6.80778">
        <ele>2621</ele>
        <time>2019-08-19T11:01:09Z</time>
      </trkpt>
      <trkpt lat="45.54937" lon="6.80791">
        <ele>2618</ele>
        <time>2019-08-19T11:03:55Z</time>
      </trkpt>
      <trkpt lat="45.54941" lon="6.80801">
        <ele>2617</ele>
        <time>2019-08-19T11:04:00Z</time>
      </trkpt>
      <trkpt lat="45.54944" lon="6.80808">
        <ele>2609</ele>
        <time>2019-08-19T11:04:04Z</time>
      </trkpt>
      <trkpt lat="45.54945" lon="6.80815">
        <ele>2603</ele>
        <time>2019-08-19T11:04:09Z</time>
      </trkpt>
      <trkpt lat="45.54949" lon="6.80824">
        <ele>2602</ele>
        <time>2019-08-19T11:04:14Z</time>
      </trkpt>
      <trkpt lat="45.54955" lon="6.80837">
        <ele>2552</ele>
        <time>2019-08-19T11:04:20Z</time>
      </trkpt>
      <trkpt lat="45.54959" lon="6.8085">
        <ele>2552</ele>
        <time>2019-08-19T11:04:24Z</time>
      </trkpt>
      <trkpt lat="45.54968" lon="6.80861">
        <ele>2552</ele>
        <time>2019-08-19T11:04:29Z</time>
      </trkpt>
      <trkpt lat="45.54976" lon="6.80868">
        <ele>2553</ele>
        <time>2019-08-19T11:04:34Z</time>
      </trkpt>
      <trkpt lat="45.54983" lon="6.80874">
        <ele>2554</ele>
        <time>2019-08-19T11:04:39Z</time>
      </trkpt>
      <trkpt lat="45.5499" lon="6.8088">
        <ele>2554</ele>
        <time>2019-08-19T11:04:44Z</time>
      </trkpt>
      <trkpt lat="45.54994" lon="6.80885">
        <ele>2555</ele>
        <time>2019-08-19T11:04:49Z</time>
      </trkpt>
      <trkpt lat="45.54998" lon="6.80894">
        <ele>2555</ele>
        <time>2019-08-19T11:04:59Z</time>
      </trkpt>
      <trkpt lat="45.55008" lon="6.80909">
        <ele>2553</ele>
        <time>2019-08-19T11:05:04Z</time>
      </trkpt>
      <trkpt lat="45.55018" lon="6.80932">
        <ele>2548</ele>
        <time>2019-08-19T11:05:10Z</time>
      </trkpt>
      <trkpt lat="45.55024" lon="6.80945">
        <ele>2546</ele>
        <time>2019-08-19T11:05:14Z</time>
      </trkpt>
      <trkpt lat="45.55031" lon="6.8096">
        <ele>2544</ele>
        <time>2019-08-19T11:05:19Z</time>
      </trkpt>
      <trkpt lat="45.55038" lon="6.80979">
        <ele>2543</ele>
        <time>2019-08-19T11:05:24Z</time>
      </trkpt>
      <trkpt lat="45.55041" lon="6.80995">
        <ele>2543</ele>
        <time>2019-08-19T11:05:29Z</time>
      </trkpt>
      <trkpt lat="45.55049" lon="6.81022">
        <ele>2540</ele>
        <time>2019-08-19T11:05:34Z</time>
      </trkpt>
      <trkpt lat="45.55054" lon="6.81041">
        <ele>2540</ele>
        <time>2019-08-19T11:05:39Z</time>
      </trkpt>
      <trkpt lat="45.55058" lon="6.81057">
        <ele>2540</ele>
        <time>2019-08-19T11:05:44Z</time>
      </trkpt>
      <trkpt lat="45.55059" lon="6.81065">
        <ele>2540</ele>
        <time>2019-08-19T11:05:51Z</time>
      </trkpt>
      <trkpt lat="45.55059" lon="6.81072">
        <ele>2540</ele>
        <time>2019-08-19T11:05:59Z</time>
      </trkpt>
      <trkpt lat="45.5506" lon="6.81079">
        <ele>2540</ele>
        <time>2019-08-19T11:06:13Z</time>
      </trkpt>
      <trkpt lat="45.55039" lon="6.81063">
        <ele>2538</ele>
        <time>2019-08-19T11:30:12Z</time>
      </trkpt>
      <trkpt lat="45.55044" lon="6.81069">
        <ele>2538</ele>
        <time>2019-08-19T11:31:23Z</time>
      </trkpt>
      <trkpt lat="45.55049" lon="6.81065">
        <ele>2539</ele>
        <time>2019-08-19T11:33:58Z</time>
      </trkpt>
      <trkpt lat="45.55051" lon="6.81059">
        <ele>2539</ele>
        <time>2019-08-19T11:37:00Z</time>
      </trkpt>
      <trkpt lat="45.55053" lon="6.81052">
        <ele>2539</ele>
        <time>2019-08-19T11:37:55Z</time>
      </trkpt>
      <trkpt lat="45.55055" lon="6.81044">
        <ele>2540</ele>
        <time>2019-08-19T11:37:58Z</time>
      </trkpt>
      <trkpt lat="45.55056" lon="6.81035">
        <ele>2540</ele>
        <time>2019-08-19T11:38:03Z</time>
      </trkpt>
      <trkpt lat="45.55057" lon="6.81025">
        <ele>2540</ele>
        <time>2019-08-19T11:38:09Z</time>
      </trkpt>
      <trkpt lat="45.55059" lon="6.8101">
        <ele>2541</ele>
        <time>2019-08-19T11:38:11Z</time>
      </trkpt>
      <trkpt lat="45.55066" lon="6.80992">
        <ele>2543</ele>
        <time>2019-08-19T11:38:16Z</time>
      </trkpt>
      <trkpt lat="45.55074" lon="6.80976">
        <ele>2542</ele>
        <time>2019-08-19T11:38:21Z</time>
      </trkpt>
      <trkpt lat="45.55079" lon="6.80971">
        <ele>2542</ele>
        <time>2019-08-19T11:38:26Z</time>
      </trkpt>
      <trkpt lat="45.5508" lon="6.80979">
        <ele>2542</ele>
        <time>2019-08-19T11:38:36Z</time>
      </trkpt>
      <trkpt lat="45.55082" lon="6.80958">
        <ele>2541</ele>
        <time>2019-08-19T11:39:59Z</time>
      </trkpt>
      <trkpt lat="45.5508" lon="6.80964">
        <ele>2542</ele>
        <time>2019-08-19T11:40:09Z</time>
      </trkpt>
      <trkpt lat="45.5508" lon="6.80973">
        <ele>2542</ele>
        <time>2019-08-19T11:40:18Z</time>
      </trkpt>
      <trkpt lat="45.5508" lon="6.80979">
        <ele>2542</ele>
        <time>2019-08-19T11:40:53Z</time>
      </trkpt>
      <trkpt lat="45.55082" lon="6.80972">
        <ele>2542</ele>
        <time>2019-08-19T11:41:59Z</time>
      </trkpt>
      <trkpt lat="45.55086" lon="6.80966">
        <ele>2530</ele>
        <time>2019-08-19T11:42:03Z</time>
      </trkpt>
      <trkpt lat="45.55091" lon="6.80956">
        <ele>2529</ele>
        <time>2019-08-19T11:42:08Z</time>
      </trkpt>
      <trkpt lat="45.55094" lon="6.80946">
        <ele>2528</ele>
        <time>2019-08-19T11:42:13Z</time>
      </trkpt>
      <trkpt lat="45.551" lon="6.80924">
        <ele>2528</ele>
        <time>2019-08-19T11:42:18Z</time>
      </trkpt>
      <trkpt lat="45.55104" lon="6.80902">
        <ele>2523</ele>
        <time>2019-08-19T11:42:23Z</time>
      </trkpt>
      <trkpt lat="45.55109" lon="6.80879">
        <ele>2520</ele>
        <time>2019-08-19T11:42:28Z</time>
      </trkpt>
      <trkpt lat="45.55113" lon="6.80857">
        <ele>2520</ele>
        <time>2019-08-19T11:42:33Z</time>
      </trkpt>
      <trkpt lat="45.55117" lon="6.80834">
        <ele>2519</ele>
        <time>2019-08-19T11:42:38Z</time>
      </trkpt>
      <trkpt lat="45.55119" lon="6.80823">
        <ele>2519</ele>
        <time>2019-08-19T11:42:43Z</time>
      </trkpt>
      <trkpt lat="45.55122" lon="6.80795">
        <ele>2518</ele>
        <time>2019-08-19T11:42:48Z</time>
      </trkpt>
      <trkpt lat="45.55128" lon="6.80774">
        <ele>2517</ele>
        <time>2019-08-19T11:42:53Z</time>
      </trkpt>
      <trkpt lat="45.55136" lon="6.80753">
        <ele>2514</ele>
        <time>2019-08-19T11:42:58Z</time>
      </trkpt>
      <trkpt lat="45.55148" lon="6.80734">
        <ele>2514</ele>
        <time>2019-08-19T11:43:03Z</time>
      </trkpt>
      <trkpt lat="45.55161" lon="6.80719">
        <ele>2514</ele>
        <time>2019-08-19T11:43:08Z</time>
      </trkpt>
      <trkpt lat="45.55184" lon="6.80702">
        <ele>2499</ele>
        <time>2019-08-19T11:43:14Z</time>
      </trkpt>
      <trkpt lat="45.55195" lon="6.80694">
        <ele>2498</ele>
        <time>2019-08-19T11:43:18Z</time>
      </trkpt>
      <trkpt lat="45.55212" lon="6.80677">
        <ele>2497</ele>
        <time>2019-08-19T11:43:24Z</time>
      </trkpt>
      <trkpt lat="45.55222" lon="6.80662">
        <ele>2500</ele>
        <time>2019-08-19T11:43:28Z</time>
      </trkpt>
      <trkpt lat="45.55233" lon="6.80645">
        <ele>2499</ele>
        <time>2019-08-19T11:43:33Z</time>
      </trkpt>
      <trkpt lat="45.55245" lon="6.80629">
        <ele>2501</ele>
        <time>2019-08-19T11:43:38Z</time>
      </trkpt>
      <trkpt lat="45.55257" lon="6.80615">
        <ele>2490</ele>
        <time>2019-08-19T11:43:43Z</time>
      </trkpt>
      <trkpt lat="45.5527" lon="6.806">
        <ele>2491</ele>
        <time>2019-08-19T11:43:49Z</time>
      </trkpt>
      <trkpt lat="45.55284" lon="6.80589">
        <ele>2489</ele>
        <time>2019-08-19T11:43:54Z</time>
      </trkpt>
      <trkpt lat="45.55293" lon="6.80583">
        <ele>2500</ele>
        <time>2019-08-19T11:43:58Z</time>
      </trkpt>
      <trkpt lat="45.55306" lon="6.80576">
        <ele>2497</ele>
        <time>2019-08-19T11:44:03Z</time>
      </trkpt>
      <trkpt lat="45.5532" lon="6.80571">
        <ele>2494</ele>
        <time>2019-08-19T11:44:08Z</time>
      </trkpt>
      <trkpt lat="45.55331" lon="6.80566">
        <ele>2494</ele>
        <time>2019-08-19T11:44:14Z</time>
      </trkpt>
      <trkpt lat="45.55348" lon="6.80557">
        <ele>2485</ele>
        <time>2019-08-19T11:44:19Z</time>
      </trkpt>
      <trkpt lat="45.55363" lon="6.80547">
        <ele>2485</ele>
        <time>2019-08-19T11:44:24Z</time>
      </trkpt>
      <trkpt lat="45.55375" lon="6.8054">
        <ele>2485</ele>
        <time>2019-08-19T11:44:29Z</time>
      </trkpt>
      <trkpt lat="45.55384" lon="6.80538">
        <ele>2484</ele>
        <time>2019-08-19T11:44:33Z</time>
      </trkpt>
      <trkpt lat="45.55397" lon="6.80537">
        <ele>2483</ele>
        <time>2019-08-19T11:44:38Z</time>
      </trkpt>
      <trkpt lat="45.55409" lon="6.80536">
        <ele>2482</ele>
        <time>2019-08-19T11:44:43Z</time>
      </trkpt>
      <trkpt lat="45.5542" lon="6.80533">
        <ele>2469</ele>
        <time>2019-08-19T11:44:49Z</time>
      </trkpt>
      <trkpt lat="45.55433" lon="6.80531">
        <ele>2468</ele>
        <time>2019-08-19T11:44:54Z</time>
      </trkpt>
      <trkpt lat="45.55444" lon="6.80531">
        <ele>2466</ele>
        <time>2019-08-19T11:44:59Z</time>
      </trkpt>
      <trkpt lat="45.55459" lon="6.80532">
        <ele>2463</ele>
        <time>2019-08-19T11:45:04Z</time>
      </trkpt>
      <trkpt lat="45.55471" lon="6.80531">
        <ele>2462</ele>
        <time>2019-08-19T11:45:08Z</time>
      </trkpt>
      <trkpt lat="45.55485" lon="6.8053">
        <ele>2461</ele>
        <time>2019-08-19T11:45:14Z</time>
      </trkpt>
      <trkpt lat="45.55498" lon="6.80528">
        <ele>2460</ele>
        <time>2019-08-19T11:45:18Z</time>
      </trkpt>
      <trkpt lat="45.55513" lon="6.80526">
        <ele>2447</ele>
        <time>2019-08-19T11:45:24Z</time>
      </trkpt>
      <trkpt lat="45.5553" lon="6.80517">
        <ele>2445</ele>
        <time>2019-08-19T11:45:29Z</time>
      </trkpt>
      <trkpt lat="45.55542" lon="6.8051">
        <ele>2443</ele>
        <time>2019-08-19T11:45:33Z</time>
      </trkpt>
      <trkpt lat="45.55556" lon="6.80505">
        <ele>2441</ele>
        <time>2019-08-19T11:45:38Z</time>
      </trkpt>
      <trkpt lat="45.55572" lon="6.80499">
        <ele>2448</ele>
        <time>2019-08-19T11:45:43Z</time>
      </trkpt>
      <trkpt lat="45.55584" lon="6.80497">
        <ele>2439</ele>
        <time>2019-08-19T11:45:48Z</time>
      </trkpt>
      <trkpt lat="45.55604" lon="6.80493">
        <ele>2440</ele>
        <time>2019-08-19T11:45:53Z</time>
      </trkpt>
      <trkpt lat="45.5562" lon="6.80492">
        <ele>2439</ele>
        <time>2019-08-19T11:45:58Z</time>
      </trkpt>
      <trkpt lat="45.55633" lon="6.80492">
        <ele>2437</ele>
        <time>2019-08-19T11:46:03Z</time>
      </trkpt>
      <trkpt lat="45.55646" lon="6.80492">
        <ele>2434</ele>
        <time>2019-08-19T11:46:08Z</time>
      </trkpt>
      <trkpt lat="45.55661" lon="6.8049">
        <ele>2430</ele>
        <time>2019-08-19T11:46:13Z</time>
      </trkpt>
      <trkpt lat="45.55667" lon="6.80489">
        <ele>2425</ele>
        <time>2019-08-19T11:46:18Z</time>
      </trkpt>
      <trkpt lat="45.55682" lon="6.80483">
        <ele>2426</ele>
        <time>2019-08-19T11:46:23Z</time>
      </trkpt>
      <trkpt lat="45.55697" lon="6.80476">
        <ele>2427</ele>
        <time>2019-08-19T11:46:28Z</time>
      </trkpt>
      <trkpt lat="45.55706" lon="6.80473">
        <ele>2427</ele>
        <time>2019-08-19T11:46:33Z</time>
      </trkpt>
      <trkpt lat="45.55706" lon="6.80474">
        <ele>2427</ele>
        <time>2019-08-19T11:51:59Z</time>
      </trkpt>
      <trkpt lat="45.55711" lon="6.80465">
        <ele>2427</ele>
        <time>2019-08-19T11:52:39Z</time>
      </trkpt>
      <trkpt lat="45.55724" lon="6.80445">
        <ele>2428</ele>
        <time>2019-08-19T11:52:44Z</time>
      </trkpt>
      <trkpt lat="45.55732" lon="6.80426">
        <ele>2428</ele>
        <time>2019-08-19T11:52:49Z</time>
      </trkpt>
      <trkpt lat="45.55738" lon="6.80399">
        <ele>2427</ele>
        <time>2019-08-19T11:52:54Z</time>
      </trkpt>
      <trkpt lat="45.5574" lon="6.80379">
        <ele>2425</ele>
        <time>2019-08-19T11:52:59Z</time>
      </trkpt>
      <trkpt lat="45.55746" lon="6.80361">
        <ele>2422</ele>
        <time>2019-08-19T11:53:04Z</time>
      </trkpt>
      <trkpt lat="45.55756" lon="6.80345">
        <ele>2414</ele>
        <time>2019-08-19T11:53:09Z</time>
      </trkpt>
      <trkpt lat="45.55763" lon="6.8034">
        <ele>2414</ele>
        <time>2019-08-19T11:53:14Z</time>
      </trkpt>
      <trkpt lat="45.55779" lon="6.80328">
        <ele>2395</ele>
        <time>2019-08-19T11:53:19Z</time>
      </trkpt>
      <trkpt lat="45.55792" lon="6.80323">
        <ele>2392</ele>
        <time>2019-08-19T11:53:24Z</time>
      </trkpt>
      <trkpt lat="45.55809" lon="6.80323">
        <ele>2393</ele>
        <time>2019-08-19T11:53:30Z</time>
      </trkpt>
      <trkpt lat="45.55821" lon="6.80324">
        <ele>2395</ele>
        <time>2019-08-19T11:53:34Z</time>
      </trkpt>
      <trkpt lat="45.55833" lon="6.80327">
        <ele>2400</ele>
        <time>2019-08-19T11:53:40Z</time>
      </trkpt>
      <trkpt lat="45.55847" lon="6.80327">
        <ele>2390</ele>
        <time>2019-08-19T11:53:44Z</time>
      </trkpt>
      <trkpt lat="45.55862" lon="6.80327">
        <ele>2384</ele>
        <time>2019-08-19T11:53:49Z</time>
      </trkpt>
      <trkpt lat="45.55876" lon="6.80326">
        <ele>2381</ele>
        <time>2019-08-19T11:53:54Z</time>
      </trkpt>
      <trkpt lat="45.5589" lon="6.80323">
        <ele>2379</ele>
        <time>2019-08-19T11:53:59Z</time>
      </trkpt>
      <trkpt lat="45.55904" lon="6.80319">
        <ele>2379</ele>
        <time>2019-08-19T11:54:04Z</time>
      </trkpt>
      <trkpt lat="45.55914" lon="6.80313">
        <ele>2378</ele>
        <time>2019-08-19T11:54:10Z</time>
      </trkpt>
      <trkpt lat="45.55924" lon="6.80308">
        <ele>2368</ele>
        <time>2019-08-19T11:54:14Z</time>
      </trkpt>
      <trkpt lat="45.55938" lon="6.80299">
        <ele>2363</ele>
        <time>2019-08-19T11:54:20Z</time>
      </trkpt>
      <trkpt lat="45.55947" lon="6.8029">
        <ele>2359</ele>
        <time>2019-08-19T11:54:24Z</time>
      </trkpt>
      <trkpt lat="45.55961" lon="6.80275">
        <ele>2355</ele>
        <time>2019-08-19T11:54:30Z</time>
      </trkpt>
      <trkpt lat="45.55974" lon="6.80264">
        <ele>2351</ele>
        <time>2019-08-19T11:54:35Z</time>
      </trkpt>
      <trkpt lat="45.5598" lon="6.80274">
        <ele>2353</ele>
        <time>2019-08-19T11:54:40Z</time>
      </trkpt>
      <trkpt lat="45.5599" lon="6.80281">
        <ele>2354</ele>
        <time>2019-08-19T11:54:44Z</time>
      </trkpt>
      <trkpt lat="45.56004" lon="6.80288">
        <ele>2338</ele>
        <time>2019-08-19T11:54:50Z</time>
      </trkpt>
      <trkpt lat="45.56012" lon="6.80292">
        <ele>2338</ele>
        <time>2019-08-19T11:54:55Z</time>
      </trkpt>
      <trkpt lat="45.5602" lon="6.80298">
        <ele>2337</ele>
        <time>2019-08-19T11:55:00Z</time>
      </trkpt>
      <trkpt lat="45.56027" lon="6.80303">
        <ele>2337</ele>
        <time>2019-08-19T11:55:05Z</time>
      </trkpt>
      <trkpt lat="45.56033" lon="6.80307">
        <ele>2336</ele>
        <time>2019-08-19T11:55:10Z</time>
      </trkpt>
      <trkpt lat="45.5604" lon="6.80311">
        <ele>2334</ele>
        <time>2019-08-19T11:55:15Z</time>
      </trkpt>
      <trkpt lat="45.56047" lon="6.80315">
        <ele>2332</ele>
        <time>2019-08-19T11:55:20Z</time>
      </trkpt>
      <trkpt lat="45.56057" lon="6.8032">
        <ele>2329</ele>
        <time>2019-08-19T11:55:25Z</time>
      </trkpt>
      <trkpt lat="45.56067" lon="6.80324">
        <ele>2325</ele>
        <time>2019-08-19T11:55:30Z</time>
      </trkpt>
      <trkpt lat="45.56076" lon="6.80328">
        <ele>2321</ele>
        <time>2019-08-19T11:55:35Z</time>
      </trkpt>
      <trkpt lat="45.56086" lon="6.80332">
        <ele>2314</ele>
        <time>2019-08-19T11:55:40Z</time>
      </trkpt>
      <trkpt lat="45.56094" lon="6.8033">
        <ele>2309</ele>
        <time>2019-08-19T11:55:45Z</time>
      </trkpt>
      <trkpt lat="45.56104" lon="6.80328">
        <ele>2305</ele>
        <time>2019-08-19T11:55:50Z</time>
      </trkpt>
      <trkpt lat="45.56112" lon="6.80327">
        <ele>2302</ele>
        <time>2019-08-19T11:55:55Z</time>
      </trkpt>
      <trkpt lat="45.5612" lon="6.80326">
        <ele>2300</ele>
        <time>2019-08-19T11:56:00Z</time>
      </trkpt>
      <trkpt lat="45.56125" lon="6.80326">
        <ele>2299</ele>
        <time>2019-08-19T11:56:05Z</time>
      </trkpt>
      <trkpt lat="45.56131" lon="6.80326">
        <ele>2298</ele>
        <time>2019-08-19T11:56:10Z</time>
      </trkpt>
      <trkpt lat="45.56138" lon="6.80324">
        <ele>2296</ele>
        <time>2019-08-19T11:56:14Z</time>
      </trkpt>
      <trkpt lat="45.56144" lon="6.80323">
        <ele>2295</ele>
        <time>2019-08-19T11:56:19Z</time>
      </trkpt>
      <trkpt lat="45.56156" lon="6.80322">
        <ele>2293</ele>
        <time>2019-08-19T11:56:25Z</time>
      </trkpt>
      <trkpt lat="45.56162" lon="6.80319">
        <ele>2293</ele>
        <time>2019-08-19T11:56:30Z</time>
      </trkpt>
      <trkpt lat="45.56168" lon="6.80317">
        <ele>2284</ele>
        <time>2019-08-19T11:56:34Z</time>
      </trkpt>
      <trkpt lat="45.56177" lon="6.80314">
        <ele>2282</ele>
        <time>2019-08-19T11:56:39Z</time>
      </trkpt>
      <trkpt lat="45.56188" lon="6.80309">
        <ele>2279</ele>
        <time>2019-08-19T11:56:44Z</time>
      </trkpt>
      <trkpt lat="45.56198" lon="6.80304">
        <ele>2277</ele>
        <time>2019-08-19T11:56:49Z</time>
      </trkpt>
      <trkpt lat="45.5621" lon="6.80298">
        <ele>2276</ele>
        <time>2019-08-19T11:56:54Z</time>
      </trkpt>
      <trkpt lat="45.56221" lon="6.80292">
        <ele>2274</ele>
        <time>2019-08-19T11:56:59Z</time>
      </trkpt>
      <trkpt lat="45.56236" lon="6.80288">
        <ele>2272</ele>
        <time>2019-08-19T11:57:05Z</time>
      </trkpt>
      <trkpt lat="45.56247" lon="6.80286">
        <ele>2272</ele>
        <time>2019-08-19T11:57:10Z</time>
      </trkpt>
      <trkpt lat="45.56257" lon="6.80288">
        <ele>2260</ele>
        <time>2019-08-19T11:57:14Z</time>
      </trkpt>
      <trkpt lat="45.56268" lon="6.80291">
        <ele>2259</ele>
        <time>2019-08-19T11:57:19Z</time>
      </trkpt>
      <trkpt lat="45.56282" lon="6.80293">
        <ele>2258</ele>
        <time>2019-08-19T11:57:24Z</time>
      </trkpt>
      <trkpt lat="45.56294" lon="6.80296">
        <ele>2257</ele>
        <time>2019-08-19T11:57:29Z</time>
      </trkpt>
      <trkpt lat="45.56307" lon="6.80301">
        <ele>2255</ele>
        <time>2019-08-19T11:57:34Z</time>
      </trkpt>
      <trkpt lat="45.56315" lon="6.80307">
        <ele>2255</ele>
        <time>2019-08-19T11:57:39Z</time>
      </trkpt>
      <trkpt lat="45.56318" lon="6.80316">
        <ele>2255</ele>
        <time>2019-08-19T11:57:44Z</time>
      </trkpt>
      <trkpt lat="45.56318" lon="6.80324">
        <ele>2254</ele>
        <time>2019-08-19T11:57:49Z</time>
      </trkpt>
      <trkpt lat="45.56313" lon="6.80324">
        <ele>2255</ele>
        <time>2019-08-19T11:58:04Z</time>
      </trkpt>
      <trkpt lat="45.56312" lon="6.80331">
        <ele>2255</ele>
        <time>2019-08-19T12:03:09Z</time>
      </trkpt>
      <trkpt lat="45.56319" lon="6.80344">
        <ele>2263</ele>
        <time>2019-08-19T12:03:14Z</time>
      </trkpt>
      <trkpt lat="45.56329" lon="6.80355">
        <ele>2264</ele>
        <time>2019-08-19T12:03:19Z</time>
      </trkpt>
      <trkpt lat="45.56339" lon="6.80363">
        <ele>2257</ele>
        <time>2019-08-19T12:03:24Z</time>
      </trkpt>
      <trkpt lat="45.56351" lon="6.80374">
        <ele>2258</ele>
        <time>2019-08-19T12:03:29Z</time>
      </trkpt>
      <trkpt lat="45.56361" lon="6.80383">
        <ele>2259</ele>
        <time>2019-08-19T12:03:34Z</time>
      </trkpt>
      <trkpt lat="45.5637" lon="6.8039">
        <ele>2259</ele>
        <time>2019-08-19T12:03:39Z</time>
      </trkpt>
      <trkpt lat="45.5638" lon="6.80396">
        <ele>2259</ele>
        <time>2019-08-19T12:03:44Z</time>
      </trkpt>
      <trkpt lat="45.5639" lon="6.80402">
        <ele>2259</ele>
        <time>2019-08-19T12:03:49Z</time>
      </trkpt>
      <trkpt lat="45.56397" lon="6.80407">
        <ele>2260</ele>
        <time>2019-08-19T12:03:54Z</time>
      </trkpt>
      <trkpt lat="45.5641" lon="6.80413">
        <ele>2261</ele>
        <time>2019-08-19T12:03:59Z</time>
      </trkpt>
      <trkpt lat="45.56418" lon="6.80419">
        <ele>2263</ele>
        <time>2019-08-19T12:04:04Z</time>
      </trkpt>
      <trkpt lat="45.56427" lon="6.80425">
        <ele>2266</ele>
        <time>2019-08-19T12:04:09Z</time>
      </trkpt>
      <trkpt lat="45.56441" lon="6.80423">
        <ele>2268</ele>
        <time>2019-08-19T12:04:14Z</time>
      </trkpt>
      <trkpt lat="45.5645" lon="6.8041">
        <ele>2256</ele>
        <time>2019-08-19T12:04:19Z</time>
      </trkpt>
      <trkpt lat="45.56457" lon="6.80398">
        <ele>2255</ele>
        <time>2019-08-19T12:04:24Z</time>
      </trkpt>
      <trkpt lat="45.56471" lon="6.80382">
        <ele>2254</ele>
        <time>2019-08-19T12:04:29Z</time>
      </trkpt>
      <trkpt lat="45.56485" lon="6.80368">
        <ele>2252</ele>
        <time>2019-08-19T12:04:34Z</time>
      </trkpt>
      <trkpt lat="45.565" lon="6.80354">
        <ele>2253</ele>
        <time>2019-08-19T12:04:40Z</time>
      </trkpt>
      <trkpt lat="45.56509" lon="6.80345">
        <ele>2251</ele>
        <time>2019-08-19T12:04:44Z</time>
      </trkpt>
      <trkpt lat="45.5652" lon="6.80334">
        <ele>2252</ele>
        <time>2019-08-19T12:04:49Z</time>
      </trkpt>
      <trkpt lat="45.5653" lon="6.80325">
        <ele>2242</ele>
        <time>2019-08-19T12:04:54Z</time>
      </trkpt>
      <trkpt lat="45.56542" lon="6.80319">
        <ele>2242</ele>
        <time>2019-08-19T12:04:59Z</time>
      </trkpt>
      <trkpt lat="45.56553" lon="6.80315">
        <ele>2242</ele>
        <time>2019-08-19T12:05:04Z</time>
      </trkpt>
      <trkpt lat="45.56564" lon="6.80312">
        <ele>2242</ele>
        <time>2019-08-19T12:05:09Z</time>
      </trkpt>
      <trkpt lat="45.56576" lon="6.80308">
        <ele>2242</ele>
        <time>2019-08-19T12:05:14Z</time>
      </trkpt>
      <trkpt lat="45.56587" lon="6.80303">
        <ele>2242</ele>
        <time>2019-08-19T12:05:19Z</time>
      </trkpt>
      <trkpt lat="45.56596" lon="6.80297">
        <ele>2241</ele>
        <time>2019-08-19T12:05:24Z</time>
      </trkpt>
      <trkpt lat="45.56605" lon="6.80293">
        <ele>2240</ele>
        <time>2019-08-19T12:05:29Z</time>
      </trkpt>
      <trkpt lat="45.56614" lon="6.80295">
        <ele>2241</ele>
        <time>2019-08-19T12:05:34Z</time>
      </trkpt>
      <trkpt lat="45.56625" lon="6.803">
        <ele>2241</ele>
        <time>2019-08-19T12:05:39Z</time>
      </trkpt>
      <trkpt lat="45.56636" lon="6.80304">
        <ele>2242</ele>
        <time>2019-08-19T12:05:44Z</time>
      </trkpt>
      <trkpt lat="45.56648" lon="6.80306">
        <ele>2243</ele>
        <time>2019-08-19T12:05:49Z</time>
      </trkpt>
      <trkpt lat="45.56659" lon="6.80308">
        <ele>2244</ele>
        <time>2019-08-19T12:05:54Z</time>
      </trkpt>
      <trkpt lat="45.56669" lon="6.80309">
        <ele>2245</ele>
        <time>2019-08-19T12:05:59Z</time>
      </trkpt>
      <trkpt lat="45.5668" lon="6.80312">
        <ele>2245</ele>
        <time>2019-08-19T12:06:04Z</time>
      </trkpt>
      <trkpt lat="45.56691" lon="6.80312">
        <ele>2245</ele>
        <time>2019-08-19T12:06:09Z</time>
      </trkpt>
      <trkpt lat="45.567" lon="6.80312">
        <ele>2244</ele>
        <time>2019-08-19T12:06:14Z</time>
      </trkpt>
      <trkpt lat="45.56709" lon="6.80311">
        <ele>2244</ele>
        <time>2019-08-19T12:06:19Z</time>
      </trkpt>
      <trkpt lat="45.56715" lon="6.80311">
        <ele>2244</ele>
        <time>2019-08-19T12:06:24Z</time>
      </trkpt>
      <trkpt lat="45.5672" lon="6.80312">
        <ele>2245</ele>
        <time>2019-08-19T12:06:29Z</time>
      </trkpt>
      <trkpt lat="45.56729" lon="6.80314">
        <ele>2245</ele>
        <time>2019-08-19T12:06:39Z</time>
      </trkpt>
      <trkpt lat="45.56735" lon="6.80316">
        <ele>2246</ele>
        <time>2019-08-19T12:06:44Z</time>
      </trkpt>
      <trkpt lat="45.56741" lon="6.8032">
        <ele>2247</ele>
        <time>2019-08-19T12:06:50Z</time>
      </trkpt>
      <trkpt lat="45.56746" lon="6.80323">
        <ele>2248</ele>
        <time>2019-08-19T12:06:54Z</time>
      </trkpt>
      <trkpt lat="45.5675" lon="6.80326">
        <ele>2249</ele>
        <time>2019-08-19T12:06:59Z</time>
      </trkpt>
      <trkpt lat="45.56756" lon="6.80335">
        <ele>2253</ele>
        <time>2019-08-19T12:07:09Z</time>
      </trkpt>
      <trkpt lat="45.56759" lon="6.80346">
        <ele>2256</ele>
        <time>2019-08-19T12:07:19Z</time>
      </trkpt>
      <trkpt lat="45.56762" lon="6.80352">
        <ele>2257</ele>
        <time>2019-08-19T12:07:24Z</time>
      </trkpt>
      <trkpt lat="45.56767" lon="6.80356">
        <ele>2258</ele>
        <time>2019-08-19T12:07:29Z</time>
      </trkpt>
      <trkpt lat="45.56773" lon="6.80361">
        <ele>2259</ele>
        <time>2019-08-19T12:07:34Z</time>
      </trkpt>
      <trkpt lat="45.56777" lon="6.80366">
        <ele>2260</ele>
        <time>2019-08-19T12:07:39Z</time>
      </trkpt>
      <trkpt lat="45.56783" lon="6.8037">
        <ele>2260</ele>
        <time>2019-08-19T12:07:44Z</time>
      </trkpt>
      <trkpt lat="45.56789" lon="6.80375">
        <ele>2261</ele>
        <time>2019-08-19T12:07:49Z</time>
      </trkpt>
      <trkpt lat="45.56793" lon="6.8038">
        <ele>2261</ele>
        <time>2019-08-19T12:07:54Z</time>
      </trkpt>
      <trkpt lat="45.56797" lon="6.80385">
        <ele>2262</ele>
        <time>2019-08-19T12:07:59Z</time>
      </trkpt>
      <trkpt lat="45.56802" lon="6.80391">
        <ele>2262</ele>
        <time>2019-08-19T12:08:04Z</time>
      </trkpt>
      <trkpt lat="45.56807" lon="6.80398">
        <ele>2263</ele>
        <time>2019-08-19T12:08:10Z</time>
      </trkpt>
      <trkpt lat="45.56812" lon="6.80403">
        <ele>2263</ele>
        <time>2019-08-19T12:08:14Z</time>
      </trkpt>
      <trkpt lat="45.56819" lon="6.8041">
        <ele>2264</ele>
        <time>2019-08-19T12:08:19Z</time>
      </trkpt>
      <trkpt lat="45.56822" lon="6.80416">
        <ele>2265</ele>
        <time>2019-08-19T12:08:24Z</time>
      </trkpt>
      <trkpt lat="45.56825" lon="6.80423">
        <ele>2271</ele>
        <time>2019-08-19T12:08:29Z</time>
      </trkpt>
      <trkpt lat="45.56827" lon="6.80433">
        <ele>2273</ele>
        <time>2019-08-19T12:08:34Z</time>
      </trkpt>
      <trkpt lat="45.56831" lon="6.80442">
        <ele>2275</ele>
        <time>2019-08-19T12:08:39Z</time>
      </trkpt>
      <trkpt lat="45.56834" lon="6.80448">
        <ele>2269</ele>
        <time>2019-08-19T12:08:44Z</time>
      </trkpt>
      <trkpt lat="45.56838" lon="6.80453">
        <ele>2269</ele>
        <time>2019-08-19T12:08:54Z</time>
      </trkpt>
      <trkpt lat="45.5684" lon="6.80459">
        <ele>2270</ele>
        <time>2019-08-19T12:10:39Z</time>
      </trkpt>
      <trkpt lat="45.56847" lon="6.80472">
        <ele>2271</ele>
        <time>2019-08-19T12:14:14Z</time>
      </trkpt>
      <trkpt lat="45.56854" lon="6.80487">
        <ele>2273</ele>
        <time>2019-08-19T12:14:19Z</time>
      </trkpt>
      <trkpt lat="45.56864" lon="6.805">
        <ele>2281</ele>
        <time>2019-08-19T12:14:24Z</time>
      </trkpt>
      <trkpt lat="45.56877" lon="6.80511">
        <ele>2281</ele>
        <time>2019-08-19T12:14:29Z</time>
      </trkpt>
      <trkpt lat="45.56886" lon="6.80517">
        <ele>2280</ele>
        <time>2019-08-19T12:14:34Z</time>
      </trkpt>
      <trkpt lat="45.56903" lon="6.80527">
        <ele>2279</ele>
        <time>2019-08-19T12:14:39Z</time>
      </trkpt>
      <trkpt lat="45.56917" lon="6.80537">
        <ele>2276</ele>
        <time>2019-08-19T12:14:44Z</time>
      </trkpt>
      <trkpt lat="45.56931" lon="6.80545">
        <ele>2278</ele>
        <time>2019-08-19T12:14:49Z</time>
      </trkpt>
      <trkpt lat="45.56947" lon="6.80548">
        <ele>2278</ele>
        <time>2019-08-19T12:14:54Z</time>
      </trkpt>
      <trkpt lat="45.56961" lon="6.80546">
        <ele>2277</ele>
        <time>2019-08-19T12:14:59Z</time>
      </trkpt>
      <trkpt lat="45.5697" lon="6.80543">
        <ele>2277</ele>
        <time>2019-08-19T12:15:04Z</time>
      </trkpt>
      <trkpt lat="45.56986" lon="6.80533">
        <ele>2275</ele>
        <time>2019-08-19T12:15:09Z</time>
      </trkpt>
      <trkpt lat="45.57001" lon="6.80521">
        <ele>2271</ele>
        <time>2019-08-19T12:15:14Z</time>
      </trkpt>
      <trkpt lat="45.57014" lon="6.8051">
        <ele>2270</ele>
        <time>2019-08-19T12:15:19Z</time>
      </trkpt>
      <trkpt lat="45.57028" lon="6.80502">
        <ele>2270</ele>
        <time>2019-08-19T12:15:24Z</time>
      </trkpt>
      <trkpt lat="45.57043" lon="6.80499">
        <ele>2260</ele>
        <time>2019-08-19T12:15:29Z</time>
      </trkpt>
      <trkpt lat="45.57057" lon="6.80498">
        <ele>2259</ele>
        <time>2019-08-19T12:15:34Z</time>
      </trkpt>
      <trkpt lat="45.57071" lon="6.80498">
        <ele>2259</ele>
        <time>2019-08-19T12:15:39Z</time>
      </trkpt>
      <trkpt lat="45.57085" lon="6.805">
        <ele>2258</ele>
        <time>2019-08-19T12:15:44Z</time>
      </trkpt>
      <trkpt lat="45.57098" lon="6.805">
        <ele>2261</ele>
        <time>2019-08-19T12:15:49Z</time>
      </trkpt>
      <trkpt lat="45.57113" lon="6.80499">
        <ele>2253</ele>
        <time>2019-08-19T12:15:54Z</time>
      </trkpt>
      <trkpt lat="45.57127" lon="6.80499">
        <ele>2251</ele>
        <time>2019-08-19T12:15:59Z</time>
      </trkpt>
      <trkpt lat="45.57136" lon="6.80499">
        <ele>2251</ele>
        <time>2019-08-19T12:16:04Z</time>
      </trkpt>
      <trkpt lat="45.57151" lon="6.80501">
        <ele>2256</ele>
        <time>2019-08-19T12:16:09Z</time>
      </trkpt>
      <trkpt lat="45.57165" lon="6.80507">
        <ele>2254</ele>
        <time>2019-08-19T12:16:14Z</time>
      </trkpt>
      <trkpt lat="45.57175" lon="6.8052">
        <ele>2249</ele>
        <time>2019-08-19T12:16:19Z</time>
      </trkpt>
      <trkpt lat="45.57181" lon="6.80537">
        <ele>2249</ele>
        <time>2019-08-19T12:16:24Z</time>
      </trkpt>
      <trkpt lat="45.57189" lon="6.8055">
        <ele>2249</ele>
        <time>2019-08-19T12:16:29Z</time>
      </trkpt>
      <trkpt lat="45.57198" lon="6.80558">
        <ele>2249</ele>
        <time>2019-08-19T12:16:34Z</time>
      </trkpt>
      <trkpt lat="45.57208" lon="6.80567">
        <ele>2247</ele>
        <time>2019-08-19T12:16:39Z</time>
      </trkpt>
      <trkpt lat="45.57218" lon="6.8058">
        <ele>2246</ele>
        <time>2019-08-19T12:16:44Z</time>
      </trkpt>
      <trkpt lat="45.57225" lon="6.80593">
        <ele>2250</ele>
        <time>2019-08-19T12:16:49Z</time>
      </trkpt>
      <trkpt lat="45.57233" lon="6.80608">
        <ele>2251</ele>
        <time>2019-08-19T12:16:54Z</time>
      </trkpt>
      <trkpt lat="45.57245" lon="6.80621">
        <ele>2251</ele>
        <time>2019-08-19T12:17:00Z</time>
      </trkpt>
      <trkpt lat="45.57254" lon="6.8063">
        <ele>2240</ele>
        <time>2019-08-19T12:17:04Z</time>
      </trkpt>
      <trkpt lat="45.57264" lon="6.80637">
        <ele>2240</ele>
        <time>2019-08-19T12:17:09Z</time>
      </trkpt>
      <trkpt lat="45.57282" lon="6.80644">
        <ele>2239</ele>
        <time>2019-08-19T12:17:14Z</time>
      </trkpt>
      <trkpt lat="45.57297" lon="6.80649">
        <ele>2237</ele>
        <time>2019-08-19T12:17:19Z</time>
      </trkpt>
      <trkpt lat="45.57311" lon="6.80655">
        <ele>2236</ele>
        <time>2019-08-19T12:17:24Z</time>
      </trkpt>
      <trkpt lat="45.57324" lon="6.80664">
        <ele>2235</ele>
        <time>2019-08-19T12:17:29Z</time>
      </trkpt>
      <trkpt lat="45.57336" lon="6.80672">
        <ele>2235</ele>
        <time>2019-08-19T12:17:34Z</time>
      </trkpt>
      <trkpt lat="45.57347" lon="6.80675">
        <ele>2237</ele>
        <time>2019-08-19T12:17:39Z</time>
      </trkpt>
      <trkpt lat="45.57366" lon="6.80677">
        <ele>2237</ele>
        <time>2019-08-19T12:17:44Z</time>
      </trkpt>
      <trkpt lat="45.57381" lon="6.80675">
        <ele>2236</ele>
        <time>2019-08-19T12:17:49Z</time>
      </trkpt>
      <trkpt lat="45.57396" lon="6.8067">
        <ele>2234</ele>
        <time>2019-08-19T12:17:54Z</time>
      </trkpt>
      <trkpt lat="45.57407" lon="6.80667">
        <ele>2231</ele>
        <time>2019-08-19T12:17:59Z</time>
      </trkpt>
      <trkpt lat="45.5742" lon="6.80666">
        <ele>2226</ele>
        <time>2019-08-19T12:18:04Z</time>
      </trkpt>
      <trkpt lat="45.57425" lon="6.80668">
        <ele>2228</ele>
        <time>2019-08-19T12:18:09Z</time>
      </trkpt>
      <trkpt lat="45.5744" lon="6.80675">
        <ele>2228</ele>
        <time>2019-08-19T12:18:14Z</time>
      </trkpt>
      <trkpt lat="45.57456" lon="6.8068">
        <ele>2227</ele>
        <time>2019-08-19T12:18:19Z</time>
      </trkpt>
      <trkpt lat="45.57469" lon="6.80682">
        <ele>2226</ele>
        <time>2019-08-19T12:18:24Z</time>
      </trkpt>
      <trkpt lat="45.57482" lon="6.80682">
        <ele>2224</ele>
        <time>2019-08-19T12:18:29Z</time>
      </trkpt>
      <trkpt lat="45.57494" lon="6.80683">
        <ele>2222</ele>
        <time>2019-08-19T12:18:34Z</time>
      </trkpt>
      <trkpt lat="45.575" lon="6.80685">
        <ele>2219</ele>
        <time>2019-08-19T12:18:39Z</time>
      </trkpt>
      <trkpt lat="45.57513" lon="6.80688">
        <ele>2219</ele>
        <time>2019-08-19T12:18:44Z</time>
      </trkpt>
      <trkpt lat="45.57526" lon="6.80687">
        <ele>2219</ele>
        <time>2019-08-19T12:18:49Z</time>
      </trkpt>
      <trkpt lat="45.57538" lon="6.80679">
        <ele>2218</ele>
        <time>2019-08-19T12:18:54Z</time>
      </trkpt>
      <trkpt lat="45.57546" lon="6.80668">
        <ele>2218</ele>
        <time>2019-08-19T12:18:59Z</time>
      </trkpt>
      <trkpt lat="45.57554" lon="6.80658">
        <ele>2208</ele>
        <time>2019-08-19T12:19:04Z</time>
      </trkpt>
      <trkpt lat="45.57558" lon="6.80651">
        <ele>2208</ele>
        <time>2019-08-19T12:19:09Z</time>
      </trkpt>
      <trkpt lat="45.57566" lon="6.80643">
        <ele>2207</ele>
        <time>2019-08-19T12:19:14Z</time>
      </trkpt>
      <trkpt lat="45.57571" lon="6.80639">
        <ele>2207</ele>
        <time>2019-08-19T12:19:20Z</time>
      </trkpt>
      <trkpt lat="45.57581" lon="6.80634">
        <ele>2206</ele>
        <time>2019-08-19T12:19:25Z</time>
      </trkpt>
      <trkpt lat="45.576" lon="6.80626">
        <ele>2200</ele>
        <time>2019-08-19T12:19:28Z</time>
      </trkpt>
      <trkpt lat="45.57615" lon="6.80617">
        <ele>2198</ele>
        <time>2019-08-19T12:19:32Z</time>
      </trkpt>
      <trkpt lat="45.57622" lon="6.80608">
        <ele>2197</ele>
        <time>2019-08-19T12:19:37Z</time>
      </trkpt>
      <trkpt lat="45.57625" lon="6.80598">
        <ele>2196</ele>
        <time>2019-08-19T12:19:42Z</time>
      </trkpt>
      <trkpt lat="45.57626" lon="6.80589">
        <ele>2196</ele>
        <time>2019-08-19T12:19:42Z</time>
      </trkpt>
      <trkpt lat="45.5763" lon="6.80574">
        <ele>2187</ele>
        <time>2019-08-19T12:19:50Z</time>
      </trkpt>
      <trkpt lat="45.57642" lon="6.80547">
        <ele>2185</ele>
        <time>2019-08-19T12:19:52Z</time>
      </trkpt>
      <trkpt lat="45.57644" lon="6.80535">
        <ele>2184</ele>
        <time>2019-08-19T12:20:01Z</time>
      </trkpt>
      <trkpt lat="45.57656" lon="6.8051">
        <ele>2181</ele>
        <time>2019-08-19T12:20:06Z</time>
      </trkpt>
      <trkpt lat="45.57663" lon="6.80496">
        <ele>2176</ele>
        <time>2019-08-19T12:20:11Z</time>
      </trkpt>
      <trkpt lat="45.57668" lon="6.80481">
        <ele>2172</ele>
        <time>2019-08-19T12:20:16Z</time>
      </trkpt>
      <trkpt lat="45.57672" lon="6.80464">
        <ele>2170</ele>
        <time>2019-08-19T12:20:21Z</time>
      </trkpt>
      <trkpt lat="45.57676" lon="6.80446">
        <ele>2168</ele>
        <time>2019-08-19T12:20:26Z</time>
      </trkpt>
      <trkpt lat="45.57681" lon="6.8043">
        <ele>2167</ele>
        <time>2019-08-19T12:20:31Z</time>
      </trkpt>
      <trkpt lat="45.57692" lon="6.80418">
        <ele>2167</ele>
        <time>2019-08-19T12:20:36Z</time>
      </trkpt>
      <trkpt lat="45.57706" lon="6.80412">
        <ele>2159</ele>
        <time>2019-08-19T12:20:41Z</time>
      </trkpt>
      <trkpt lat="45.57719" lon="6.80414">
        <ele>2159</ele>
        <time>2019-08-19T12:20:46Z</time>
      </trkpt>
      <trkpt lat="45.57734" lon="6.80422">
        <ele>2163</ele>
        <time>2019-08-19T12:20:51Z</time>
      </trkpt>
      <trkpt lat="45.57746" lon="6.80434">
        <ele>2163</ele>
        <time>2019-08-19T12:20:56Z</time>
      </trkpt>
      <trkpt lat="45.57757" lon="6.80448">
        <ele>2162</ele>
        <time>2019-08-19T12:21:01Z</time>
      </trkpt>
      <trkpt lat="45.57769" lon="6.80456">
        <ele>2163</ele>
        <time>2019-08-19T12:21:06Z</time>
      </trkpt>
      <trkpt lat="45.57779" lon="6.80452">
        <ele>2163</ele>
        <time>2019-08-19T12:21:11Z</time>
      </trkpt>
      <trkpt lat="45.57783" lon="6.80445">
        <ele>2162</ele>
        <time>2019-08-19T12:21:16Z</time>
      </trkpt>
      <trkpt lat="45.57793" lon="6.80422">
        <ele>2162</ele>
        <time>2019-08-19T12:21:21Z</time>
      </trkpt>
      <trkpt lat="45.57798" lon="6.80403">
        <ele>2156</ele>
        <time>2019-08-19T12:21:26Z</time>
      </trkpt>
      <trkpt lat="45.578" lon="6.80384">
        <ele>2156</ele>
        <time>2019-08-19T12:21:31Z</time>
      </trkpt>
      <trkpt lat="45.57802" lon="6.80374">
        <ele>2155</ele>
        <time>2019-08-19T12:21:36Z</time>
      </trkpt>
      <trkpt lat="45.57805" lon="6.80365">
        <ele>2155</ele>
        <time>2019-08-19T12:21:46Z</time>
      </trkpt>
      <trkpt lat="45.57805" lon="6.80359">
        <ele>2155</ele>
        <time>2019-08-19T12:22:36Z</time>
      </trkpt>
      <trkpt lat="45.57803" lon="6.8035">
        <ele>2154</ele>
        <time>2019-08-19T12:26:21Z</time>
      </trkpt>
      <trkpt lat="45.57794" lon="6.80332">
        <ele>2148</ele>
        <time>2019-08-19T12:26:26Z</time>
      </trkpt>
      <trkpt lat="45.57785" lon="6.80308">
        <ele>2147</ele>
        <time>2019-08-19T12:26:31Z</time>
      </trkpt>
      <trkpt lat="45.57784" lon="6.80284">
        <ele>2146</ele>
        <time>2019-08-19T12:26:36Z</time>
      </trkpt>
      <trkpt lat="45.57789" lon="6.80265">
        <ele>2145</ele>
        <time>2019-08-19T12:26:41Z</time>
      </trkpt>
      <trkpt lat="45.57798" lon="6.8025">
        <ele>2137</ele>
        <time>2019-08-19T12:26:46Z</time>
      </trkpt>
      <trkpt lat="45.5781" lon="6.8024">
        <ele>2137</ele>
        <time>2019-08-19T12:26:51Z</time>
      </trkpt>
      <trkpt lat="45.57823" lon="6.80237">
        <ele>2138</ele>
        <time>2019-08-19T12:26:56Z</time>
      </trkpt>
      <trkpt lat="45.57836" lon="6.80235">
        <ele>2137</ele>
        <time>2019-08-19T12:27:01Z</time>
      </trkpt>
      <trkpt lat="45.57847" lon="6.8023">
        <ele>2136</ele>
        <time>2019-08-19T12:27:06Z</time>
      </trkpt>
      <trkpt lat="45.57857" lon="6.80223">
        <ele>2134</ele>
        <time>2019-08-19T12:27:11Z</time>
      </trkpt>
      <trkpt lat="45.57865" lon="6.8021">
        <ele>2132</ele>
        <time>2019-08-19T12:27:16Z</time>
      </trkpt>
      <trkpt lat="45.57871" lon="6.80193">
        <ele>2130</ele>
        <time>2019-08-19T12:27:21Z</time>
      </trkpt>
      <trkpt lat="45.57871" lon="6.80182">
        <ele>2129</ele>
        <time>2019-08-19T12:27:26Z</time>
      </trkpt>
      <trkpt lat="45.57852" lon="6.80183">
        <ele>2129</ele>
        <time>2019-08-19T12:27:31Z</time>
      </trkpt>
      <trkpt lat="45.5784" lon="6.80181">
        <ele>2128</ele>
        <time>2019-08-19T12:27:36Z</time>
      </trkpt>
      <trkpt lat="45.5783" lon="6.80169">
        <ele>2126</ele>
        <time>2019-08-19T12:27:41Z</time>
      </trkpt>
      <trkpt lat="45.57825" lon="6.8015">
        <ele>2120</ele>
        <time>2019-08-19T12:27:46Z</time>
      </trkpt>
      <trkpt lat="45.57822" lon="6.80132">
        <ele>2117</ele>
        <time>2019-08-19T12:27:51Z</time>
      </trkpt>
      <trkpt lat="45.5782" lon="6.80115">
        <ele>2114</ele>
        <time>2019-08-19T12:27:56Z</time>
      </trkpt>
      <trkpt lat="45.57822" lon="6.80095">
        <ele>2110</ele>
        <time>2019-08-19T12:28:01Z</time>
      </trkpt>
      <trkpt lat="45.5783" lon="6.8008">
        <ele>2103</ele>
        <time>2019-08-19T12:28:06Z</time>
      </trkpt>
      <trkpt lat="45.57845" lon="6.80077">
        <ele>2099</ele>
        <time>2019-08-19T12:28:11Z</time>
      </trkpt>
      <trkpt lat="45.57857" lon="6.80077">
        <ele>2096</ele>
        <time>2019-08-19T12:28:16Z</time>
      </trkpt>
      <trkpt lat="45.5786" lon="6.80067">
        <ele>2095</ele>
        <time>2019-08-19T12:28:21Z</time>
      </trkpt>
      <trkpt lat="45.57856" lon="6.80057">
        <ele>2094</ele>
        <time>2019-08-19T12:28:26Z</time>
      </trkpt>
      <trkpt lat="45.57844" lon="6.80039">
        <ele>2092</ele>
        <time>2019-08-19T12:28:31Z</time>
      </trkpt>
      <trkpt lat="45.57832" lon="6.80026">
        <ele>2094</ele>
        <time>2019-08-19T12:28:36Z</time>
      </trkpt>
      <trkpt lat="45.57821" lon="6.80013">
        <ele>2092</ele>
        <time>2019-08-19T12:28:41Z</time>
      </trkpt>
      <trkpt lat="45.57812" lon="6.8">
        <ele>2084</ele>
        <time>2019-08-19T12:28:46Z</time>
      </trkpt>
      <trkpt lat="45.57806" lon="6.79989">
        <ele>2084</ele>
        <time>2019-08-19T12:28:51Z</time>
      </trkpt>
      <trkpt lat="45.57819" lon="6.80004">
        <ele>2091</ele>
        <time>2019-08-19T12:28:56Z</time>
      </trkpt>
      <trkpt lat="45.57834" lon="6.80012">
        <ele>2089</ele>
        <time>2019-08-19T12:29:01Z</time>
      </trkpt>
      <trkpt lat="45.57847" lon="6.80018">
        <ele>2089</ele>
        <time>2019-08-19T12:29:06Z</time>
      </trkpt>
      <trkpt lat="45.57863" lon="6.80025">
        <ele>2090</ele>
        <time>2019-08-19T12:29:11Z</time>
      </trkpt>
      <trkpt lat="45.57876" lon="6.80027">
        <ele>2089</ele>
        <time>2019-08-19T12:29:16Z</time>
      </trkpt>
      <trkpt lat="45.57887" lon="6.80021">
        <ele>2088</ele>
        <time>2019-08-19T12:29:21Z</time>
      </trkpt>
      <trkpt lat="45.57891" lon="6.80009">
        <ele>2086</ele>
        <time>2019-08-19T12:29:26Z</time>
      </trkpt>
      <trkpt lat="45.5789" lon="6.79998">
        <ele>2075</ele>
        <time>2019-08-19T12:29:31Z</time>
      </trkpt>
      <trkpt lat="45.57885" lon="6.79992">
        <ele>2075</ele>
        <time>2019-08-19T12:29:36Z</time>
      </trkpt>
      <trkpt lat="45.57874" lon="6.79978">
        <ele>2075</ele>
        <time>2019-08-19T12:29:41Z</time>
      </trkpt>
      <trkpt lat="45.57866" lon="6.79957">
        <ele>2073</ele>
        <time>2019-08-19T12:29:46Z</time>
      </trkpt>
      <trkpt lat="45.57858" lon="6.79936">
        <ele>2072</ele>
        <time>2019-08-19T12:29:51Z</time>
      </trkpt>
      <trkpt lat="45.57855" lon="6.79925">
        <ele>2071</ele>
        <time>2019-08-19T12:29:56Z</time>
      </trkpt>
      <trkpt lat="45.5784" lon="6.79893">
        <ele>2062</ele>
        <time>2019-08-19T12:30:01Z</time>
      </trkpt>
      <trkpt lat="45.57827" lon="6.79875">
        <ele>2065</ele>
        <time>2019-08-19T12:30:06Z</time>
      </trkpt>
      <trkpt lat="45.57819" lon="6.7986">
        <ele>2064</ele>
        <time>2019-08-19T12:30:11Z</time>
      </trkpt>
      <trkpt lat="45.57814" lon="6.79849">
        <ele>2063</ele>
        <time>2019-08-19T12:30:16Z</time>
      </trkpt>
      <trkpt lat="45.57809" lon="6.7984">
        <ele>2063</ele>
        <time>2019-08-19T12:30:21Z</time>
      </trkpt>
      <trkpt lat="45.57803" lon="6.79829">
        <ele>2054</ele>
        <time>2019-08-19T12:30:26Z</time>
      </trkpt>
      <trkpt lat="45.578" lon="6.79817">
        <ele>2053</ele>
        <time>2019-08-19T12:30:31Z</time>
      </trkpt>
      <trkpt lat="45.57805" lon="6.79812">
        <ele>2053</ele>
        <time>2019-08-19T12:30:36Z</time>
      </trkpt>
      <trkpt lat="45.57816" lon="6.79808">
        <ele>2052</ele>
        <time>2019-08-19T12:30:41Z</time>
      </trkpt>
      <trkpt lat="45.57827" lon="6.79808">
        <ele>2052</ele>
        <time>2019-08-19T12:30:46Z</time>
      </trkpt>
      <trkpt lat="45.57837" lon="6.7981">
        <ele>2046</ele>
        <time>2019-08-19T12:30:51Z</time>
      </trkpt>
      <trkpt lat="45.5785" lon="6.79814">
        <ele>2046</ele>
        <time>2019-08-19T12:30:56Z</time>
      </trkpt>
      <trkpt lat="45.57864" lon="6.79819">
        <ele>2045</ele>
        <time>2019-08-19T12:31:01Z</time>
      </trkpt>
      <trkpt lat="45.57877" lon="6.79825">
        <ele>2044</ele>
        <time>2019-08-19T12:31:06Z</time>
      </trkpt>
      <trkpt lat="45.57886" lon="6.7983">
        <ele>2043</ele>
        <time>2019-08-19T12:31:11Z</time>
      </trkpt>
      <trkpt lat="45.57904" lon="6.79839">
        <ele>2050</ele>
        <time>2019-08-19T12:31:16Z</time>
      </trkpt>
      <trkpt lat="45.57917" lon="6.79838">
        <ele>2046</ele>
        <time>2019-08-19T12:31:21Z</time>
      </trkpt>
      <trkpt lat="45.57922" lon="6.79827">
        <ele>2040</ele>
        <time>2019-08-19T12:31:26Z</time>
      </trkpt>
      <trkpt lat="45.57915" lon="6.79812">
        <ele>2042</ele>
        <time>2019-08-19T12:31:31Z</time>
      </trkpt>
      <trkpt lat="45.57903" lon="6.79798">
        <ele>2040</ele>
        <time>2019-08-19T12:31:36Z</time>
      </trkpt>
      <trkpt lat="45.57891" lon="6.79787">
        <ele>2040</ele>
        <time>2019-08-19T12:31:41Z</time>
      </trkpt>
      <trkpt lat="45.57879" lon="6.79778">
        <ele>2039</ele>
        <time>2019-08-19T12:31:46Z</time>
      </trkpt>
      <trkpt lat="45.57868" lon="6.79772">
        <ele>2039</ele>
        <time>2019-08-19T12:31:51Z</time>
      </trkpt>
      <trkpt lat="45.5786" lon="6.79759">
        <ele>2039</ele>
        <time>2019-08-19T12:31:56Z</time>
      </trkpt>
      <trkpt lat="45.57876" lon="6.79751">
        <ele>2038</ele>
        <time>2019-08-19T12:32:01Z</time>
      </trkpt>
      <trkpt lat="45.5789" lon="6.79748">
        <ele>2023</ele>
        <time>2019-08-19T12:32:06Z</time>
      </trkpt>
      <trkpt lat="45.57901" lon="6.79746">
        <ele>2024</ele>
        <time>2019-08-19T12:32:11Z</time>
      </trkpt>
      <trkpt lat="45.57914" lon="6.79742">
        <ele>2025</ele>
        <time>2019-08-19T12:32:16Z</time>
      </trkpt>
      <trkpt lat="45.57925" lon="6.79741">
        <ele>2020</ele>
        <time>2019-08-19T12:32:21Z</time>
      </trkpt>
      <trkpt lat="45.57937" lon="6.7974">
        <ele>2017</ele>
        <time>2019-08-19T12:32:26Z</time>
      </trkpt>
      <trkpt lat="45.57946" lon="6.79741">
        <ele>2014</ele>
        <time>2019-08-19T12:32:31Z</time>
      </trkpt>
      <trkpt lat="45.57958" lon="6.79742">
        <ele>2013</ele>
        <time>2019-08-19T12:32:36Z</time>
      </trkpt>
      <trkpt lat="45.57969" lon="6.79747">
        <ele>2012</ele>
        <time>2019-08-19T12:32:41Z</time>
      </trkpt>
      <trkpt lat="45.57979" lon="6.79756">
        <ele>2024</ele>
        <time>2019-08-19T12:32:46Z</time>
      </trkpt>
      <trkpt lat="45.5799" lon="6.79765">
        <ele>2023</ele>
        <time>2019-08-19T12:32:51Z</time>
      </trkpt>
      <trkpt lat="45.58001" lon="6.7977">
        <ele>2019</ele>
        <time>2019-08-19T12:32:56Z</time>
      </trkpt>
      <trkpt lat="45.58011" lon="6.79771">
        <ele>2019</ele>
        <time>2019-08-19T12:33:01Z</time>
      </trkpt>
      <trkpt lat="45.58025" lon="6.79771">
        <ele>2019</ele>
        <time>2019-08-19T12:33:06Z</time>
      </trkpt>
      <trkpt lat="45.58038" lon="6.7977">
        <ele>2018</ele>
        <time>2019-08-19T12:33:11Z</time>
      </trkpt>
      <trkpt lat="45.58049" lon="6.7977">
        <ele>2018</ele>
        <time>2019-08-19T12:33:16Z</time>
      </trkpt>
      <trkpt lat="45.58062" lon="6.79769">
        <ele>2016</ele>
        <time>2019-08-19T12:33:21Z</time>
      </trkpt>
      <trkpt lat="45.58074" lon="6.79767">
        <ele>2014</ele>
        <time>2019-08-19T12:33:26Z</time>
      </trkpt>
      <trkpt lat="45.58083" lon="6.79763">
        <ele>2012</ele>
        <time>2019-08-19T12:33:31Z</time>
      </trkpt>
      <trkpt lat="45.58097" lon="6.79755">
        <ele>2009</ele>
        <time>2019-08-19T12:33:36Z</time>
      </trkpt>
      <trkpt lat="45.58113" lon="6.79749">
        <ele>1994</ele>
        <time>2019-08-19T12:33:41Z</time>
      </trkpt>
      <trkpt lat="45.58128" lon="6.79746">
        <ele>1992</ele>
        <time>2019-08-19T12:33:46Z</time>
      </trkpt>
      <trkpt lat="45.58139" lon="6.79742">
        <ele>1992</ele>
        <time>2019-08-19T12:33:51Z</time>
      </trkpt>
      <trkpt lat="45.58152" lon="6.79738">
        <ele>1992</ele>
        <time>2019-08-19T12:33:56Z</time>
      </trkpt>
      <trkpt lat="45.58165" lon="6.79734">
        <ele>1992</ele>
        <time>2019-08-19T12:34:02Z</time>
      </trkpt>
      <trkpt lat="45.58178" lon="6.79731">
        <ele>1987</ele>
        <time>2019-08-19T12:34:06Z</time>
      </trkpt>
      <trkpt lat="45.58192" lon="6.79729">
        <ele>1985</ele>
        <time>2019-08-19T12:34:11Z</time>
      </trkpt>
      <trkpt lat="45.58205" lon="6.7973">
        <ele>1984</ele>
        <time>2019-08-19T12:34:16Z</time>
      </trkpt>
      <trkpt lat="45.58215" lon="6.79733">
        <ele>1984</ele>
        <time>2019-08-19T12:34:21Z</time>
      </trkpt>
      <trkpt lat="45.58228" lon="6.79736">
        <ele>1985</ele>
        <time>2019-08-19T12:34:26Z</time>
      </trkpt>
      <trkpt lat="45.58236" lon="6.7974">
        <ele>1986</ele>
        <time>2019-08-19T12:34:31Z</time>
      </trkpt>
      <trkpt lat="45.58249" lon="6.79746">
        <ele>1989</ele>
        <time>2019-08-19T12:34:36Z</time>
      </trkpt>
      <trkpt lat="45.58259" lon="6.79748">
        <ele>1984</ele>
        <time>2019-08-19T12:34:41Z</time>
      </trkpt>
      <trkpt lat="45.58269" lon="6.7975">
        <ele>1980</ele>
        <time>2019-08-19T12:34:46Z</time>
      </trkpt>
      <trkpt lat="45.58275" lon="6.7975">
        <ele>1991</ele>
        <time>2019-08-19T12:34:51Z</time>
      </trkpt>
      <trkpt lat="45.58279" lon="6.79748">
        <ele>1976</ele>
        <time>2019-08-19T12:35:06Z</time>
      </trkpt>
      <trkpt lat="45.58285" lon="6.79751">
        <ele>1990</ele>
        <time>2019-08-19T12:39:16Z</time>
      </trkpt>
      <trkpt lat="45.58295" lon="6.79758">
        <ele>1989</ele>
        <time>2019-08-19T12:39:21Z</time>
      </trkpt>
      <trkpt lat="45.58308" lon="6.79766">
        <ele>1987</ele>
        <time>2019-08-19T12:39:26Z</time>
      </trkpt>
      <trkpt lat="45.58323" lon="6.79773">
        <ele>1986</ele>
        <time>2019-08-19T12:39:31Z</time>
      </trkpt>
      <trkpt lat="45.58331" lon="6.79775">
        <ele>1985</ele>
        <time>2019-08-19T12:39:36Z</time>
      </trkpt>
      <trkpt lat="45.58347" lon="6.7978">
        <ele>1975</ele>
        <time>2019-08-19T12:39:42Z</time>
      </trkpt>
      <trkpt lat="45.58361" lon="6.79785">
        <ele>1975</ele>
        <time>2019-08-19T12:39:46Z</time>
      </trkpt>
      <trkpt lat="45.58373" lon="6.79791">
        <ele>1974</ele>
        <time>2019-08-19T12:39:51Z</time>
      </trkpt>
      <trkpt lat="45.58387" lon="6.79798">
        <ele>1974</ele>
        <time>2019-08-19T12:39:56Z</time>
      </trkpt>
      <trkpt lat="45.58403" lon="6.79806">
        <ele>1974</ele>
        <time>2019-08-19T12:40:02Z</time>
      </trkpt>
      <trkpt lat="45.5841" lon="6.7981">
        <ele>1974</ele>
        <time>2019-08-19T12:40:06Z</time>
      </trkpt>
      <trkpt lat="45.58416" lon="6.79813">
        <ele>1975</ele>
        <time>2019-08-19T12:40:11Z</time>
      </trkpt>
      <trkpt lat="45.58434" lon="6.79817">
        <ele>1965</ele>
        <time>2019-08-19T12:40:16Z</time>
      </trkpt>
      <trkpt lat="45.58453" lon="6.79822">
        <ele>1961</ele>
        <time>2019-08-19T12:40:21Z</time>
      </trkpt>
      <trkpt lat="45.58468" lon="6.79828">
        <ele>1960</ele>
        <time>2019-08-19T12:40:26Z</time>
      </trkpt>
      <trkpt lat="45.58481" lon="6.79834">
        <ele>1973</ele>
        <time>2019-08-19T12:40:31Z</time>
      </trkpt>
      <trkpt lat="45.58494" lon="6.79838">
        <ele>1968</ele>
        <time>2019-08-19T12:40:36Z</time>
      </trkpt>
      <trkpt lat="45.58509" lon="6.7984">
        <ele>1964</ele>
        <time>2019-08-19T12:40:41Z</time>
      </trkpt>
      <trkpt lat="45.58524" lon="6.79843">
        <ele>1964</ele>
        <time>2019-08-19T12:40:46Z</time>
      </trkpt>
      <trkpt lat="45.58537" lon="6.79846">
        <ele>1963</ele>
        <time>2019-08-19T12:40:51Z</time>
      </trkpt>
      <trkpt lat="45.5855" lon="6.79851">
        <ele>1962</ele>
        <time>2019-08-19T12:40:56Z</time>
      </trkpt>
      <trkpt lat="45.58563" lon="6.79857">
        <ele>1960</ele>
        <time>2019-08-19T12:41:01Z</time>
      </trkpt>
      <trkpt lat="45.58576" lon="6.79863">
        <ele>1960</ele>
        <time>2019-08-19T12:41:06Z</time>
      </trkpt>
      <trkpt lat="45.58589" lon="6.7987">
        <ele>1944</ele>
        <time>2019-08-19T12:41:11Z</time>
      </trkpt>
      <trkpt lat="45.58601" lon="6.79882">
        <ele>1945</ele>
        <time>2019-08-19T12:41:16Z</time>
      </trkpt>
      <trkpt lat="45.58612" lon="6.79897">
        <ele>1945</ele>
        <time>2019-08-19T12:41:21Z</time>
      </trkpt>
      <trkpt lat="45.5862" lon="6.79913">
        <ele>1944</ele>
        <time>2019-08-19T12:41:26Z</time>
      </trkpt>
      <trkpt lat="45.58627" lon="6.79927">
        <ele>1955</ele>
        <time>2019-08-19T12:41:31Z</time>
      </trkpt>
      <trkpt lat="45.58636" lon="6.79941">
        <ele>1954</ele>
        <time>2019-08-19T12:41:36Z</time>
      </trkpt>
      <trkpt lat="45.58643" lon="6.79955">
        <ele>1955</ele>
        <time>2019-08-19T12:41:41Z</time>
      </trkpt>
      <trkpt lat="45.58651" lon="6.79972">
        <ele>1955</ele>
        <time>2019-08-19T12:41:46Z</time>
      </trkpt>
      <trkpt lat="45.58661" lon="6.79987">
        <ele>1953</ele>
        <time>2019-08-19T12:41:51Z</time>
      </trkpt>
      <trkpt lat="45.58673" lon="6.80001">
        <ele>1949</ele>
        <time>2019-08-19T12:41:56Z</time>
      </trkpt>
      <trkpt lat="45.58684" lon="6.80015">
        <ele>1947</ele>
        <time>2019-08-19T12:42:01Z</time>
      </trkpt>
      <trkpt lat="45.58694" lon="6.80028">
        <ele>1947</ele>
        <time>2019-08-19T12:42:06Z</time>
      </trkpt>
      <trkpt lat="45.58707" lon="6.80038">
        <ele>1946</ele>
        <time>2019-08-19T12:42:11Z</time>
      </trkpt>
      <trkpt lat="45.58723" lon="6.80043">
        <ele>1944</ele>
        <time>2019-08-19T12:42:16Z</time>
      </trkpt>
      <trkpt lat="45.58742" lon="6.80044">
        <ele>1942</ele>
        <time>2019-08-19T12:42:21Z</time>
      </trkpt>
      <trkpt lat="45.58759" lon="6.80044">
        <ele>1929</ele>
        <time>2019-08-19T12:42:26Z</time>
      </trkpt>
      <trkpt lat="45.58774" lon="6.80044">
        <ele>1928</ele>
        <time>2019-08-19T12:42:31Z</time>
      </trkpt>
      <trkpt lat="45.58789" lon="6.80042">
        <ele>1926</ele>
        <time>2019-08-19T12:42:36Z</time>
      </trkpt>
      <trkpt lat="45.58801" lon="6.80038">
        <ele>1925</ele>
        <time>2019-08-19T12:42:41Z</time>
      </trkpt>
      <trkpt lat="45.58814" lon="6.80034">
        <ele>1923</ele>
        <time>2019-08-19T12:42:46Z</time>
      </trkpt>
      <trkpt lat="45.58825" lon="6.80029">
        <ele>1920</ele>
        <time>2019-08-19T12:42:51Z</time>
      </trkpt>
      <trkpt lat="45.58835" lon="6.80023">
        <ele>1910</ele>
        <time>2019-08-19T12:42:56Z</time>
      </trkpt>
      <trkpt lat="45.5883" lon="6.80029">
        <ele>1920</ele>
        <time>2019-08-19T12:43:51Z</time>
      </trkpt>
      <trkpt lat="45.58826" lon="6.80032">
        <ele>1921</ele>
        <time>2019-08-19T12:46:23Z</time>
      </trkpt>
      <trkpt lat="45.58817" lon="6.80027">
        <ele>1920</ele>
        <time>2019-08-19T12:46:28Z</time>
      </trkpt>
      <trkpt lat="45.58807" lon="6.80011">
        <ele>1919</ele>
        <time>2019-08-19T12:46:33Z</time>
      </trkpt>
      <trkpt lat="45.58812" lon="6.79998">
        <ele>1900</ele>
        <time>2019-08-19T12:46:37Z</time>
      </trkpt>
      <trkpt lat="45.5881" lon="6.79974">
        <ele>1896</ele>
        <time>2019-08-19T12:46:43Z</time>
      </trkpt>
      <trkpt lat="45.58799" lon="6.79964">
        <ele>1895</ele>
        <time>2019-08-19T12:46:47Z</time>
      </trkpt>
      <trkpt lat="45.58788" lon="6.79951">
        <ele>1894</ele>
        <time>2019-08-19T12:46:53Z</time>
      </trkpt>
      <trkpt lat="45.58797" lon="6.79932">
        <ele>1889</ele>
        <time>2019-08-19T12:46:58Z</time>
      </trkpt>
      <trkpt lat="45.58809" lon="6.7993">
        <ele>1886</ele>
        <time>2019-08-19T12:47:02Z</time>
      </trkpt>
      <trkpt lat="45.58817" lon="6.79927">
        <ele>1882</ele>
        <time>2019-08-19T12:47:08Z</time>
      </trkpt>
      <trkpt lat="45.58809" lon="6.79941">
        <ele>1889</ele>
        <time>2019-08-19T12:47:12Z</time>
      </trkpt>
      <trkpt lat="45.58813" lon="6.79945">
        <ele>1889</ele>
        <time>2019-08-19T12:47:17Z</time>
      </trkpt>
      <trkpt lat="45.58823" lon="6.79936">
        <ele>1884</ele>
        <time>2019-08-19T12:47:23Z</time>
      </trkpt>
      <trkpt lat="45.58834" lon="6.79929">
        <ele>1874</ele>
        <time>2019-08-19T12:47:27Z</time>
      </trkpt>
      <trkpt lat="45.58842" lon="6.7992">
        <ele>1872</ele>
        <time>2019-08-19T12:47:33Z</time>
      </trkpt>
      <trkpt lat="45.58835" lon="6.79896">
        <ele>1855</ele>
        <time>2019-08-19T12:47:38Z</time>
      </trkpt>
      <trkpt lat="45.58822" lon="6.79883">
        <ele>1860</ele>
        <time>2019-08-19T12:47:43Z</time>
      </trkpt>
      <trkpt lat="45.5881" lon="6.79866">
        <ele>1857</ele>
        <time>2019-08-19T12:47:48Z</time>
      </trkpt>
      <trkpt lat="45.58804" lon="6.79855">
        <ele>1855</ele>
        <time>2019-08-19T12:47:53Z</time>
      </trkpt>
      <trkpt lat="45.58811" lon="6.79844">
        <ele>1851</ele>
        <time>2019-08-19T12:47:58Z</time>
      </trkpt>
      <trkpt lat="45.58824" lon="6.79835">
        <ele>1842</ele>
        <time>2019-08-19T12:48:02Z</time>
      </trkpt>
      <trkpt lat="45.58841" lon="6.79824">
        <ele>1827</ele>
        <time>2019-08-19T12:48:08Z</time>
      </trkpt>
      <trkpt lat="45.58844" lon="6.7981">
        <ele>1823</ele>
        <time>2019-08-19T12:48:12Z</time>
      </trkpt>
      <trkpt lat="45.58843" lon="6.79799">
        <ele>1821</ele>
        <time>2019-08-19T12:48:17Z</time>
      </trkpt>
      <trkpt lat="45.58847" lon="6.79809">
        <ele>1823</ele>
        <time>2019-08-19T12:48:22Z</time>
      </trkpt>
      <trkpt lat="45.5885" lon="6.79817">
        <ele>1824</ele>
        <time>2019-08-19T12:48:28Z</time>
      </trkpt>
      <trkpt lat="45.58853" lon="6.79824">
        <ele>1824</ele>
        <time>2019-08-19T12:48:32Z</time>
      </trkpt>
      <trkpt lat="45.58875" lon="6.79812">
        <ele>1820</ele>
        <time>2019-08-19T12:48:37Z</time>
      </trkpt>
      <trkpt lat="45.58883" lon="6.79801">
        <ele>1818</ele>
        <time>2019-08-19T12:48:42Z</time>
      </trkpt>
      <trkpt lat="45.58887" lon="6.79799">
        <ele>1818</ele>
        <time>2019-08-19T12:48:48Z</time>
      </trkpt>
      <trkpt lat="45.58893" lon="6.79803">
        <ele>1818</ele>
        <time>2019-08-19T12:48:57Z</time>
      </trkpt>
      <trkpt lat="45.58897" lon="6.79806">
        <ele>1818</ele>
        <time>2019-08-19T12:50:57Z</time>
      </trkpt>
      <trkpt lat="45.5891" lon="6.79803">
        <ele>1818</ele>
        <time>2019-08-19T12:54:22Z</time>
      </trkpt>
      <trkpt lat="45.58922" lon="6.79795">
        <ele>1810</ele>
        <time>2019-08-19T12:54:27Z</time>
      </trkpt>
      <trkpt lat="45.58934" lon="6.79783">
        <ele>1807</ele>
        <time>2019-08-19T12:54:32Z</time>
      </trkpt>
      <trkpt lat="45.58947" lon="6.79772">
        <ele>1806</ele>
        <time>2019-08-19T12:54:37Z</time>
      </trkpt>
      <trkpt lat="45.58954" lon="6.79769">
        <ele>1805</ele>
        <time>2019-08-19T12:54:42Z</time>
      </trkpt>
      <trkpt lat="45.58976" lon="6.79768">
        <ele>1803</ele>
        <time>2019-08-19T12:54:47Z</time>
      </trkpt>
      <trkpt lat="45.58994" lon="6.79772">
        <ele>1801</ele>
        <time>2019-08-19T12:54:52Z</time>
      </trkpt>
      <trkpt lat="45.59009" lon="6.79778">
        <ele>1795</ele>
        <time>2019-08-19T12:54:57Z</time>
      </trkpt>
      <trkpt lat="45.59021" lon="6.79784">
        <ele>1795</ele>
        <time>2019-08-19T12:55:02Z</time>
      </trkpt>
      <trkpt lat="45.59028" lon="6.7979">
        <ele>1795</ele>
        <time>2019-08-19T12:55:08Z</time>
      </trkpt>
      <trkpt lat="45.59036" lon="6.79797">
        <ele>1796</ele>
        <time>2019-08-19T12:55:12Z</time>
      </trkpt>
      <trkpt lat="45.59049" lon="6.79807">
        <ele>1795</ele>
        <time>2019-08-19T12:55:17Z</time>
      </trkpt>
      <trkpt lat="45.59061" lon="6.7981">
        <ele>1795</ele>
        <time>2019-08-19T12:55:22Z</time>
      </trkpt>
      <trkpt lat="45.59075" lon="6.79811">
        <ele>1794</ele>
        <time>2019-08-19T12:55:27Z</time>
      </trkpt>
      <trkpt lat="45.59089" lon="6.79813">
        <ele>1784</ele>
        <time>2019-08-19T12:55:32Z</time>
      </trkpt>
      <trkpt lat="45.59104" lon="6.79813">
        <ele>1782</ele>
        <time>2019-08-19T12:55:37Z</time>
      </trkpt>
      <trkpt lat="45.59112" lon="6.7981">
        <ele>1780</ele>
        <time>2019-08-19T12:55:42Z</time>
      </trkpt>
      <trkpt lat="45.59127" lon="6.79808">
        <ele>1778</ele>
        <time>2019-08-19T12:55:47Z</time>
      </trkpt>
      <trkpt lat="45.59137" lon="6.79807">
        <ele>1777</ele>
        <time>2019-08-19T12:55:52Z</time>
      </trkpt>
      <trkpt lat="45.59148" lon="6.798">
        <ele>1775</ele>
        <time>2019-08-19T12:55:58Z</time>
      </trkpt>
      <trkpt lat="45.59155" lon="6.79793">
        <ele>1774</ele>
        <time>2019-08-19T12:56:02Z</time>
      </trkpt>
      <trkpt lat="45.59166" lon="6.79782">
        <ele>1772</ele>
        <time>2019-08-19T12:56:08Z</time>
      </trkpt>
      <trkpt lat="45.59171" lon="6.79773">
        <ele>1762</ele>
        <time>2019-08-19T12:56:12Z</time>
      </trkpt>
      <trkpt lat="45.59197" lon="6.79758">
        <ele>1760</ele>
        <time>2019-08-19T12:56:25Z</time>
      </trkpt>
      <trkpt lat="45.59205" lon="6.79755">
        <ele>1760</ele>
        <time>2019-08-19T12:56:29Z</time>
      </trkpt>
      <trkpt lat="45.59216" lon="6.79754">
        <ele>1758</ele>
        <time>2019-08-19T12:56:34Z</time>
      </trkpt>
      <trkpt lat="45.59235" lon="6.7976">
        <ele>1755</ele>
        <time>2019-08-19T12:56:39Z</time>
      </trkpt>
      <trkpt lat="45.59282" lon="6.79785">
        <ele>1746</ele>
        <time>2019-08-19T12:56:55Z</time>
      </trkpt>
      <trkpt lat="45.5929" lon="6.79787">
        <ele>1745</ele>
        <time>2019-08-19T12:56:59Z</time>
      </trkpt>
      <trkpt lat="45.59299" lon="6.79794">
        <ele>1745</ele>
        <time>2019-08-19T12:57:03Z</time>
      </trkpt>
      <trkpt lat="45.59306" lon="6.79802">
        <ele>1744</ele>
        <time>2019-08-19T12:57:07Z</time>
      </trkpt>
      <trkpt lat="45.59313" lon="6.79813">
        <ele>1744</ele>
        <time>2019-08-19T12:57:12Z</time>
      </trkpt>
      <trkpt lat="45.59325" lon="6.79836">
        <ele>1749</ele>
        <time>2019-08-19T12:57:17Z</time>
      </trkpt>
      <trkpt lat="45.59334" lon="6.79857">
        <ele>1745</ele>
        <time>2019-08-19T12:57:22Z</time>
      </trkpt>
      <trkpt lat="45.59346" lon="6.79872">
        <ele>1747</ele>
        <time>2019-08-19T12:57:27Z</time>
      </trkpt>
      <trkpt lat="45.59358" lon="6.79879">
        <ele>1748</ele>
        <time>2019-08-19T12:57:32Z</time>
      </trkpt>
      <trkpt lat="45.59371" lon="6.79884">
        <ele>1748</ele>
        <time>2019-08-19T12:57:37Z</time>
      </trkpt>
      <trkpt lat="45.59384" lon="6.79884">
        <ele>1747</ele>
        <time>2019-08-19T12:57:42Z</time>
      </trkpt>
      <trkpt lat="45.59396" lon="6.79884">
        <ele>1746</ele>
        <time>2019-08-19T12:57:47Z</time>
      </trkpt>
      <trkpt lat="45.59408" lon="6.79882">
        <ele>1746</ele>
        <time>2019-08-19T12:57:52Z</time>
      </trkpt>
      <trkpt lat="45.5942" lon="6.79879">
        <ele>1739</ele>
        <time>2019-08-19T12:57:57Z</time>
      </trkpt>
      <trkpt lat="45.59428" lon="6.79878">
        <ele>1738</ele>
        <time>2019-08-19T12:58:02Z</time>
      </trkpt>
      <trkpt lat="45.59446" lon="6.79876">
        <ele>1737</ele>
        <time>2019-08-19T12:58:07Z</time>
      </trkpt>
      <trkpt lat="45.59462" lon="6.79877">
        <ele>1736</ele>
        <time>2019-08-19T12:58:12Z</time>
      </trkpt>
      <trkpt lat="45.59475" lon="6.79882">
        <ele>1737</ele>
        <time>2019-08-19T12:58:17Z</time>
      </trkpt>
      <trkpt lat="45.59487" lon="6.79887">
        <ele>1737</ele>
        <time>2019-08-19T12:58:22Z</time>
      </trkpt>
      <trkpt lat="45.59501" lon="6.79894">
        <ele>1736</ele>
        <time>2019-08-19T12:58:27Z</time>
      </trkpt>
      <trkpt lat="45.59512" lon="6.79904">
        <ele>1738</ele>
        <time>2019-08-19T12:58:32Z</time>
      </trkpt>
      <trkpt lat="45.59525" lon="6.7991">
        <ele>1737</ele>
        <time>2019-08-19T12:58:37Z</time>
      </trkpt>
      <trkpt lat="45.59536" lon="6.7991">
        <ele>1736</ele>
        <time>2019-08-19T12:58:42Z</time>
      </trkpt>
      <trkpt lat="45.59542" lon="6.7991">
        <ele>1736</ele>
        <time>2019-08-19T12:58:47Z</time>
      </trkpt>
      <trkpt lat="45.59546" lon="6.79903">
        <ele>1736</ele>
        <time>2019-08-19T13:00:09Z</time>
      </trkpt>
      <trkpt lat="45.59551" lon="6.79892">
        <ele>1735</ele>
        <time>2019-08-19T13:00:17Z</time>
      </trkpt>
      <trkpt lat="45.59553" lon="6.79898">
        <ele>1736</ele>
        <time>2019-08-19T13:01:41Z</time>
      </trkpt>
      <trkpt lat="45.59556" lon="6.79908">
        <ele>1737</ele>
        <time>2019-08-19T13:02:01Z</time>
      </trkpt>
      <trkpt lat="45.59559" lon="6.79914">
        <ele>1737</ele>
        <time>2019-08-19T13:02:06Z</time>
      </trkpt>
      <trkpt lat="45.59562" lon="6.79921">
        <ele>1751</ele>
        <time>2019-08-19T13:02:11Z</time>
      </trkpt>
      <trkpt lat="45.59567" lon="6.79926">
        <ele>1750</ele>
        <time>2019-08-19T13:02:16Z</time>
      </trkpt>
      <trkpt lat="45.59575" lon="6.79928">
        <ele>1749</ele>
        <time>2019-08-19T13:02:27Z</time>
      </trkpt>
      <trkpt lat="45.59585" lon="6.7993">
        <ele>1750</ele>
        <time>2019-08-19T13:02:37Z</time>
      </trkpt>
      <trkpt lat="45.59592" lon="6.7993">
        <ele>1751</ele>
        <time>2019-08-19T13:02:46Z</time>
      </trkpt>
      <trkpt lat="45.59598" lon="6.79928">
        <ele>1751</ele>
        <time>2019-08-19T13:02:51Z</time>
      </trkpt>
      <trkpt lat="45.59604" lon="6.79925">
        <ele>1752</ele>
        <time>2019-08-19T13:02:56Z</time>
      </trkpt>
      <trkpt lat="45.59609" lon="6.79922">
        <ele>1753</ele>
        <time>2019-08-19T13:03:01Z</time>
      </trkpt>
      <trkpt lat="45.59615" lon="6.7992">
        <ele>1753</ele>
        <time>2019-08-19T13:03:06Z</time>
      </trkpt>
      <trkpt lat="45.59621" lon="6.79917">
        <ele>1754</ele>
        <time>2019-08-19T13:03:11Z</time>
      </trkpt>
      <trkpt lat="45.59626" lon="6.79916">
        <ele>1739</ele>
        <time>2019-08-19T13:03:16Z</time>
      </trkpt>
      <trkpt lat="45.59633" lon="6.79912">
        <ele>1740</ele>
        <time>2019-08-19T13:03:21Z</time>
      </trkpt>
      <trkpt lat="45.5964" lon="6.79912">
        <ele>1740</ele>
        <time>2019-08-19T13:03:27Z</time>
      </trkpt>
      <trkpt lat="45.59649" lon="6.79912">
        <ele>1742</ele>
        <time>2019-08-19T13:03:32Z</time>
      </trkpt>
      <trkpt lat="45.59655" lon="6.79911">
        <ele>1743</ele>
        <time>2019-08-19T13:03:36Z</time>
      </trkpt>
      <trkpt lat="45.59661" lon="6.79911">
        <ele>1745</ele>
        <time>2019-08-19T13:03:41Z</time>
      </trkpt>
      <trkpt lat="45.59668" lon="6.79913">
        <ele>1747</ele>
        <time>2019-08-19T13:03:47Z</time>
      </trkpt>
      <trkpt lat="45.59675" lon="6.79916">
        <ele>1745</ele>
        <time>2019-08-19T13:03:51Z</time>
      </trkpt>
      <trkpt lat="45.59682" lon="6.7992">
        <ele>1752</ele>
        <time>2019-08-19T13:03:56Z</time>
      </trkpt>
      <trkpt lat="45.59688" lon="6.79922">
        <ele>1753</ele>
        <time>2019-08-19T13:04:01Z</time>
      </trkpt>
      <trkpt lat="45.59696" lon="6.79925">
        <ele>1753</ele>
        <time>2019-08-19T13:04:07Z</time>
      </trkpt>
      <trkpt lat="45.59703" lon="6.79928">
        <ele>1753</ele>
        <time>2019-08-19T13:04:11Z</time>
      </trkpt>
      <trkpt lat="45.59709" lon="6.79933">
        <ele>1753</ele>
        <time>2019-08-19T13:04:16Z</time>
      </trkpt>
      <trkpt lat="45.59715" lon="6.79939">
        <ele>1754</ele>
        <time>2019-08-19T13:04:22Z</time>
      </trkpt>
      <trkpt lat="45.59721" lon="6.79943">
        <ele>1754</ele>
        <time>2019-08-19T13:04:26Z</time>
      </trkpt>
      <trkpt lat="45.59726" lon="6.79949">
        <ele>1754</ele>
        <time>2019-08-19T13:04:32Z</time>
      </trkpt>
      <trkpt lat="45.5973" lon="6.79955">
        <ele>1755</ele>
        <time>2019-08-19T13:04:36Z</time>
      </trkpt>
      <trkpt lat="45.59733" lon="6.79963">
        <ele>1756</ele>
        <time>2019-08-19T13:04:41Z</time>
      </trkpt>
      <trkpt lat="45.59737" lon="6.7997">
        <ele>1757</ele>
        <time>2019-08-19T13:04:46Z</time>
      </trkpt>
      <trkpt lat="45.59738" lon="6.79954">
        <ele>1754</ele>
        <time>2019-08-19T13:05:28Z</time>
      </trkpt>
      <trkpt lat="45.59738" lon="6.7994">
        <ele>1752</ele>
        <time>2019-08-19T13:05:33Z</time>
      </trkpt>
      <trkpt lat="45.59739" lon="6.79927">
        <ele>1749</ele>
        <time>2019-08-19T13:05:38Z</time>
      </trkpt>
      <trkpt lat="45.5974" lon="6.79915">
        <ele>1741</ele>
        <time>2019-08-19T13:05:43Z</time>
      </trkpt>
      <trkpt lat="45.59739" lon="6.79907">
        <ele>1740</ele>
        <time>2019-08-19T13:05:48Z</time>
      </trkpt>
      <trkpt lat="45.5974" lon="6.79894">
        <ele>1738</ele>
        <time>2019-08-19T13:05:52Z</time>
      </trkpt>
      <trkpt lat="45.5974" lon="6.79886">
        <ele>1737</ele>
        <time>2019-08-19T13:05:58Z</time>
      </trkpt>
      <trkpt lat="45.59743" lon="6.79878">
        <ele>1736</ele>
        <time>2019-08-19T13:06:03Z</time>
      </trkpt>
      <trkpt lat="45.59747" lon="6.79886">
        <ele>1737</ele>
        <time>2019-08-19T13:06:18Z</time>
      </trkpt>
      <trkpt lat="45.59757" lon="6.79904">
        <ele>1738</ele>
        <time>2019-08-19T13:06:37Z</time>
      </trkpt>
      <trkpt lat="45.59765" lon="6.79897">
        <ele>1736</ele>
        <time>2019-08-19T13:06:46Z</time>
      </trkpt>
      <trkpt lat="45.59769" lon="6.79893">
        <ele>1735</ele>
        <time>2019-08-19T13:06:51Z</time>
      </trkpt>
      <trkpt lat="45.59774" lon="6.79892">
        <ele>1734</ele>
        <time>2019-08-19T13:06:56Z</time>
      </trkpt>
      <trkpt lat="45.59799" lon="6.79907">
        <ele>1734</ele>
        <time>2019-08-19T13:07:12Z</time>
      </trkpt>
      <trkpt lat="45.59791" lon="6.79902">
        <ele>1734</ele>
        <time>2019-08-19T13:07:12Z</time>
      </trkpt>
      <trkpt lat="45.59797" lon="6.79893">
        <ele>1733</ele>
        <time>2019-08-19T13:07:30Z</time>
      </trkpt>
      <trkpt lat="45.598" lon="6.79902">
        <ele>1734</ele>
        <time>2019-08-19T13:07:34Z</time>
      </trkpt>
      <trkpt lat="45.59792" lon="6.79901">
        <ele>1734</ele>
        <time>2019-08-19T13:07:35Z</time>
      </trkpt>
      <trkpt lat="45.59813" lon="6.79906">
        <ele>1734</ele>
        <time>2019-08-19T13:07:57Z</time>
      </trkpt>
      <trkpt lat="45.59792" lon="6.79903">
        <ele>1734</ele>
        <time>2019-08-19T13:13:24Z</time>
      </trkpt>
      <trkpt lat="45.59799" lon="6.79905">
        <ele>1734</ele>
        <time>2019-08-19T13:18:18Z</time>
      </trkpt>
      <trkpt lat="45.59808" lon="6.79906">
        <ele>1734</ele>
        <time>2019-08-19T13:18:23Z</time>
      </trkpt>
      <trkpt lat="45.59813" lon="6.79905">
        <ele>1734</ele>
        <time>2019-08-19T13:18:47Z</time>
      </trkpt>
      <trkpt lat="45.59847" lon="6.79925">
        <ele>1736</ele>
        <time>2019-08-19T13:27:37Z</time>
      </trkpt>
      <trkpt lat="45.59815" lon="6.79906">
        <ele>1734</ele>
        <time>2019-08-19T13:28:09Z</time>
      </trkpt>
      <trkpt lat="45.59823" lon="6.79914">
        <ele>1735</ele>
        <time>2019-08-19T13:28:22Z</time>
      </trkpt>
      <trkpt lat="45.59833" lon="6.7993">
        <ele>1742</ele>
        <time>2019-08-19T13:28:25Z</time>
      </trkpt>
      <trkpt lat="45.59835" lon="6.79944">
        <ele>1738</ele>
        <time>2019-08-19T13:28:30Z</time>
      </trkpt>
      <trkpt lat="45.59835" lon="6.79953">
        <ele>1739</ele>
        <time>2019-08-19T13:28:34Z</time>
      </trkpt>
      <trkpt lat="45.5983" lon="6.79951">
        <ele>1747</ele>
        <time>2019-08-19T13:28:45Z</time>
      </trkpt>
      <trkpt lat="45.59823" lon="6.79963">
        <ele>1749</ele>
        <time>2019-08-19T13:30:17Z</time>
      </trkpt>
    </trkseg>
  </trk>
</gpx>